<?xml version='1.0' encoding='UTF-8'?><gpx version="1.1" creator="JPX - https://github.com/jenetics/jpx" xmlns="http://www.topografix.com/GPX/1/1"><trk><trkseg><trkpt lat="45.065626485934985" lon="6.7068150000398505"><ele>1585.0000000000002</ele><time>2026-05-01T13:32:40.999Z</time></trkpt><trkpt lat="45.065634829728744" lon="6.70670831217551"><ele>1585.0</ele><time>2026-05-01T13:32:57Z</time></trkpt><trkpt lat="45.06554274898088" lon="6.706671452373368"><ele>1585.0</ele><time>2026-05-01T13:33:00Z</time></trkpt><trkpt lat="45.06546737971194" lon="6.7066361764146345"><ele>1585.0</ele><time>2026-05-01T13:33:03Z</time></trkpt><trkpt lat="45.06545947179396" lon="6.7065313109602664"><ele>1585.0000000000002</ele><time>2026-05-01T13:33:05Z</time></trkpt><trkpt lat="45.06544100411337" lon="6.706414000087194"><ele>1585.0</ele><time>2026-05-01T13:33:07Z</time></trkpt><trkpt lat="45.06543514845024" lon="6.706291330053766"><ele>1585.0000000000002</ele><time>2026-05-01T13:33:09Z</time></trkpt><trkpt lat="45.06543595071103" lon="6.706146500988073"><ele>1585.0</ele><time>2026-05-01T13:33:11Z</time></trkpt><trkpt lat="45.06546740337372" lon="6.706034755162247"><ele>1585.0</ele><time>2026-05-01T13:33:13Z</time></trkpt><trkpt lat="45.065506000099134" lon="6.705954810671455"><ele>1585.0</ele><time>2026-05-01T13:33:15Z</time></trkpt><trkpt lat="45.065521360295094" lon="6.705827787539203"><ele>1585.0000000000002</ele><time>2026-05-01T13:33:18Z</time></trkpt><trkpt lat="45.06548207800745" lon="6.705718762737945"><ele>1585.0</ele><time>2026-05-01T13:33:20Z</time></trkpt><trkpt lat="45.06542332011293" lon="6.705643690281485"><ele>1584.0</ele><time>2026-05-01T13:33:22Z</time></trkpt><trkpt lat="45.065331990218276" lon="6.705558702759222"><ele>1583.0</ele><time>2026-05-01T13:33:24Z</time></trkpt><trkpt lat="45.06526220077074" lon="6.7055123922024125"><ele>1582.0</ele><time>2026-05-01T13:33:25Z</time></trkpt><trkpt lat="45.06517105052778" lon="6.705422867753766"><ele>1581.0</ele><time>2026-05-01T13:33:27Z</time></trkpt><trkpt lat="45.06512181747753" lon="6.705359537915991"><ele>1580.0</ele><time>2026-05-01T13:33:28Z</time></trkpt><trkpt lat="45.065079081691515" lon="6.70519517204041"><ele>1578.8333333333333</ele><time>2026-05-01T13:33:30Z</time></trkpt><trkpt lat="45.06509035868395" lon="6.70506946569162"><ele>1577.6666666666665</ele><time>2026-05-01T13:33:31Z</time></trkpt><trkpt lat="45.06509487572145" lon="6.704968940311994"><ele>1576.5</ele><time>2026-05-01T13:33:32Z</time></trkpt><trkpt lat="45.065093265686635" lon="6.704875885365784"><ele>1575.3333333333335</ele><time>2026-05-01T13:33:33Z</time></trkpt><trkpt lat="45.065099767382804" lon="6.704780999576555"><ele>1574.1666666666667</ele><time>2026-05-01T13:33:34Z</time></trkpt><trkpt lat="45.06510663713492" lon="6.704687238039296"><ele>1573.0</ele><time>2026-05-01T13:33:35Z</time></trkpt><trkpt lat="45.06511116637636" lon="6.704547489348313"><ele>1573.0000000000002</ele><time>2026-05-01T13:33:37Z</time></trkpt><trkpt lat="45.06508460124727" lon="6.704460157151013"><ele>1573.0</ele><time>2026-05-01T13:33:39Z</time></trkpt><trkpt lat="45.06503116560066" lon="6.7043609482791835"><ele>1573.0</ele><time>2026-05-01T13:33:41Z</time></trkpt><trkpt lat="45.06496563236458" lon="6.704225402254213"><ele>1573.0</ele><time>2026-05-01T13:33:43Z</time></trkpt><trkpt lat="45.06493069749027" lon="6.704140865996362"><ele>1573.0000000000002</ele><time>2026-05-01T13:33:44Z</time></trkpt><trkpt lat="45.06488433309751" lon="6.704053040269409"><ele>1573.0</ele><time>2026-05-01T13:33:45Z</time></trkpt><trkpt lat="45.064842654726355" lon="6.703967849231078"><ele>1573.0</ele><time>2026-05-01T13:33:46Z</time></trkpt><trkpt lat="45.06480576388518" lon="6.703887740379516"><ele>1573.0</ele><time>2026-05-01T13:33:47Z</time></trkpt><trkpt lat="45.06477071014353" lon="6.703799791484094"><ele>1573.0</ele><time>2026-05-01T13:33:48Z</time></trkpt><trkpt lat="45.06473832203973" lon="6.7037214011939765"><ele>1573.0</ele><time>2026-05-01T13:33:49Z</time></trkpt><trkpt lat="45.064730455362444" lon="6.703630097943701"><ele>1573.0</ele><time>2026-05-01T13:33:50Z</time></trkpt><trkpt lat="45.06470593292575" lon="6.703545197718848"><ele>1573.0</ele><time>2026-05-01T13:33:51Z</time></trkpt><trkpt lat="45.06468488437846" lon="6.703446567618799"><ele>1573.0</ele><time>2026-05-01T13:33:52Z</time></trkpt><trkpt lat="45.06466050952708" lon="6.703348148739647"><ele>1573.0000000000002</ele><time>2026-05-01T13:33:53Z</time></trkpt><trkpt lat="45.0646389049063" lon="6.703261190090416"><ele>1573.0</ele><time>2026-05-01T13:33:54Z</time></trkpt><trkpt lat="45.06461685196145" lon="6.703175000794581"><ele>1573.0</ele><time>2026-05-01T13:33:55Z</time></trkpt><trkpt lat="45.064581805232386" lon="6.7030386219813884"><ele>1573.0</ele><time>2026-05-01T13:33:57Z</time></trkpt><trkpt lat="45.064559944210046" lon="6.702944939804039"><ele>1573.0000000000002</ele><time>2026-05-01T13:33:59Z</time></trkpt><trkpt lat="45.06459614260127" lon="6.702847108736477"><ele>1573.0</ele><time>2026-05-01T13:34:01Z</time></trkpt><trkpt lat="45.064712634992226" lon="6.702784763647668"><ele>1571.0000000000002</ele><time>2026-05-01T13:34:03Z</time></trkpt><trkpt lat="45.06479707183724" lon="6.702727736930515"><ele>1569.0</ele><time>2026-05-01T13:34:05Z</time></trkpt><trkpt lat="45.06484814413755" lon="6.702671979337916"><ele>1567.0</ele><time>2026-05-01T13:34:07Z</time></trkpt><trkpt lat="45.06491234950248" lon="6.70262734155749"><ele>1565.0</ele><time>2026-05-01T13:34:09Z</time></trkpt><trkpt lat="45.06493776813185" lon="6.702520041862865"><ele>1563.0000000000002</ele><time>2026-05-01T13:34:11Z</time></trkpt><trkpt lat="45.064905492506014" lon="6.702373292565486"><ele>1561.0</ele><time>2026-05-01T13:34:13Z</time></trkpt><trkpt lat="45.06487429311463" lon="6.7022951288133195"><ele>1561.0000000000002</ele><time>2026-05-01T13:34:14Z</time></trkpt><trkpt lat="45.064872355590644" lon="6.7021894040373615"><ele>1561.0</ele><time>2026-05-01T13:34:14.999Z</time></trkpt><trkpt lat="45.06483612876929" lon="6.702111386585067"><ele>1561.0</ele><time>2026-05-01T13:34:15.999Z</time></trkpt><trkpt lat="45.064777560260985" lon="6.701952765197439"><ele>1561.0</ele><time>2026-05-01T13:34:17.999Z</time></trkpt><trkpt lat="45.064752594329505" lon="6.701862272660086"><ele>1561.0000000000002</ele><time>2026-05-01T13:34:18.999Z</time></trkpt><trkpt lat="45.06472843380568" lon="6.701770107115457"><ele>1561.0</ele><time>2026-05-01T13:34:19.999Z</time></trkpt><trkpt lat="45.064697737613606" lon="6.701594860812697"><ele>1559.8333333333335</ele><time>2026-05-01T13:34:21.999Z</time></trkpt><trkpt lat="45.0646844100881" lon="6.701496479730527"><ele>1558.6666666666667</ele><time>2026-05-01T13:34:22.999Z</time></trkpt><trkpt lat="45.06467377330745" lon="6.701391872367996"><ele>1557.5</ele><time>2026-05-01T13:34:23.999Z</time></trkpt><trkpt lat="45.064666507806784" lon="6.701284169350887"><ele>1556.3333333333335</ele><time>2026-05-01T13:34:24.999Z</time></trkpt><trkpt lat="45.06466224373125" lon="6.701168919051689"><ele>1555.1666666666667</ele><time>2026-05-01T13:34:25.999Z</time></trkpt><trkpt lat="45.06464580270159" lon="6.701059137705166"><ele>1554.0</ele><time>2026-05-01T13:34:26.999Z</time></trkpt><trkpt lat="45.06465393894393" lon="6.700945797018825"><ele>1551.5</ele><time>2026-05-01T13:34:27.999Z</time></trkpt><trkpt lat="45.064647662292366" lon="6.700831270323869"><ele>1549.0</ele><time>2026-05-01T13:34:28.999Z</time></trkpt><trkpt lat="45.0646434551943" lon="6.7007202330435"><ele>1546.5</ele><time>2026-05-01T13:34:29.999Z</time></trkpt><trkpt lat="45.0646461926971" lon="6.700608597892119"><ele>1544.0</ele><time>2026-05-01T13:34:30.999Z</time></trkpt><trkpt lat="45.064652904307444" lon="6.700492756619306"><ele>1541.5</ele><time>2026-05-01T13:34:31.999Z</time></trkpt><trkpt lat="45.064643006342735" lon="6.70038408854991"><ele>1539.0</ele><time>2026-05-01T13:34:32.999Z</time></trkpt><trkpt lat="45.064647466131085" lon="6.70026934915744"><ele>1537.1666666666667</ele><time>2026-05-01T13:34:33.999Z</time></trkpt><trkpt lat="45.06466007772311" lon="6.700159129959679"><ele>1535.3333333333333</ele><time>2026-05-01T13:34:34.999Z</time></trkpt><trkpt lat="45.06466371694487" lon="6.700042979095428"><ele>1533.5</ele><time>2026-05-01T13:34:35.999Z</time></trkpt><trkpt lat="45.06466314011577" lon="6.69992874931492"><ele>1531.6666666666665</ele><time>2026-05-01T13:34:36.999Z</time></trkpt><trkpt lat="45.06465758470051" lon="6.699797519161357"><ele>1529.8333333333333</ele><time>2026-05-01T13:34:37.999Z</time></trkpt><trkpt lat="45.06465117452416" lon="6.699669098441763"><ele>1528.0</ele><time>2026-05-01T13:34:38.999Z</time></trkpt><trkpt lat="45.06467180400755" lon="6.699542127579072"><ele>1528.0</ele><time>2026-05-01T13:34:39.999Z</time></trkpt><trkpt lat="45.064678972287766" lon="6.699430545405488"><ele>1528.0</ele><time>2026-05-01T13:34:40.999Z</time></trkpt><trkpt lat="45.06468773127499" lon="6.699327342450999"><ele>1528.0</ele><time>2026-05-01T13:34:41.999Z</time></trkpt><trkpt lat="45.06469402289088" lon="6.6992100462560185"><ele>1528.0</ele><time>2026-05-01T13:34:42.999Z</time></trkpt><trkpt lat="45.064724716541626" lon="6.699120136286951"><ele>1528.0</ele><time>2026-05-01T13:34:43.999Z</time></trkpt><trkpt lat="45.064754741319504" lon="6.699034500121688"><ele>1528.0</ele><time>2026-05-01T13:34:44.999Z</time></trkpt><trkpt lat="45.06477585888352" lon="6.698934591283853"><ele>1528.0</ele><time>2026-05-01T13:34:45.999Z</time></trkpt><trkpt lat="45.06478752081576" lon="6.698827050141579"><ele>1527.0</ele><time>2026-05-01T13:34:46.999Z</time></trkpt><trkpt lat="45.06478861204234" lon="6.698723468603037"><ele>1526.0</ele><time>2026-05-01T13:34:47.999Z</time></trkpt><trkpt lat="45.0647768396339" lon="6.6986221259941"><ele>1525.0</ele><time>2026-05-01T13:34:48.999Z</time></trkpt><trkpt lat="45.064760225271165" lon="6.698511204652497"><ele>1524.0</ele><time>2026-05-01T13:34:49.999Z</time></trkpt><trkpt lat="45.06476650658464" lon="6.698412180107295"><ele>1523.0</ele><time>2026-05-01T13:34:50.999Z</time></trkpt><trkpt lat="45.064755389086656" lon="6.698261920095137"><ele>1522.0</ele><time>2026-05-01T13:34:52.999Z</time></trkpt><trkpt lat="45.064743064697375" lon="6.698088922968828"><ele>1521.3999999999999</ele><time>2026-05-01T13:34:54.999Z</time></trkpt><trkpt lat="45.06473806077993" lon="6.697999993582798"><ele>1520.8</ele><time>2026-05-01T13:34:55.999Z</time></trkpt><trkpt lat="45.064731497558306" lon="6.697829692239519"><ele>1520.2</ele><time>2026-05-01T13:34:57.999Z</time></trkpt><trkpt lat="45.064729596823874" lon="6.69773682708345"><ele>1519.6</ele><time>2026-05-01T13:34:59Z</time></trkpt><trkpt lat="45.06474026836859" lon="6.697582810079002"><ele>1519.0</ele><time>2026-05-01T13:35:01Z</time></trkpt><trkpt lat="45.064766638668175" lon="6.697443881770166"><ele>1517.5</ele><time>2026-05-01T13:35:03Z</time></trkpt><trkpt lat="45.064802053121866" lon="6.6973290184178325"><ele>1516.0</ele><time>2026-05-01T13:35:05Z</time></trkpt><trkpt lat="45.064828780403175" lon="6.6972017126542225"><ele>1514.5</ele><time>2026-05-01T13:35:07Z</time></trkpt><trkpt lat="45.064879940578805" lon="6.6971394257662675"><ele>1513.0</ele><time>2026-05-01T13:35:08Z</time></trkpt><trkpt lat="45.06492823952885" lon="6.697062455730815"><ele>1511.5</ele><time>2026-05-01T13:35:09Z</time></trkpt><trkpt lat="45.06495142776679" lon="6.696973190957407"><ele>1510.0</ele><time>2026-05-01T13:35:10Z</time></trkpt><trkpt lat="45.065010179241575" lon="6.696838226617792"><ele>1502.8333333333333</ele><time>2026-05-01T13:35:12Z</time></trkpt><trkpt lat="45.06505082116405" lon="6.69668108474475"><ele>1495.6666666666665</ele><time>2026-05-01T13:35:14Z</time></trkpt><trkpt lat="45.06504604688788" lon="6.696573192958768"><ele>1488.5</ele><time>2026-05-01T13:35:15Z</time></trkpt><trkpt lat="45.06503543438499" lon="6.696473820295953"><ele>1481.3333333333333</ele><time>2026-05-01T13:35:16Z</time></trkpt><trkpt lat="45.0650133821411" lon="6.696371806734713"><ele>1474.1666666666667</ele><time>2026-05-01T13:35:17Z</time></trkpt><trkpt lat="45.06499204518585" lon="6.6962843382117585"><ele>1467.0</ele><time>2026-05-01T13:35:18Z</time></trkpt><trkpt lat="45.06498895562299" lon="6.6961889616378665"><ele>1467.0</ele><time>2026-05-01T13:35:19Z</time></trkpt><trkpt lat="45.06496706152738" lon="6.6960910182696285"><ele>1467.0</ele><time>2026-05-01T13:35:20Z</time></trkpt><trkpt lat="45.06496399003744" lon="6.695982099963588"><ele>1467.0</ele><time>2026-05-01T13:35:21Z</time></trkpt><trkpt lat="45.064948950069365" lon="6.695865082590309"><ele>1467.0</ele><time>2026-05-01T13:35:22Z</time></trkpt><trkpt lat="45.064935825912855" lon="6.695744369472052"><ele>1467.0</ele><time>2026-05-01T13:35:23Z</time></trkpt><trkpt lat="45.06493102766036" lon="6.695637711564972"><ele>1467.0</ele><time>2026-05-01T13:35:24Z</time></trkpt><trkpt lat="45.06492243179216" lon="6.695537941117555"><ele>1468.3333333333333</ele><time>2026-05-01T13:35:25Z</time></trkpt><trkpt lat="45.06491585107915" lon="6.6954448461941345"><ele>1469.6666666666667</ele><time>2026-05-01T13:35:26Z</time></trkpt><trkpt lat="45.06490698091557" lon="6.695338684314221"><ele>1471.0</ele><time>2026-05-01T13:35:27Z</time></trkpt><trkpt lat="45.06491894294589" lon="6.69522292640214"><ele>1472.3333333333335</ele><time>2026-05-01T13:35:28Z</time></trkpt><trkpt lat="45.06493125127676" lon="6.695100625119211"><ele>1473.6666666666667</ele><time>2026-05-01T13:35:29Z</time></trkpt><trkpt lat="45.06495069595785" lon="6.694964720007543"><ele>1475.0</ele><time>2026-05-01T13:35:30Z</time></trkpt><trkpt lat="45.064975924395654" lon="6.694826677999331"><ele>1468.0</ele><time>2026-05-01T13:35:31Z</time></trkpt><trkpt lat="45.065000142200674" lon="6.694696385281126"><ele>1461.0</ele><time>2026-05-01T13:35:32Z</time></trkpt><trkpt lat="45.065019706238125" lon="6.694575090271197"><ele>1454.0</ele><time>2026-05-01T13:35:33Z</time></trkpt><trkpt lat="45.06502604224004" lon="6.69444700520434"><ele>1447.0</ele><time>2026-05-01T13:35:34Z</time></trkpt><trkpt lat="45.06499694773013" lon="6.694313248976928"><ele>1440.0</ele><time>2026-05-01T13:35:35Z</time></trkpt><trkpt lat="45.06499772231473" lon="6.694176731283881"><ele>1439.2</ele><time>2026-05-01T13:35:36Z</time></trkpt><trkpt lat="45.064965678854" lon="6.694058644095439"><ele>1438.4</ele><time>2026-05-01T13:35:37Z</time></trkpt><trkpt lat="45.064951365872325" lon="6.69393455865124"><ele>1437.6</ele><time>2026-05-01T13:35:38Z</time></trkpt><trkpt lat="45.064931356051396" lon="6.693797187742092"><ele>1436.8</ele><time>2026-05-01T13:35:39Z</time></trkpt><trkpt lat="45.06492989198594" lon="6.693659635771716"><ele>1436.0</ele><time>2026-05-01T13:35:40Z</time></trkpt><trkpt lat="45.0649230100776" lon="6.693532389881887"><ele>1433.0</ele><time>2026-05-01T13:35:41Z</time></trkpt><trkpt lat="45.06491196830572" lon="6.693427566437114"><ele>1430.0</ele><time>2026-05-01T13:35:42Z</time></trkpt><trkpt lat="45.06486127860676" lon="6.6932572585226335"><ele>1427.0</ele><time>2026-05-01T13:35:44Z</time></trkpt><trkpt lat="45.06480152851198" lon="6.693177115045689"><ele>1424.0</ele><time>2026-05-01T13:35:45Z</time></trkpt><trkpt lat="45.06473613731319" lon="6.693109716178237"><ele>1421.0</ele><time>2026-05-01T13:35:46Z</time></trkpt><trkpt lat="45.064673928386426" lon="6.693041572037063"><ele>1418.0</ele><time>2026-05-01T13:35:47Z</time></trkpt><trkpt lat="45.06461445928601" lon="6.692977478586401"><ele>1418.0</ele><time>2026-05-01T13:35:48Z</time></trkpt><trkpt lat="45.06455798585027" lon="6.692906417804334"><ele>1418.0</ele><time>2026-05-01T13:35:49Z</time></trkpt><trkpt lat="45.06450612586133" lon="6.692822059681437"><ele>1418.0</ele><time>2026-05-01T13:35:50Z</time></trkpt><trkpt lat="45.06444988768197" lon="6.692718425749459"><ele>1418.0</ele><time>2026-05-01T13:35:51Z</time></trkpt><trkpt lat="45.06439431569841" lon="6.69260745867115"><ele>1418.0</ele><time>2026-05-01T13:35:52Z</time></trkpt><trkpt lat="45.06433268171223" lon="6.692486491488781"><ele>1418.0</ele><time>2026-05-01T13:35:53Z</time></trkpt><trkpt lat="45.06425803567953" lon="6.692385376783009"><ele>1417.6666666666667</ele><time>2026-05-01T13:35:54Z</time></trkpt><trkpt lat="45.06421435696739" lon="6.692260916877079"><ele>1417.3333333333335</ele><time>2026-05-01T13:35:55Z</time></trkpt><trkpt lat="45.064164024670326" lon="6.692170285165213"><ele>1417.0</ele><time>2026-05-01T13:35:56Z</time></trkpt><trkpt lat="45.06412084874027" lon="6.692095560283503"><ele>1416.6666666666667</ele><time>2026-05-01T13:35:57Z</time></trkpt><trkpt lat="45.06408149746127" lon="6.692025151410152"><ele>1416.3333333333333</ele><time>2026-05-01T13:35:58Z</time></trkpt><trkpt lat="45.06407894466291" lon="6.691860112616971"><ele>1416.0</ele><time>2026-05-01T13:36:00Z</time></trkpt><trkpt lat="45.064082443067264" lon="6.691770071249169"><ele>1414.1666666666667</ele><time>2026-05-01T13:36:01Z</time></trkpt><trkpt lat="45.064093254012256" lon="6.691668821831774"><ele>1412.3333333333333</ele><time>2026-05-01T13:36:02Z</time></trkpt><trkpt lat="45.06410457742904" lon="6.691553842385563"><ele>1410.5</ele><time>2026-05-01T13:36:03Z</time></trkpt><trkpt lat="45.06411442419215" lon="6.691452424974506"><ele>1408.6666666666665</ele><time>2026-05-01T13:36:04Z</time></trkpt><trkpt lat="45.06412498055918" lon="6.691360433885879"><ele>1406.8333333333333</ele><time>2026-05-01T13:36:05Z</time></trkpt><trkpt lat="45.06415967606025" lon="6.691211989901502"><ele>1405.0</ele><time>2026-05-01T13:36:07Z</time></trkpt><trkpt lat="45.06422359680115" lon="6.691051303857669"><ele>1401.5</ele><time>2026-05-01T13:36:08.999Z</time></trkpt><trkpt lat="45.0642900308107" lon="6.6909148384264086"><ele>1398.0</ele><time>2026-05-01T13:36:10.999Z</time></trkpt><trkpt lat="45.06433333619824" lon="6.690788002389767"><ele>1394.5</ele><time>2026-05-01T13:36:12.999Z</time></trkpt><trkpt lat="45.06431605023374" lon="6.690701425986311"><ele>1391.0</ele><time>2026-05-01T13:36:13.999Z</time></trkpt><trkpt lat="45.06429165407056" lon="6.690618002124259"><ele>1387.5</ele><time>2026-05-01T13:36:14.999Z</time></trkpt><trkpt lat="45.064245076653485" lon="6.6905448668705665"><ele>1384.0</ele><time>2026-05-01T13:36:15.999Z</time></trkpt><trkpt lat="45.06418175930999" lon="6.690488458064988"><ele>1384.0</ele><time>2026-05-01T13:36:16.999Z</time></trkpt><trkpt lat="45.064133201952735" lon="6.690370723908285"><ele>1384.0</ele><time>2026-05-01T13:36:18.999Z</time></trkpt><trkpt lat="45.06409097297413" lon="6.690200423795698"><ele>1384.0</ele><time>2026-05-01T13:36:20.999Z</time></trkpt><trkpt lat="45.06407278030053" lon="6.690110509756893"><ele>1384.0</ele><time>2026-05-01T13:36:21.999Z</time></trkpt><trkpt lat="45.064057588729185" lon="6.690009150031888"><ele>1384.0</ele><time>2026-05-01T13:36:22.999Z</time></trkpt><trkpt lat="45.064048981178814" lon="6.689893234875578"><ele>1384.0</ele><time>2026-05-01T13:36:23.999Z</time></trkpt><trkpt lat="45.06403553964575" lon="6.689767737809736"><ele>1383.5</ele><time>2026-05-01T13:36:24.999Z</time></trkpt><trkpt lat="45.064015136054884" lon="6.689652150805375"><ele>1383.0</ele><time>2026-05-01T13:36:25.999Z</time></trkpt><trkpt lat="45.064004211847994" lon="6.6895352795125085"><ele>1382.5</ele><time>2026-05-01T13:36:26.999Z</time></trkpt><trkpt lat="45.06397691016811" lon="6.689417184569112"><ele>1382.0</ele><time>2026-05-01T13:36:27.999Z</time></trkpt><trkpt lat="45.06394909296068" lon="6.6893145377059495"><ele>1381.5</ele><time>2026-05-01T13:36:28.999Z</time></trkpt><trkpt lat="45.06393050031455" lon="6.68915839588547"><ele>1381.0</ele><time>2026-05-01T13:36:30.999Z</time></trkpt><trkpt lat="45.06391590282073" lon="6.689040829673049"><ele>1378.0</ele><time>2026-05-01T13:36:32.999Z</time></trkpt><trkpt lat="45.06390724611031" lon="6.6888310986166175"><ele>1375.0</ele><time>2026-05-01T13:36:34.999Z</time></trkpt><trkpt lat="45.063899929812884" lon="6.6887399173276565"><ele>1372.0</ele><time>2026-05-01T13:36:35.999Z</time></trkpt><trkpt lat="45.0638791767763" lon="6.6885785970138985"><ele>1369.0</ele><time>2026-05-01T13:36:37.999Z</time></trkpt><trkpt lat="45.06387443763633" lon="6.688427542506808"><ele>1366.0</ele><time>2026-05-01T13:36:39.999Z</time></trkpt><trkpt lat="45.063966538137336" lon="6.688338074307644"><ele>1363.1999999999998</ele><time>2026-05-01T13:36:41.999Z</time></trkpt><trkpt lat="45.06407525477338" lon="6.688263996307431"><ele>1360.3999999999999</ele><time>2026-05-01T13:36:43.999Z</time></trkpt><trkpt lat="45.06415208269245" lon="6.688241289114276"><ele>1357.6</ele><time>2026-05-01T13:36:44.999Z</time></trkpt><trkpt lat="45.06422809030065" lon="6.688212540576502"><ele>1354.8</ele><time>2026-05-01T13:36:45.999Z</time></trkpt><trkpt lat="45.06434126944398" lon="6.68817717162551"><ele>1352.0</ele><time>2026-05-01T13:36:47.999Z</time></trkpt><trkpt lat="45.064403808706565" lon="6.688143795757286"><ele>1352.6666666666667</ele><time>2026-05-01T13:36:49.999Z</time></trkpt><trkpt lat="45.064202726545034" lon="6.687846478323472"><ele>1353.3333333333333</ele><time>2026-05-01T13:36:54.999Z</time></trkpt><trkpt lat="45.064129318139955" lon="6.687696684078519"><ele>1354.0</ele><time>2026-05-01T13:36:56.999Z</time></trkpt><trkpt lat="45.06406271976024" lon="6.687577265596954"><ele>1354.0</ele><time>2026-05-01T13:36:58.999Z</time></trkpt><trkpt lat="45.064072940892125" lon="6.687479390579254"><ele>1354.0</ele><time>2026-05-01T13:37:00.999Z</time></trkpt><trkpt lat="45.06414893900678" lon="6.6874326363024625"><ele>1354.0</ele><time>2026-05-01T13:37:01.999Z</time></trkpt><trkpt lat="45.06425994683407" lon="6.687412883517386"><ele>1354.0</ele><time>2026-05-01T13:37:02.999Z</time></trkpt><trkpt lat="45.06435864187492" lon="6.6873611934518316"><ele>1354.0</ele><time>2026-05-01T13:37:03.999Z</time></trkpt><trkpt lat="45.064462536441305" lon="6.6872967629817115"><ele>1354.0</ele><time>2026-05-01T13:37:05Z</time></trkpt><trkpt lat="45.064568232944865" lon="6.68725746739107"><ele>1354.0</ele><time>2026-05-01T13:37:06Z</time></trkpt><trkpt lat="45.06467491815527" lon="6.687248872221182"><ele>1354.0</ele><time>2026-05-01T13:37:07Z</time></trkpt><trkpt lat="45.064774517164125" lon="6.6872716064408175"><ele>1354.0</ele><time>2026-05-01T13:37:08Z</time></trkpt><trkpt lat="45.064852021820926" lon="6.687275139108027"><ele>1354.0</ele><time>2026-05-01T13:37:09Z</time></trkpt><trkpt lat="45.06496727807106" lon="6.6872181988442465"><ele>1353.8000000000002</ele><time>2026-05-01T13:37:11Z</time></trkpt><trkpt lat="45.065075931602664" lon="6.687192721655549"><ele>1353.6000000000001</ele><time>2026-05-01T13:37:13Z</time></trkpt><trkpt lat="45.06514363575509" lon="6.687198795124765"><ele>1353.4</ele><time>2026-05-01T13:37:14Z</time></trkpt><trkpt lat="45.06522623517253" lon="6.687206353295169"><ele>1353.2</ele><time>2026-05-01T13:37:15Z</time></trkpt><trkpt lat="45.06532871151891" lon="6.687220129229599"><ele>1353.0</ele><time>2026-05-01T13:37:16Z</time></trkpt><trkpt lat="45.06544382027984" lon="6.687231026975696"><ele>1353.0</ele><time>2026-05-01T13:37:17Z</time></trkpt><trkpt lat="45.065557927941136" lon="6.687242360925744"><ele>1353.0</ele><time>2026-05-01T13:37:18Z</time></trkpt><trkpt lat="45.065678577868475" lon="6.6872585790954195"><ele>1353.0</ele><time>2026-05-01T13:37:19Z</time></trkpt><trkpt lat="45.06579322907529" lon="6.6872900902218335"><ele>1353.0</ele><time>2026-05-01T13:37:20Z</time></trkpt><trkpt lat="45.06590217086702" lon="6.687343334872388"><ele>1353.0</ele><time>2026-05-01T13:37:21Z</time></trkpt><trkpt lat="45.06600588201179" lon="6.687420893835098"><ele>1353.0</ele><time>2026-05-01T13:37:22Z</time></trkpt><trkpt lat="45.06610674917515" lon="6.687518255029154"><ele>1353.0</ele><time>2026-05-01T13:37:23Z</time></trkpt><trkpt lat="45.06621051883025" lon="6.68762914700718"><ele>1353.0</ele><time>2026-05-01T13:37:24Z</time></trkpt><trkpt lat="45.06630285730142" lon="6.68775111910353"><ele>1350.75</ele><time>2026-05-01T13:37:25Z</time></trkpt><trkpt lat="45.066391918591286" lon="6.687885621992291"><ele>1348.5</ele><time>2026-05-01T13:37:26Z</time></trkpt><trkpt lat="45.066485572267204" lon="6.688028192610971"><ele>1346.25</ele><time>2026-05-01T13:37:27Z</time></trkpt><trkpt lat="45.066573913518475" lon="6.688184495522072"><ele>1344.0</ele><time>2026-05-01T13:37:28Z</time></trkpt><trkpt lat="45.06668872430552" lon="6.688319932350169"><ele>1342.6666666666667</ele><time>2026-05-01T13:37:29Z</time></trkpt><trkpt lat="45.066782284637846" lon="6.688482988443014"><ele>1341.3333333333335</ele><time>2026-05-01T13:37:30Z</time></trkpt><trkpt lat="45.06689002297428" lon="6.688643051754639"><ele>1340.0</ele><time>2026-05-01T13:37:31Z</time></trkpt><trkpt lat="45.06699830750787" lon="6.6887926324119"><ele>1338.75</ele><time>2026-05-01T13:37:32Z</time></trkpt><trkpt lat="45.06710457733319" lon="6.68893336756809"><ele>1337.5</ele><time>2026-05-01T13:37:33Z</time></trkpt><trkpt lat="45.067206764088645" lon="6.68906950209201"><ele>1336.25</ele><time>2026-05-01T13:37:34Z</time></trkpt><trkpt lat="45.06730977958671" lon="6.6892034854929925"><ele>1335.0</ele><time>2026-05-01T13:37:35Z</time></trkpt><trkpt lat="45.06740479814987" lon="6.689321675551185"><ele>1333.25</ele><time>2026-05-01T13:37:36Z</time></trkpt><trkpt lat="45.067507689617045" lon="6.689427198107623"><ele>1331.5</ele><time>2026-05-01T13:37:37Z</time></trkpt><trkpt lat="45.06762766954676" lon="6.689520164777785"><ele>1329.75</ele><time>2026-05-01T13:37:38Z</time></trkpt><trkpt lat="45.067762360851866" lon="6.689611316416017"><ele>1328.0</ele><time>2026-05-01T13:37:39Z</time></trkpt><trkpt lat="45.067911036876254" lon="6.689679772746396"><ele>1328.0</ele><time>2026-05-01T13:37:40Z</time></trkpt><trkpt lat="45.068063514980246" lon="6.689726845656675"><ele>1328.0</ele><time>2026-05-01T13:37:41Z</time></trkpt><trkpt lat="45.06821884352672" lon="6.689753255451767"><ele>1328.0</ele><time>2026-05-01T13:37:42Z</time></trkpt><trkpt lat="45.06836875984614" lon="6.689770390563324"><ele>1327.5</ele><time>2026-05-01T13:37:43Z</time></trkpt><trkpt lat="45.068515294019605" lon="6.689792686773225"><ele>1327.0</ele><time>2026-05-01T13:37:44Z</time></trkpt><trkpt lat="45.0686600470285" lon="6.689818223530056"><ele>1326.5</ele><time>2026-05-01T13:37:45Z</time></trkpt><trkpt lat="45.06878841393844" lon="6.689827717431778"><ele>1326.0</ele><time>2026-05-01T13:37:46Z</time></trkpt><trkpt lat="45.06891695129838" lon="6.689848292264938"><ele>1326.0</ele><time>2026-05-01T13:37:47Z</time></trkpt><trkpt lat="45.06904492506484" lon="6.68986646286358"><ele>1326.0</ele><time>2026-05-01T13:37:48Z</time></trkpt><trkpt lat="45.06916849802781" lon="6.689882464098275"><ele>1326.0</ele><time>2026-05-01T13:37:49Z</time></trkpt><trkpt lat="45.069292044903946" lon="6.689902001542521"><ele>1326.0</ele><time>2026-05-01T13:37:50Z</time></trkpt><trkpt lat="45.06941624869976" lon="6.689919091612286"><ele>1324.75</ele><time>2026-05-01T13:37:51Z</time></trkpt><trkpt lat="45.06952938055889" lon="6.689936307320155"><ele>1323.5</ele><time>2026-05-01T13:37:52Z</time></trkpt><trkpt lat="45.069649190966544" lon="6.6899559275841085"><ele>1322.25</ele><time>2026-05-01T13:37:53Z</time></trkpt><trkpt lat="45.06976260369629" lon="6.689975774992464"><ele>1321.0</ele><time>2026-05-01T13:37:54Z</time></trkpt><trkpt lat="45.069867833109605" lon="6.689994253706067"><ele>1319.8</ele><time>2026-05-01T13:37:55Z</time></trkpt><trkpt lat="45.06997688959891" lon="6.6900219210713345"><ele>1318.6</ele><time>2026-05-01T13:37:56Z</time></trkpt><trkpt lat="45.070073983305264" lon="6.6900827436673485"><ele>1317.4</ele><time>2026-05-01T13:37:57Z</time></trkpt><trkpt lat="45.070170292457085" lon="6.690120306394837"><ele>1316.2</ele><time>2026-05-01T13:37:58Z</time></trkpt><trkpt lat="45.07026265726721" lon="6.690183835735684"><ele>1315.0</ele><time>2026-05-01T13:37:59Z</time></trkpt><trkpt lat="45.070354207106654" lon="6.690247517349188"><ele>1313.6</ele><time>2026-05-01T13:38:00Z</time></trkpt><trkpt lat="45.07044218618917" lon="6.690316915188384"><ele>1312.2</ele><time>2026-05-01T13:38:01Z</time></trkpt><trkpt lat="45.07052262461801" lon="6.690398130792407"><ele>1310.8000000000002</ele><time>2026-05-01T13:38:02Z</time></trkpt><trkpt lat="45.07060916893128" lon="6.690483187810468"><ele>1309.4</ele><time>2026-05-01T13:38:03Z</time></trkpt><trkpt lat="45.070689537388596" lon="6.690586800031872"><ele>1308.0</ele><time>2026-05-01T13:38:04Z</time></trkpt><trkpt lat="45.07076346081783" lon="6.690677509953484"><ele>1307.6666666666667</ele><time>2026-05-01T13:38:05Z</time></trkpt><trkpt lat="45.07083762012162" lon="6.690774505703585"><ele>1307.3333333333333</ele><time>2026-05-01T13:38:06Z</time></trkpt><trkpt lat="45.070894650864886" lon="6.690879124690985"><ele>1307.0</ele><time>2026-05-01T13:38:07Z</time></trkpt><trkpt lat="45.07095014792369" lon="6.690987590280298"><ele>1306.6666666666665</ele><time>2026-05-01T13:38:08Z</time></trkpt><trkpt lat="45.07099615566351" lon="6.691073841217587"><ele>1306.3333333333333</ele><time>2026-05-01T13:38:09Z</time></trkpt><trkpt lat="45.07103573168034" lon="6.6911505183391515"><ele>1306.0</ele><time>2026-05-01T13:38:10Z</time></trkpt><trkpt lat="45.071086514512025" lon="6.691291935263932"><ele>1304.8</ele><time>2026-05-01T13:38:12Z</time></trkpt><trkpt lat="45.0711133722195" lon="6.69137508811227"><ele>1303.6</ele><time>2026-05-01T13:38:13Z</time></trkpt><trkpt lat="45.07114227315167" lon="6.691461471185846"><ele>1302.4</ele><time>2026-05-01T13:38:14Z</time></trkpt><trkpt lat="45.07117329787618" lon="6.691623602329496"><ele>1301.2</ele><time>2026-05-01T13:38:15.999Z</time></trkpt><trkpt lat="45.07120759380483" lon="6.69178832165583"><ele>1300.0</ele><time>2026-05-01T13:38:17.999Z</time></trkpt><trkpt lat="45.07122549903628" lon="6.6918973976533795"><ele>1299.0</ele><time>2026-05-01T13:38:18.999Z</time></trkpt><trkpt lat="45.0712466125438" lon="6.692032605474639"><ele>1298.0</ele><time>2026-05-01T13:38:19.999Z</time></trkpt><trkpt lat="45.0712609808662" lon="6.6921800191868"><ele>1297.0</ele><time>2026-05-01T13:38:20.999Z</time></trkpt><trkpt lat="45.0712678316786" lon="6.692342580585098"><ele>1296.0</ele><time>2026-05-01T13:38:21.999Z</time></trkpt><trkpt lat="45.07126744949121" lon="6.692509960166295"><ele>1295.0</ele><time>2026-05-01T13:38:22.999Z</time></trkpt><trkpt lat="45.07126137705697" lon="6.692693794097301"><ele>1293.5</ele><time>2026-05-01T13:38:23.999Z</time></trkpt><trkpt lat="45.071251294918355" lon="6.692882471579915"><ele>1292.0</ele><time>2026-05-01T13:38:24.999Z</time></trkpt><trkpt lat="45.07125007989539" lon="6.693075622818959"><ele>1290.5</ele><time>2026-05-01T13:38:25.999Z</time></trkpt><trkpt lat="45.07121801610118" lon="6.693264326654028"><ele>1289.0</ele><time>2026-05-01T13:38:26.999Z</time></trkpt><trkpt lat="45.071202838492205" lon="6.693455974308897"><ele>1287.5</ele><time>2026-05-01T13:38:27.999Z</time></trkpt><trkpt lat="45.071184776970924" lon="6.693642898566614"><ele>1286.0</ele><time>2026-05-01T13:38:28.999Z</time></trkpt><trkpt lat="45.07117010475856" lon="6.6938295101593575"><ele>1284.5</ele><time>2026-05-01T13:38:29.999Z</time></trkpt><trkpt lat="45.07115905390892" lon="6.6940242166279"><ele>1283.0</ele><time>2026-05-01T13:38:30.999Z</time></trkpt><trkpt lat="45.07115547314626" lon="6.694207668669873"><ele>1283.0</ele><time>2026-05-01T13:38:31.999Z</time></trkpt><trkpt lat="45.07115295472167" lon="6.694386133128958"><ele>1283.0</ele><time>2026-05-01T13:38:32.999Z</time></trkpt><trkpt lat="45.07115839728585" lon="6.6945534138582525"><ele>1283.0</ele><time>2026-05-01T13:38:33.999Z</time></trkpt><trkpt lat="45.07116085590718" lon="6.694718026681228"><ele>1283.0</ele><time>2026-05-01T13:38:34.999Z</time></trkpt><trkpt lat="45.07117344475476" lon="6.694878012978848"><ele>1282.0</ele><time>2026-05-01T13:38:35.999Z</time></trkpt><trkpt lat="45.07117793314907" lon="6.695041339261308"><ele>1281.0</ele><time>2026-05-01T13:38:36.999Z</time></trkpt><trkpt lat="45.07121702803558" lon="6.6952080630388755"><ele>1280.0</ele><time>2026-05-01T13:38:37.999Z</time></trkpt><trkpt lat="45.07128783551228" lon="6.695371563897946"><ele>1279.0</ele><time>2026-05-01T13:38:38.999Z</time></trkpt><trkpt lat="45.07136368871463" lon="6.695529335179164"><ele>1278.8</ele><time>2026-05-01T13:38:39.999Z</time></trkpt><trkpt lat="45.07143192449665" lon="6.695684434029296"><ele>1278.6000000000001</ele><time>2026-05-01T13:38:40.999Z</time></trkpt><trkpt lat="45.071520684219045" lon="6.695801338320593"><ele>1278.4</ele><time>2026-05-01T13:38:41.999Z</time></trkpt><trkpt lat="45.07159575093791" lon="6.695905952291093"><ele>1278.2</ele><time>2026-05-01T13:38:42.999Z</time></trkpt><trkpt lat="45.071655666519376" lon="6.695995106390332"><ele>1278.0</ele><time>2026-05-01T13:38:43.999Z</time></trkpt><trkpt lat="45.0717053035596" lon="6.696077982889927"><ele>1277.8333333333333</ele><time>2026-05-01T13:38:44.999Z</time></trkpt><trkpt lat="45.0717455973902" lon="6.6961732918410135"><ele>1277.6666666666667</ele><time>2026-05-01T13:38:45.999Z</time></trkpt><trkpt lat="45.071794800897194" lon="6.6962668733472475"><ele>1277.5</ele><time>2026-05-01T13:38:46.999Z</time></trkpt><trkpt lat="45.07184885503095" lon="6.696346466968505"><ele>1277.3333333333335</ele><time>2026-05-01T13:38:47.999Z</time></trkpt><trkpt lat="45.07190157608111" lon="6.6964290686188725"><ele>1277.1666666666667</ele><time>2026-05-01T13:38:48.999Z</time></trkpt><trkpt lat="45.07194371367605" lon="6.696514576272856"><ele>1277.0</ele><time>2026-05-01T13:38:49.999Z</time></trkpt><trkpt lat="45.07198832552788" lon="6.696617909434388"><ele>1277.0</ele><time>2026-05-01T13:38:50.999Z</time></trkpt><trkpt lat="45.07202540643026" lon="6.696724054152907"><ele>1277.0</ele><time>2026-05-01T13:38:51.999Z</time></trkpt><trkpt lat="45.07206391811875" lon="6.6968297778851245"><ele>1277.0</ele><time>2026-05-01T13:38:52.999Z</time></trkpt><trkpt lat="45.07210524875311" lon="6.696943942719984"><ele>1277.0</ele><time>2026-05-01T13:38:53.999Z</time></trkpt><trkpt lat="45.07213945229825" lon="6.69706037219643"><ele>1277.0</ele><time>2026-05-01T13:38:54.999Z</time></trkpt><trkpt lat="45.07217041642872" lon="6.697181709392023"><ele>1277.0</ele><time>2026-05-01T13:38:55.999Z</time></trkpt><trkpt lat="45.072203831376264" lon="6.697303760537497"><ele>1276.0</ele><time>2026-05-01T13:38:56.999Z</time></trkpt><trkpt lat="45.07223144861425" lon="6.6974264791380005"><ele>1275.0</ele><time>2026-05-01T13:38:57.999Z</time></trkpt><trkpt lat="45.07225579669609" lon="6.697552592653707"><ele>1274.0</ele><time>2026-05-01T13:38:58.999Z</time></trkpt><trkpt lat="45.07227674462776" lon="6.697669833169236"><ele>1273.0</ele><time>2026-05-01T13:38:59.999Z</time></trkpt><trkpt lat="45.07229999344848" lon="6.697786336760332"><ele>1272.0</ele><time>2026-05-01T13:39:00.999Z</time></trkpt><trkpt lat="45.07232460954923" lon="6.697910086405522"><ele>1271.0</ele><time>2026-05-01T13:39:01.999Z</time></trkpt><trkpt lat="45.07235090136537" lon="6.698043409179322"><ele>1270.8</ele><time>2026-05-01T13:39:02.999Z</time></trkpt><trkpt lat="45.07237895301898" lon="6.698171584647693"><ele>1270.6</ele><time>2026-05-01T13:39:03.999Z</time></trkpt><trkpt lat="45.07240738503689" lon="6.6983108205390876"><ele>1270.4</ele><time>2026-05-01T13:39:04.999Z</time></trkpt><trkpt lat="45.07243062322133" lon="6.698449670805301"><ele>1270.2</ele><time>2026-05-01T13:39:05.999Z</time></trkpt><trkpt lat="45.07245618963571" lon="6.698581202171871"><ele>1270.0</ele><time>2026-05-01T13:39:06.999Z</time></trkpt><trkpt lat="45.07248316060432" lon="6.698712361129872"><ele>1271.4</ele><time>2026-05-01T13:39:07.999Z</time></trkpt><trkpt lat="45.07250170059053" lon="6.698858396806307"><ele>1272.8</ele><time>2026-05-01T13:39:08.999Z</time></trkpt><trkpt lat="45.07253154430245" lon="6.699005926312881"><ele>1274.2</ele><time>2026-05-01T13:39:09.999Z</time></trkpt><trkpt lat="45.07256288765665" lon="6.69915388555091"><ele>1275.6</ele><time>2026-05-01T13:39:11Z</time></trkpt><trkpt lat="45.07258113560814" lon="6.699300852293315"><ele>1277.0</ele><time>2026-05-01T13:39:12Z</time></trkpt><trkpt lat="45.07260915875587" lon="6.6994262133938305"><ele>1277.0</ele><time>2026-05-01T13:39:13Z</time></trkpt><trkpt lat="45.07263506217154" lon="6.699564685028847"><ele>1277.0</ele><time>2026-05-01T13:39:14Z</time></trkpt><trkpt lat="45.07266160621536" lon="6.699701598566655"><ele>1277.0</ele><time>2026-05-01T13:39:15Z</time></trkpt><trkpt lat="45.072686126094894" lon="6.6998274473678645"><ele>1277.0</ele><time>2026-05-01T13:39:16Z</time></trkpt><trkpt lat="45.072703339082295" lon="6.699945944754932"><ele>1277.0</ele><time>2026-05-01T13:39:17Z</time></trkpt><trkpt lat="45.07272531329063" lon="6.700063519450656"><ele>1277.0</ele><time>2026-05-01T13:39:18Z</time></trkpt><trkpt lat="45.07276317134064" lon="6.700178334480935"><ele>1277.0</ele><time>2026-05-01T13:39:19Z</time></trkpt><trkpt lat="45.07278060822533" lon="6.700307812471357"><ele>1277.0</ele><time>2026-05-01T13:39:20Z</time></trkpt><trkpt lat="45.072805939911774" lon="6.700440067674285"><ele>1277.0</ele><time>2026-05-01T13:39:21Z</time></trkpt><trkpt lat="45.07283176124464" lon="6.700573759817315"><ele>1277.0</ele><time>2026-05-01T13:39:22Z</time></trkpt><trkpt lat="45.072843881262905" lon="6.700712483267903"><ele>1276.2</ele><time>2026-05-01T13:39:23Z</time></trkpt><trkpt lat="45.07287071816327" lon="6.70084368018941"><ele>1275.4</ele><time>2026-05-01T13:39:24Z</time></trkpt><trkpt lat="45.07290181223086" lon="6.7009714107685525"><ele>1274.6</ele><time>2026-05-01T13:39:25Z</time></trkpt><trkpt lat="45.0729295627834" lon="6.701103304065775"><ele>1273.8</ele><time>2026-05-01T13:39:26Z</time></trkpt><trkpt lat="45.07295353982043" lon="6.70124600962173"><ele>1273.0</ele><time>2026-05-01T13:39:27Z</time></trkpt><trkpt lat="45.07298096712609" lon="6.701392863060323"><ele>1271.8</ele><time>2026-05-01T13:39:28Z</time></trkpt><trkpt lat="45.07300835720107" lon="6.701533152454848"><ele>1270.6</ele><time>2026-05-01T13:39:29Z</time></trkpt><trkpt lat="45.073037744969525" lon="6.701672386732297"><ele>1269.4</ele><time>2026-05-01T13:39:30Z</time></trkpt><trkpt lat="45.073054748733945" lon="6.701830041093377"><ele>1268.2</ele><time>2026-05-01T13:39:31Z</time></trkpt><trkpt lat="45.07309182364604" lon="6.701986937626358"><ele>1267.0</ele><time>2026-05-01T13:39:32Z</time></trkpt><trkpt lat="45.07313067182353" lon="6.702161689044332"><ele>1267.0</ele><time>2026-05-01T13:39:33Z</time></trkpt><trkpt lat="45.07317149449258" lon="6.702368517015324"><ele>1267.0</ele><time>2026-05-01T13:39:34Z</time></trkpt><trkpt lat="45.07320905877236" lon="6.702574106051039"><ele>1267.0</ele><time>2026-05-01T13:39:35Z</time></trkpt><trkpt lat="45.0732338131051" lon="6.702786145674563"><ele>1267.3333333333333</ele><time>2026-05-01T13:39:36Z</time></trkpt><trkpt lat="45.073260973026485" lon="6.702997172469895"><ele>1267.6666666666667</ele><time>2026-05-01T13:39:37Z</time></trkpt><trkpt lat="45.07329293354276" lon="6.703207567562602"><ele>1268.0</ele><time>2026-05-01T13:39:38Z</time></trkpt><trkpt lat="45.0733248134155" lon="6.703415838557919"><ele>1268.6666666666667</ele><time>2026-05-01T13:39:39Z</time></trkpt><trkpt lat="45.073362818132" lon="6.7036229574335175"><ele>1269.3333333333333</ele><time>2026-05-01T13:39:40Z</time></trkpt><trkpt lat="45.07341518490288" lon="6.703827101576336"><ele>1270.0</ele><time>2026-05-01T13:39:41Z</time></trkpt><trkpt lat="45.07345152298194" lon="6.70402778347053"><ele>1270.0</ele><time>2026-05-01T13:39:42Z</time></trkpt><trkpt lat="45.07348597138618" lon="6.7042213294758275"><ele>1270.0</ele><time>2026-05-01T13:39:43Z</time></trkpt><trkpt lat="45.073527088944324" lon="6.704427202565242"><ele>1270.0</ele><time>2026-05-01T13:39:44Z</time></trkpt><trkpt lat="45.07357028049757" lon="6.704643901046581"><ele>1269.75</ele><time>2026-05-01T13:39:45Z</time></trkpt><trkpt lat="45.07361532135175" lon="6.7048350403472075"><ele>1269.5</ele><time>2026-05-01T13:39:46Z</time></trkpt><trkpt lat="45.07366027658672" lon="6.705000304953453"><ele>1269.25</ele><time>2026-05-01T13:39:47Z</time></trkpt><trkpt lat="45.07370239034401" lon="6.705146054167052"><ele>1269.0</ele><time>2026-05-01T13:39:48Z</time></trkpt><trkpt lat="45.07372823497272" lon="6.705264758863544"><ele>1270.0</ele><time>2026-05-01T13:39:49Z</time></trkpt><trkpt lat="45.07373831453748" lon="6.705385534008391"><ele>1271.0</ele><time>2026-05-01T13:39:50Z</time></trkpt><trkpt lat="45.07376525947758" lon="6.705506002874373"><ele>1272.0</ele><time>2026-05-01T13:39:51Z</time></trkpt><trkpt lat="45.07382675761551" lon="6.705603952042269"><ele>1273.0</ele><time>2026-05-01T13:39:52Z</time></trkpt><trkpt lat="45.073908716309965" lon="6.705696495539416"><ele>1274.0</ele><time>2026-05-01T13:39:53Z</time></trkpt><trkpt lat="45.07398463574848" lon="6.705833550572433"><ele>1274.0</ele><time>2026-05-01T13:39:54Z</time></trkpt><trkpt lat="45.07404938157156" lon="6.705972123759675"><ele>1274.0</ele><time>2026-05-01T13:39:55Z</time></trkpt><trkpt lat="45.07412186561619" lon="6.706124139754101"><ele>1274.0</ele><time>2026-05-01T13:39:56Z</time></trkpt><trkpt lat="45.074188282615744" lon="6.706274728249282"><ele>1274.0</ele><time>2026-05-01T13:39:57Z</time></trkpt><trkpt lat="45.07425774245934" lon="6.706434400678523"><ele>1272.75</ele><time>2026-05-01T13:39:58Z</time></trkpt><trkpt lat="45.07432833336972" lon="6.706595223485136"><ele>1271.5</ele><time>2026-05-01T13:39:59Z</time></trkpt><trkpt lat="45.07440475838308" lon="6.706743340137709"><ele>1270.25</ele><time>2026-05-01T13:40:00Z</time></trkpt><trkpt lat="45.074478901235366" lon="6.7068921712755225"><ele>1269.0</ele><time>2026-05-01T13:40:01Z</time></trkpt><trkpt lat="45.07454613778539" lon="6.707039997227511"><ele>1269.0</ele><time>2026-05-01T13:40:02Z</time></trkpt><trkpt lat="45.07461184880727" lon="6.707183574179253"><ele>1269.0</ele><time>2026-05-01T13:40:03Z</time></trkpt><trkpt lat="45.07468170921531" lon="6.707328731136422"><ele>1269.0</ele><time>2026-05-01T13:40:04Z</time></trkpt><trkpt lat="45.07474943209083" lon="6.70747141281848"><ele>1269.0</ele><time>2026-05-01T13:40:05Z</time></trkpt><trkpt lat="45.07481603966167" lon="6.707612377233036"><ele>1267.5</ele><time>2026-05-01T13:40:06Z</time></trkpt><trkpt lat="45.07488611029343" lon="6.70775233923645"><ele>1266.0</ele><time>2026-05-01T13:40:07Z</time></trkpt><trkpt lat="45.07494859948842" lon="6.707883978034682"><ele>1264.5</ele><time>2026-05-01T13:40:08Z</time></trkpt><trkpt lat="45.075013228667586" lon="6.708011874524293"><ele>1263.0</ele><time>2026-05-01T13:40:09Z</time></trkpt><trkpt lat="45.075077843197484" lon="6.708130842543544"><ele>1263.0</ele><time>2026-05-01T13:40:10Z</time></trkpt><trkpt lat="45.07513233046346" lon="6.708238222924407"><ele>1263.0</ele><time>2026-05-01T13:40:11Z</time></trkpt><trkpt lat="45.07518301376837" lon="6.708341607843108"><ele>1263.0</ele><time>2026-05-01T13:40:12Z</time></trkpt><trkpt lat="45.07522838315352" lon="6.708440428914972"><ele>1263.0</ele><time>2026-05-01T13:40:13Z</time></trkpt><trkpt lat="45.075274286715974" lon="6.708533734978895"><ele>1263.0</ele><time>2026-05-01T13:40:14Z</time></trkpt><trkpt lat="45.07531481218752" lon="6.708615417486032"><ele>1263.0</ele><time>2026-05-01T13:40:15Z</time></trkpt><trkpt lat="45.07535293686223" lon="6.708694167914056"><ele>1262.7142857142856</ele><time>2026-05-01T13:40:16Z</time></trkpt><trkpt lat="45.07539322232071" lon="6.708779266673116"><ele>1262.4285714285713</ele><time>2026-05-01T13:40:17Z</time></trkpt><trkpt lat="45.07543277634965" lon="6.708856419460574"><ele>1262.142857142857</ele><time>2026-05-01T13:40:18Z</time></trkpt><trkpt lat="45.075471594793605" lon="6.708934236166858"><ele>1261.8571428571427</ele><time>2026-05-01T13:40:19Z</time></trkpt><trkpt lat="45.07551655119071" lon="6.709007831153629"><ele>1261.5714285714284</ele><time>2026-05-01T13:40:19.999Z</time></trkpt><trkpt lat="45.07557743548496" lon="6.709081905503032"><ele>1261.2857142857142</ele><time>2026-05-01T13:40:20.999Z</time></trkpt><trkpt lat="45.07564803053913" lon="6.7091480566193695"><ele>1261.0</ele><time>2026-05-01T13:40:21.999Z</time></trkpt><trkpt lat="45.075720637095486" lon="6.709209493014934"><ele>1260.8333333333333</ele><time>2026-05-01T13:40:22.999Z</time></trkpt><trkpt lat="45.07578812440215" lon="6.709275995414575"><ele>1260.6666666666665</ele><time>2026-05-01T13:40:23.999Z</time></trkpt><trkpt lat="45.075853420686826" lon="6.7093477597978195"><ele>1260.5</ele><time>2026-05-01T13:40:24.999Z</time></trkpt><trkpt lat="45.075914173898994" lon="6.709419831294851"><ele>1260.3333333333333</ele><time>2026-05-01T13:40:25.999Z</time></trkpt><trkpt lat="45.075975914545836" lon="6.709491802941612"><ele>1260.1666666666667</ele><time>2026-05-01T13:40:26.999Z</time></trkpt><trkpt lat="45.07602667619052" lon="6.709561787365677"><ele>1260.0</ele><time>2026-05-01T13:40:27.999Z</time></trkpt><trkpt lat="45.076119880582205" lon="6.70965717046649"><ele>1259.8</ele><time>2026-05-01T13:40:29.999Z</time></trkpt><trkpt lat="45.076210441170836" lon="6.709688870595921"><ele>1259.6</ele><time>2026-05-01T13:40:31.999Z</time></trkpt><trkpt lat="45.07634971770123" lon="6.709643168318169"><ele>1259.4</ele><time>2026-05-01T13:40:33.999Z</time></trkpt><trkpt lat="45.07643363502562" lon="6.709595403877371"><ele>1259.2</ele><time>2026-05-01T13:40:34.999Z</time></trkpt><trkpt lat="45.07651951835639" lon="6.709546583201688"><ele>1259.0</ele><time>2026-05-01T13:40:35.999Z</time></trkpt><trkpt lat="45.07661686218241" lon="6.709513484442573"><ele>1258.8</ele><time>2026-05-01T13:40:36.999Z</time></trkpt><trkpt lat="45.07670973246725" lon="6.709476086846296"><ele>1258.6000000000001</ele><time>2026-05-01T13:40:37.999Z</time></trkpt><trkpt lat="45.07680463228623" lon="6.709432702806363"><ele>1258.4</ele><time>2026-05-01T13:40:38.999Z</time></trkpt><trkpt lat="45.076907475242244" lon="6.70939286262492"><ele>1258.2</ele><time>2026-05-01T13:40:39.999Z</time></trkpt><trkpt lat="45.07700612139314" lon="6.7093481698880275"><ele>1258.0</ele><time>2026-05-01T13:40:40.999Z</time></trkpt><trkpt lat="45.0771168524947" lon="6.709301098276169"><ele>1259.0</ele><time>2026-05-01T13:40:41.999Z</time></trkpt><trkpt lat="45.07722692673795" lon="6.709247590366293"><ele>1260.0</ele><time>2026-05-01T13:40:42.999Z</time></trkpt><trkpt lat="45.07733043978494" lon="6.70919676095773"><ele>1261.0</ele><time>2026-05-01T13:40:43.999Z</time></trkpt><trkpt lat="45.07742781769186" lon="6.709154490120502"><ele>1262.0</ele><time>2026-05-01T13:40:44.999Z</time></trkpt><trkpt lat="45.07752335644705" lon="6.709126254047523"><ele>1263.0</ele><time>2026-05-01T13:40:45.999Z</time></trkpt><trkpt lat="45.07761449713017" lon="6.709107815398617"><ele>1263.3333333333333</ele><time>2026-05-01T13:40:46.999Z</time></trkpt><trkpt lat="45.07770458150683" lon="6.7091027205461"><ele>1263.6666666666667</ele><time>2026-05-01T13:40:47.999Z</time></trkpt><trkpt lat="45.07779343309813" lon="6.709097793356714"><ele>1264.0</ele><time>2026-05-01T13:40:48.999Z</time></trkpt><trkpt lat="45.07787783689437" lon="6.709085676642741"><ele>1264.3333333333335</ele><time>2026-05-01T13:40:49.999Z</time></trkpt><trkpt lat="45.07795154126621" lon="6.709067683737117"><ele>1264.6666666666667</ele><time>2026-05-01T13:40:50.999Z</time></trkpt><trkpt lat="45.07801487705111" lon="6.709022001131696"><ele>1265.0</ele><time>2026-05-01T13:40:51.999Z</time></trkpt><trkpt lat="45.078064748946595" lon="6.708947698944207"><ele>1265.0</ele><time>2026-05-01T13:40:52.999Z</time></trkpt><trkpt lat="45.078085210693494" lon="6.708853391267517"><ele>1265.0</ele><time>2026-05-01T13:40:53.999Z</time></trkpt><trkpt lat="45.0780569063326" lon="6.708753862755001"><ele>1265.0</ele><time>2026-05-01T13:40:54.999Z</time></trkpt><trkpt lat="45.07793555198927" lon="6.708651930618265"><ele>1265.0</ele><time>2026-05-01T13:40:56.999Z</time></trkpt><trkpt lat="45.077853652914804" lon="6.708667081616488"><ele>1265.0</ele><time>2026-05-01T13:40:57.999Z</time></trkpt><trkpt lat="45.07777638897387" lon="6.708720142153966"><ele>1265.0</ele><time>2026-05-01T13:40:59.018Z</time></trkpt><trkpt lat="45.07772080470522" lon="6.708810043293777"><ele>1265.0</ele><time>2026-05-01T13:41:00.017Z</time></trkpt><trkpt lat="45.0777003343303" lon="6.7089202804952315"><ele>1265.0</ele><time>2026-05-01T13:41:01.013Z</time></trkpt><trkpt lat="45.077684981326726" lon="6.7090601726608945"><ele>1265.0</ele><time>2026-05-01T13:41:02.016Z</time></trkpt><trkpt lat="45.077661049341714" lon="6.709193170870277"><ele>1265.0</ele><time>2026-05-01T13:41:03.015Z</time></trkpt><trkpt lat="45.07763187109705" lon="6.7093403817844806"><ele>1259.0</ele><time>2026-05-01T13:41:04.015Z</time></trkpt><trkpt lat="45.07750159133698" lon="6.7103654332521465"><ele>1259.0</ele><time>2026-05-01T13:41:10.999Z</time></trkpt><trkpt lat="45.07748038022901" lon="6.710473611759707"><ele>1259.0</ele><time>2026-05-01T13:41:11.999Z</time></trkpt><trkpt lat="45.07744928452047" lon="6.710575282448335"><ele>1259.0</ele><time>2026-05-01T13:41:12.999Z</time></trkpt><trkpt lat="45.07739272078444" lon="6.710698239094615"><ele>1259.0</ele><time>2026-05-01T13:41:14.999Z</time></trkpt><trkpt lat="45.0773579202974" lon="6.7107763287665465"><ele>1259.0</ele><time>2026-05-01T13:41:15.999Z</time></trkpt><trkpt lat="45.07731952600943" lon="6.710870606654469"><ele>1259.0</ele><time>2026-05-01T13:41:17Z</time></trkpt><trkpt lat="45.077282394866984" lon="6.7109739963187405"><ele>1258.0</ele><time>2026-05-01T13:41:18Z</time></trkpt><trkpt lat="45.07725138680349" lon="6.711088422474256"><ele>1257.0</ele><time>2026-05-01T13:41:19Z</time></trkpt><trkpt lat="45.077206738710586" lon="6.7111990180809045"><ele>1256.0</ele><time>2026-05-01T13:41:20Z</time></trkpt><trkpt lat="45.07718093249658" lon="6.71131221800366"><ele>1255.0</ele><time>2026-05-01T13:41:21Z</time></trkpt><trkpt lat="45.07715274169044" lon="6.711443836385233"><ele>1254.0</ele><time>2026-05-01T13:41:22Z</time></trkpt><trkpt lat="45.07712566741297" lon="6.7115806543085945"><ele>1254.0</ele><time>2026-05-01T13:41:23Z</time></trkpt><trkpt lat="45.07711644533092" lon="6.711727658893516"><ele>1254.0</ele><time>2026-05-01T13:41:24Z</time></trkpt><trkpt lat="45.07709118691097" lon="6.711869003956668"><ele>1254.0</ele><time>2026-05-01T13:41:25Z</time></trkpt><trkpt lat="45.077075096189326" lon="6.712006155367061"><ele>1254.0</ele><time>2026-05-01T13:41:26Z</time></trkpt><trkpt lat="45.07706700557589" lon="6.712141663674277"><ele>1254.0</ele><time>2026-05-01T13:41:27Z</time></trkpt><trkpt lat="45.07705849397784" lon="6.712265291326136"><ele>1253.8333333333333</ele><time>2026-05-01T13:41:28Z</time></trkpt><trkpt lat="45.07705600643464" lon="6.712381603666389"><ele>1253.6666666666667</ele><time>2026-05-01T13:41:29Z</time></trkpt><trkpt lat="45.07704719208886" lon="6.712530901983732"><ele>1253.5</ele><time>2026-05-01T13:41:31Z</time></trkpt><trkpt lat="45.077116760760525" lon="6.712559940446134"><ele>1253.3333333333335</ele><time>2026-05-01T13:41:32Z</time></trkpt><trkpt lat="45.07716866636787" lon="6.712617445526527"><ele>1253.1666666666667</ele><time>2026-05-01T13:41:56Z</time></trkpt><trkpt lat="45.077240271017885" lon="6.712638126039558"><ele>1253.0</ele><time>2026-05-01T13:41:58Z</time></trkpt><trkpt lat="45.07730637992931" lon="6.712555048236082"><ele>1253.0</ele><time>2026-05-01T13:41:59Z</time></trkpt><trkpt lat="45.077371301758554" lon="6.712463516673242"><ele>1253.0</ele><time>2026-05-01T13:42:00Z</time></trkpt><trkpt lat="45.07744185735789" lon="6.712380696630984"><ele>1253.0</ele><time>2026-05-01T13:42:01Z</time></trkpt><trkpt lat="45.07753301342828" lon="6.712257031105835"><ele>1253.0</ele><time>2026-05-01T13:42:02Z</time></trkpt><trkpt lat="45.07761664684633" lon="6.7121355035954196"><ele>1253.0</ele><time>2026-05-01T13:42:03Z</time></trkpt><trkpt lat="45.07770387888572" lon="6.71200854151036"><ele>1254.25</ele><time>2026-05-01T13:42:04Z</time></trkpt><trkpt lat="45.07780026227847" lon="6.711873604524078"><ele>1255.5</ele><time>2026-05-01T13:42:05Z</time></trkpt><trkpt lat="45.07789412107079" lon="6.711711961465509"><ele>1256.75</ele><time>2026-05-01T13:42:06Z</time></trkpt><trkpt lat="45.07797813106837" lon="6.711562948195903"><ele>1258.0</ele><time>2026-05-01T13:42:07Z</time></trkpt><trkpt lat="45.078068637234594" lon="6.7114298159631485"><ele>1258.0</ele><time>2026-05-01T13:42:08Z</time></trkpt><trkpt lat="45.07817563913386" lon="6.711312810942805"><ele>1258.0</ele><time>2026-05-01T13:42:09Z</time></trkpt><trkpt lat="45.078281638149285" lon="6.7112238580321995"><ele>1258.0</ele><time>2026-05-01T13:42:10Z</time></trkpt><trkpt lat="45.07838191159757" lon="6.7111556372010215"><ele>1258.0</ele><time>2026-05-01T13:42:11Z</time></trkpt><trkpt lat="45.07848260657815" lon="6.71110811229721"><ele>1258.75</ele><time>2026-05-01T13:42:12Z</time></trkpt><trkpt lat="45.07859724896167" lon="6.711072785597237"><ele>1259.5</ele><time>2026-05-01T13:42:13Z</time></trkpt><trkpt lat="45.078723865515634" lon="6.711064664689209"><ele>1260.25</ele><time>2026-05-01T13:42:14Z</time></trkpt><trkpt lat="45.07884950027012" lon="6.711066570974048"><ele>1261.0</ele><time>2026-05-01T13:42:15Z</time></trkpt><trkpt lat="45.078978579465094" lon="6.711077899662104"><ele>1263.0</ele><time>2026-05-01T13:42:16Z</time></trkpt><trkpt lat="45.07910993301863" lon="6.711081167492221"><ele>1265.0</ele><time>2026-05-01T13:42:17Z</time></trkpt><trkpt lat="45.079244437237236" lon="6.71106714675256"><ele>1267.0</ele><time>2026-05-01T13:42:18Z</time></trkpt><trkpt lat="45.079370547956984" lon="6.711022754918538"><ele>1269.0</ele><time>2026-05-01T13:42:19Z</time></trkpt><trkpt lat="45.07949549333585" lon="6.710974460753643"><ele>1269.0</ele><time>2026-05-01T13:42:20Z</time></trkpt><trkpt lat="45.079620006338075" lon="6.710903963210559"><ele>1269.0</ele><time>2026-05-01T13:42:21Z</time></trkpt><trkpt lat="45.07975117970852" lon="6.710825670891819"><ele>1269.0</ele><time>2026-05-01T13:42:22Z</time></trkpt><trkpt lat="45.07988350765935" lon="6.710737452049906"><ele>1269.0</ele><time>2026-05-01T13:42:23Z</time></trkpt><trkpt lat="45.08000005071771" lon="6.710640761975855"><ele>1271.2</ele><time>2026-05-01T13:42:24Z</time></trkpt><trkpt lat="45.08010174356516" lon="6.7105522936038176"><ele>1273.4</ele><time>2026-05-01T13:42:25Z</time></trkpt><trkpt lat="45.0801985570636" lon="6.710485464024144"><ele>1275.6</ele><time>2026-05-01T13:42:26Z</time></trkpt><trkpt lat="45.08029114896947" lon="6.710449401207704"><ele>1277.8</ele><time>2026-05-01T13:42:27Z</time></trkpt><trkpt lat="45.08037879996097" lon="6.7104358464884255"><ele>1280.0</ele><time>2026-05-01T13:42:28Z</time></trkpt><trkpt lat="45.080470063321826" lon="6.710424891552057"><ele>1280.0</ele><time>2026-05-01T13:42:29Z</time></trkpt><trkpt lat="45.08055293772027" lon="6.710445947354982"><ele>1280.0</ele><time>2026-05-01T13:42:30Z</time></trkpt><trkpt lat="45.0806164495709" lon="6.710496490634795"><ele>1280.0</ele><time>2026-05-01T13:42:31Z</time></trkpt><trkpt lat="45.08065991657052" lon="6.710579815296044"><ele>1280.0</ele><time>2026-05-01T13:42:32Z</time></trkpt><trkpt lat="45.08068052810898" lon="6.710687284085367"><ele>1280.0</ele><time>2026-05-01T13:42:33Z</time></trkpt><trkpt lat="45.080660595393624" lon="6.710785630013639"><ele>1280.0</ele><time>2026-05-01T13:42:34Z</time></trkpt><trkpt lat="45.08061010112535" lon="6.710876604076146"><ele>1280.0</ele><time>2026-05-01T13:42:35Z</time></trkpt><trkpt lat="45.080527652357205" lon="6.710927328448551"><ele>1280.0</ele><time>2026-05-01T13:42:36Z</time></trkpt><trkpt lat="45.08043105872136" lon="6.710942315562222"><ele>1280.0</ele><time>2026-05-01T13:42:37Z</time></trkpt><trkpt lat="45.08032932675338" lon="6.710939274612809"><ele>1280.0</ele><time>2026-05-01T13:42:38Z</time></trkpt><trkpt lat="45.08022748203775" lon="6.71096717589062"><ele>1280.0</ele><time>2026-05-01T13:42:39Z</time></trkpt><trkpt lat="45.08012839184937" lon="6.7110187683466345"><ele>1280.0</ele><time>2026-05-01T13:42:39.999Z</time></trkpt><trkpt lat="45.08002812384642" lon="6.71107418750527"><ele>1280.0</ele><time>2026-05-01T13:42:40.999Z</time></trkpt><trkpt lat="45.07992339241894" lon="6.711136586880944"><ele>1280.0</ele><time>2026-05-01T13:42:41.999Z</time></trkpt><trkpt lat="45.07980908275988" lon="6.711206458349384"><ele>1280.0</ele><time>2026-05-01T13:42:42.999Z</time></trkpt><trkpt lat="45.079691458643055" lon="6.711299800833738"><ele>1282.5</ele><time>2026-05-01T13:42:43.999Z</time></trkpt><trkpt lat="45.07956807634332" lon="6.711407551510151"><ele>1285.0</ele><time>2026-05-01T13:42:44.999Z</time></trkpt><trkpt lat="45.07944699203574" lon="6.711512327069593"><ele>1287.5</ele><time>2026-05-01T13:42:45.999Z</time></trkpt><trkpt lat="45.07931862166453" lon="6.711616518210578"><ele>1290.0</ele><time>2026-05-01T13:42:46.999Z</time></trkpt><trkpt lat="45.0792039046878" lon="6.7117199683169"><ele>1291.5</ele><time>2026-05-01T13:42:47.999Z</time></trkpt><trkpt lat="45.079083445580544" lon="6.711822304353582"><ele>1293.0</ele><time>2026-05-01T13:42:48.999Z</time></trkpt><trkpt lat="45.078950149776894" lon="6.711904318535735"><ele>1294.5</ele><time>2026-05-01T13:42:49.999Z</time></trkpt><trkpt lat="45.07883235134424" lon="6.712003489157254"><ele>1296.0</ele><time>2026-05-01T13:42:50.999Z</time></trkpt><trkpt lat="45.0787146047132" lon="6.712081858710989"><ele>1296.0</ele><time>2026-05-01T13:42:51.999Z</time></trkpt><trkpt lat="45.07860861962949" lon="6.712142628762477"><ele>1296.0</ele><time>2026-05-01T13:42:52.999Z</time></trkpt><trkpt lat="45.07852651506732" lon="6.712204094266213"><ele>1296.0</ele><time>2026-05-01T13:42:53.999Z</time></trkpt><trkpt lat="45.07846333006862" lon="6.71228986357793"><ele>1296.0</ele><time>2026-05-01T13:42:54.999Z</time></trkpt><trkpt lat="45.078436699471666" lon="6.712399476658994"><ele>1296.0</ele><time>2026-05-01T13:42:55.999Z</time></trkpt><trkpt lat="45.078468299509765" lon="6.712509524277053"><ele>1296.0</ele><time>2026-05-01T13:42:56.999Z</time></trkpt><trkpt lat="45.078509998920275" lon="6.712621989134492"><ele>1296.0</ele><time>2026-05-01T13:42:57.999Z</time></trkpt><trkpt lat="45.07857209466656" lon="6.712729097629921"><ele>1296.0</ele><time>2026-05-01T13:42:58.999Z</time></trkpt><trkpt lat="45.07867158466911" lon="6.712739457043117"><ele>1296.0</ele><time>2026-05-01T13:42:59.999Z</time></trkpt><trkpt lat="45.078759265743464" lon="6.712776965960656"><ele>1296.0</ele><time>2026-05-01T13:43:00.999Z</time></trkpt><trkpt lat="45.0788774217722" lon="6.71277038613087"><ele>1299.5</ele><time>2026-05-01T13:43:01.999Z</time></trkpt><trkpt lat="45.07899905018381" lon="6.712770424040433"><ele>1303.0</ele><time>2026-05-01T13:43:02.999Z</time></trkpt><trkpt lat="45.07911150277547" lon="6.71272279523434"><ele>1306.5</ele><time>2026-05-01T13:43:03.999Z</time></trkpt><trkpt lat="45.079226492241176" lon="6.712650444463546"><ele>1310.0</ele><time>2026-05-01T13:43:04.999Z</time></trkpt><trkpt lat="45.079337600227305" lon="6.712556825101755"><ele>1310.0</ele><time>2026-05-01T13:43:05.999Z</time></trkpt><trkpt lat="45.07943398613977" lon="6.712448921376288"><ele>1310.0</ele><time>2026-05-01T13:43:06.999Z</time></trkpt><trkpt lat="45.079510171782836" lon="6.712349066211167"><ele>1310.0</ele><time>2026-05-01T13:43:07.999Z</time></trkpt><trkpt lat="45.07958333345497" lon="6.712263415153992"><ele>1310.0</ele><time>2026-05-01T13:43:08.999Z</time></trkpt><trkpt lat="45.07967305132533" lon="6.7121946341915555"><ele>1310.0</ele><time>2026-05-01T13:43:09.999Z</time></trkpt><trkpt lat="45.07976701159876" lon="6.7121394986490035"><ele>1310.0</ele><time>2026-05-01T13:43:10.999Z</time></trkpt><trkpt lat="45.07985875924712" lon="6.7120938452987"><ele>1310.0</ele><time>2026-05-01T13:43:11.999Z</time></trkpt><trkpt lat="45.079951540030976" lon="6.712055712592381"><ele>1310.0</ele><time>2026-05-01T13:43:12.999Z</time></trkpt><trkpt lat="45.08005207375146" lon="6.712017845980743"><ele>1310.0</ele><time>2026-05-01T13:43:13.999Z</time></trkpt><trkpt lat="45.080158415883" lon="6.7119824638522365"><ele>1310.0</ele><time>2026-05-01T13:43:14.999Z</time></trkpt><trkpt lat="45.08026424416007" lon="6.711967688726794"><ele>1312.75</ele><time>2026-05-01T13:43:15.999Z</time></trkpt><trkpt lat="45.08038288236542" lon="6.7119627766048895"><ele>1315.5</ele><time>2026-05-01T13:43:16.999Z</time></trkpt><trkpt lat="45.08052233713346" lon="6.711966620761304"><ele>1318.25</ele><time>2026-05-01T13:43:17.999Z</time></trkpt><trkpt lat="45.08067145775555" lon="6.711964859280852"><ele>1321.0</ele><time>2026-05-01T13:43:18.999Z</time></trkpt><trkpt lat="45.080808483494444" lon="6.711934678435483"><ele>1319.1999999999998</ele><time>2026-05-01T13:43:19.999Z</time></trkpt><trkpt lat="45.08091829157695" lon="6.71188742747064"><ele>1317.3999999999999</ele><time>2026-05-01T13:43:20.999Z</time></trkpt><trkpt lat="45.08100676229754" lon="6.711838997232242"><ele>1315.6</ele><time>2026-05-01T13:43:21.999Z</time></trkpt><trkpt lat="45.08106867215295" lon="6.7118157228181"><ele>1313.8</ele><time>2026-05-01T13:43:23Z</time></trkpt><trkpt lat="45.08113057064328" lon="6.7119347191897365"><ele>1312.0</ele><time>2026-05-01T13:43:25Z</time></trkpt><trkpt lat="45.0810336224086" lon="6.712042664794386"><ele>1313.8</ele><time>2026-05-01T13:43:27Z</time></trkpt><trkpt lat="45.08096867368762" lon="6.712068051338371"><ele>1315.6</ele><time>2026-05-01T13:43:28Z</time></trkpt><trkpt lat="45.080888746477335" lon="6.712105908558396"><ele>1317.3999999999999</ele><time>2026-05-01T13:43:29Z</time></trkpt><trkpt lat="45.08078424333562" lon="6.712155917138041"><ele>1319.1999999999998</ele><time>2026-05-01T13:43:30Z</time></trkpt><trkpt lat="45.08066777397991" lon="6.712245127346726"><ele>1321.0</ele><time>2026-05-01T13:43:31Z</time></trkpt><trkpt lat="45.08053496419894" lon="6.712347468652852"><ele>1321.0</ele><time>2026-05-01T13:43:32Z</time></trkpt><trkpt lat="45.080431069930675" lon="6.712458231180281"><ele>1321.0</ele><time>2026-05-01T13:43:33Z</time></trkpt><trkpt lat="45.08033836359104" lon="6.712580983147958"><ele>1321.0</ele><time>2026-05-01T13:43:34Z</time></trkpt><trkpt lat="45.08026924924836" lon="6.7126864260678465"><ele>1321.0</ele><time>2026-05-01T13:43:35Z</time></trkpt><trkpt lat="45.080224611396176" lon="6.712776012427291"><ele>1321.0</ele><time>2026-05-01T13:43:36Z</time></trkpt><trkpt lat="45.080228742034585" lon="6.712882012257297"><ele>1325.8333333333333</ele><time>2026-05-01T13:43:37Z</time></trkpt><trkpt lat="45.08026949314565" lon="6.712968975277868"><ele>1330.6666666666665</ele><time>2026-05-01T13:43:38Z</time></trkpt><trkpt lat="45.08033873560201" lon="6.712987322919131"><ele>1335.5</ele><time>2026-05-01T13:43:39Z</time></trkpt><trkpt lat="45.08040965299242" lon="6.71296490970866"><ele>1340.3333333333333</ele><time>2026-05-01T13:43:40Z</time></trkpt><trkpt lat="45.08048275072638" lon="6.712912519075708"><ele>1345.1666666666667</ele><time>2026-05-01T13:43:41Z</time></trkpt><trkpt lat="45.08056316111925" lon="6.712842738763589"><ele>1350.0</ele><time>2026-05-01T13:43:42Z</time></trkpt><trkpt lat="45.08066006088081" lon="6.712775783488976"><ele>1346.25</ele><time>2026-05-01T13:43:43Z</time></trkpt><trkpt lat="45.08076572478623" lon="6.7126955633821535"><ele>1342.5</ele><time>2026-05-01T13:43:44Z</time></trkpt><trkpt lat="45.08088517328043" lon="6.712621831519104"><ele>1338.75</ele><time>2026-05-01T13:43:45Z</time></trkpt><trkpt lat="45.080995074558736" lon="6.712569083116086"><ele>1335.0</ele><time>2026-05-01T13:43:46Z</time></trkpt><trkpt lat="45.08111521382075" lon="6.712541648184679"><ele>1335.0</ele><time>2026-05-01T13:43:47Z</time></trkpt><trkpt lat="45.08124409612951" lon="6.712522521445734"><ele>1335.0</ele><time>2026-05-01T13:43:48Z</time></trkpt><trkpt lat="45.08138084071003" lon="6.7125095477571435"><ele>1335.0</ele><time>2026-05-01T13:43:49Z</time></trkpt><trkpt lat="45.08152346781539" lon="6.712503956286236"><ele>1335.0</ele><time>2026-05-01T13:43:50Z</time></trkpt><trkpt lat="45.08166692951983" lon="6.712508241072403"><ele>1336.4</ele><time>2026-05-01T13:43:51Z</time></trkpt><trkpt lat="45.08178879202518" lon="6.7125287140669165"><ele>1337.8</ele><time>2026-05-01T13:43:52Z</time></trkpt><trkpt lat="45.08188169231282" lon="6.712562252151669"><ele>1339.1999999999998</ele><time>2026-05-01T13:43:53Z</time></trkpt><trkpt lat="45.08195256727369" lon="6.712592124396852"><ele>1340.6</ele><time>2026-05-01T13:43:54Z</time></trkpt><trkpt lat="45.08203288942348" lon="6.712663653208501"><ele>1342.0</ele><time>2026-05-01T13:43:56Z</time></trkpt><trkpt lat="45.08211143432893" lon="6.7127139538404546"><ele>1344.6</ele><time>2026-05-01T13:43:58Z</time></trkpt><trkpt lat="45.08219498017464" lon="6.712794501960301"><ele>1347.1999999999998</ele><time>2026-05-01T13:44:00Z</time></trkpt><trkpt lat="45.08226868529878" lon="6.712806827213004"><ele>1349.8</ele><time>2026-05-01T13:44:01Z</time></trkpt><trkpt lat="45.082348103382834" lon="6.712867775028322"><ele>1352.4</ele><time>2026-05-01T13:44:02Z</time></trkpt><trkpt lat="45.08244816283377" lon="6.712945988098355"><ele>1355.0</ele><time>2026-05-01T13:44:03Z</time></trkpt><trkpt lat="45.08254117898014" lon="6.713010729779106"><ele>1357.0</ele><time>2026-05-01T13:44:04Z</time></trkpt><trkpt lat="45.0826190758395" lon="6.713094288108278"><ele>1359.0</ele><time>2026-05-01T13:44:05Z</time></trkpt><trkpt lat="45.08265692400484" lon="6.71318038613768"><ele>1361.0</ele><time>2026-05-01T13:44:06Z</time></trkpt><trkpt lat="45.08280450883169" lon="6.713310515679096"><ele>1363.0</ele><time>2026-05-01T13:44:08Z</time></trkpt><trkpt lat="45.08281491149881" lon="6.713479972603874"><ele>1363.0</ele><time>2026-05-01T13:44:09Z</time></trkpt><trkpt lat="45.08244066427728" lon="6.713479945758131"><ele>1363.0</ele><time>2026-05-01T13:44:10Z</time></trkpt><trkpt lat="45.082342190884255" lon="6.713273505267034"><ele>1361.4</ele><time>2026-05-01T13:44:11Z</time></trkpt><trkpt lat="45.08222833125012" lon="6.713254434516942"><ele>1359.8000000000002</ele><time>2026-05-01T13:44:12Z</time></trkpt><trkpt lat="45.08212181375533" lon="6.713262887736553"><ele>1358.2</ele><time>2026-05-01T13:44:13Z</time></trkpt><trkpt lat="45.08202961945699" lon="6.7132866169887935"><ele>1356.6</ele><time>2026-05-01T13:44:14Z</time></trkpt><trkpt lat="45.08196084456512" lon="6.713301005756814"><ele>1355.0</ele><time>2026-05-01T13:44:15Z</time></trkpt><trkpt lat="45.08185542536514" lon="6.7133392312800195"><ele>1355.0</ele><time>2026-05-01T13:44:17Z</time></trkpt><trkpt lat="45.08179270997177" lon="6.7133720449666"><ele>1355.0</ele><time>2026-05-01T13:44:18Z</time></trkpt><trkpt lat="45.08173166220299" lon="6.713404125807808"><ele>1355.0</ele><time>2026-05-01T13:44:19Z</time></trkpt><trkpt lat="45.08163265966696" lon="6.7134365277060235"><ele>1355.0</ele><time>2026-05-01T13:44:21Z</time></trkpt><trkpt lat="45.08156337538017" lon="6.713476717873751"><ele>1355.0</ele><time>2026-05-01T13:44:23Z</time></trkpt><trkpt lat="45.08171737665729" lon="6.713774461582752"><ele>1355.0</ele><time>2026-05-01T13:44:29Z</time></trkpt><trkpt lat="45.081810334731394" lon="6.713471592737044"><ele>1355.0</ele><time>2026-05-01T13:44:30Z</time></trkpt><trkpt lat="45.08190851837266" lon="6.713401826122097"><ele>1355.0</ele><time>2026-05-01T13:44:31Z</time></trkpt><trkpt lat="45.08200377443792" lon="6.713349761701148"><ele>1355.0</ele><time>2026-05-01T13:44:32Z</time></trkpt><trkpt lat="45.082095794747104" lon="6.713319857532413"><ele>1355.0</ele><time>2026-05-01T13:44:33Z</time></trkpt><trkpt lat="45.08219426367951" lon="6.713290439320088"><ele>1355.0</ele><time>2026-05-01T13:44:34Z</time></trkpt><trkpt lat="45.08230443731432" lon="6.713269458413717"><ele>1355.0</ele><time>2026-05-01T13:44:35Z</time></trkpt><trkpt lat="45.0824133817705" lon="6.713263711302333"><ele>1355.0</ele><time>2026-05-01T13:44:36Z</time></trkpt><trkpt lat="45.082523900664754" lon="6.713293558160099"><ele>1355.0</ele><time>2026-05-01T13:44:37Z</time></trkpt><trkpt lat="45.08262515091431" lon="6.713345051661766"><ele>1356.6</ele><time>2026-05-01T13:44:38Z</time></trkpt><trkpt lat="45.08270904791935" lon="6.713407349094678"><ele>1358.2</ele><time>2026-05-01T13:44:39Z</time></trkpt><trkpt lat="45.082774919142324" lon="6.713457987805127"><ele>1359.8000000000002</ele><time>2026-05-01T13:44:40Z</time></trkpt><trkpt lat="45.082828046126984" lon="6.713585186301246"><ele>1361.4</ele><time>2026-05-01T13:44:42Z</time></trkpt><trkpt lat="45.08274153534706" lon="6.713680872327402"><ele>1363.0</ele><time>2026-05-01T13:44:44Z</time></trkpt><trkpt lat="45.08265110196443" lon="6.71366375990849"><ele>1363.0</ele><time>2026-05-01T13:44:44.999Z</time></trkpt><trkpt lat="45.08255970303197" lon="6.713605899351702"><ele>1363.0</ele><time>2026-05-01T13:44:45.999Z</time></trkpt><trkpt lat="45.08247600719867" lon="6.7135559385924966"><ele>1363.0</ele><time>2026-05-01T13:44:46.999Z</time></trkpt><trkpt lat="45.08239401576581" lon="6.713539496820886"><ele>1363.0</ele><time>2026-05-01T13:44:47.999Z</time></trkpt><trkpt lat="45.08230691724831" lon="6.713541621626255"><ele>1363.0</ele><time>2026-05-01T13:44:48.999Z</time></trkpt><trkpt lat="45.08220935457276" lon="6.713534459653427"><ele>1361.6666666666665</ele><time>2026-05-01T13:44:49.999Z</time></trkpt><trkpt lat="45.08211949431627" lon="6.713569230497014"><ele>1360.3333333333333</ele><time>2026-05-01T13:44:50.999Z</time></trkpt><trkpt lat="45.08204194298343" lon="6.713621582484378"><ele>1359.0</ele><time>2026-05-01T13:44:51.999Z</time></trkpt><trkpt lat="45.08197267277468" lon="6.713647707753818"><ele>1357.6666666666667</ele><time>2026-05-01T13:44:52.999Z</time></trkpt><trkpt lat="45.08189361247281" lon="6.713744284601008"><ele>1356.3333333333335</ele><time>2026-05-01T13:44:54.999Z</time></trkpt><trkpt lat="45.08191624278574" lon="6.7138454635278375"><ele>1355.0</ele><time>2026-05-01T13:44:56.999Z</time></trkpt><trkpt lat="45.08198071687717" lon="6.713893320910473"><ele>1358.8333333333335</ele><time>2026-05-01T13:44:59.999Z</time></trkpt><trkpt lat="45.0820597913694" lon="6.713883501763285"><ele>1362.6666666666667</ele><time>2026-05-01T13:45:01.999Z</time></trkpt><trkpt lat="45.082129777233355" lon="6.713865159122807"><ele>1366.5</ele><time>2026-05-01T13:45:02.999Z</time></trkpt><trkpt lat="45.082211320113906" lon="6.7138616824376856"><ele>1370.3333333333333</ele><time>2026-05-01T13:45:03.999Z</time></trkpt><trkpt lat="45.08228068489601" lon="6.713880162755906"><ele>1374.1666666666665</ele><time>2026-05-01T13:45:04.999Z</time></trkpt><trkpt lat="45.08234687938452" lon="6.71389345823822"><ele>1378.0</ele><time>2026-05-01T13:45:05.999Z</time></trkpt><trkpt lat="45.08243573628149" lon="6.713941332340478"><ele>1378.0</ele><time>2026-05-01T13:45:07.999Z</time></trkpt><trkpt lat="45.08251277586056" lon="6.713980883630149"><ele>1378.0</ele><time>2026-05-01T13:45:25.999Z</time></trkpt><trkpt lat="45.08258531048979" lon="6.714018122375849"><ele>1378.0</ele><time>2026-05-01T13:45:29Z</time></trkpt><trkpt lat="45.08266855614863" lon="6.714049250666633"><ele>1378.0</ele><time>2026-05-01T13:45:31Z</time></trkpt><trkpt lat="45.08273323767512" lon="6.714119064024064"><ele>1378.0</ele><time>2026-05-01T13:45:33Z</time></trkpt><trkpt lat="45.08279570475199" lon="6.714214320967988"><ele>1378.0</ele><time>2026-05-01T13:45:35Z</time></trkpt><trkpt lat="45.08286799493071" lon="6.71428596753538"><ele>1378.0</ele><time>2026-05-01T13:45:37Z</time></trkpt><trkpt lat="45.082915061274825" lon="6.714399434500644"><ele>1378.0</ele><time>2026-05-01T13:45:39Z</time></trkpt><trkpt lat="45.082956419382924" lon="6.714503814021352"><ele>1378.0</ele><time>2026-05-01T13:45:41Z</time></trkpt><trkpt lat="45.08300566143145" lon="6.714609225409152"><ele>1378.0</ele><time>2026-05-01T13:45:43Z</time></trkpt><trkpt lat="45.0830335205872" lon="6.714689821788224"><ele>1378.0</ele><time>2026-05-01T13:45:45Z</time></trkpt><trkpt lat="45.083102153445466" lon="6.714867997595471"><ele>1383.6000000000001</ele><time>2026-05-01T13:45:47Z</time></trkpt><trkpt lat="45.083147340383164" lon="6.714968608300107"><ele>1389.2</ele><time>2026-05-01T13:45:48Z</time></trkpt><trkpt lat="45.083193264436105" lon="6.715098600661664"><ele>1394.8</ele><time>2026-05-01T13:45:49Z</time></trkpt><trkpt lat="45.083239981307706" lon="6.715186899242364"><ele>1400.4</ele><time>2026-05-01T13:45:50Z</time></trkpt><trkpt lat="45.083341480652585" lon="6.715314181565394"><ele>1406.0</ele><time>2026-05-01T13:45:52Z</time></trkpt><trkpt lat="45.083398828004654" lon="6.715388383574561"><ele>1407.3333333333335</ele><time>2026-05-01T13:45:53Z</time></trkpt><trkpt lat="45.08346438194948" lon="6.715474045045106"><ele>1408.6666666666667</ele><time>2026-05-01T13:45:54Z</time></trkpt><trkpt lat="45.08352830518978" lon="6.71555200647239"><ele>1410.0</ele><time>2026-05-01T13:45:55Z</time></trkpt><trkpt lat="45.08359444681441" lon="6.715617075136765"><ele>1411.3333333333333</ele><time>2026-05-01T13:45:56Z</time></trkpt><trkpt lat="45.08365425678146" lon="6.715691893898938"><ele>1412.6666666666665</ele><time>2026-05-01T13:45:57Z</time></trkpt><trkpt lat="45.08371617527362" lon="6.715765023774567"><ele>1414.0</ele><time>2026-05-01T13:45:58Z</time></trkpt><trkpt lat="45.083779357697004" lon="6.715861514180364"><ele>1414.0</ele><time>2026-05-01T13:45:59Z</time></trkpt><trkpt lat="45.08384146982823" lon="6.715943764731905"><ele>1414.0</ele><time>2026-05-01T13:46:00Z</time></trkpt><trkpt lat="45.08390203831215" lon="6.716041597068664"><ele>1414.0</ele><time>2026-05-01T13:46:01Z</time></trkpt><trkpt lat="45.08394421055337" lon="6.7161222461279575"><ele>1414.0</ele><time>2026-05-01T13:46:02Z</time></trkpt><trkpt lat="45.08400413611522" lon="6.71621245804365"><ele>1414.0</ele><time>2026-05-01T13:46:03Z</time></trkpt><trkpt lat="45.08407008232776" lon="6.716293765287171"><ele>1414.0</ele><time>2026-05-01T13:46:04Z</time></trkpt><trkpt lat="45.08412430877575" lon="6.716346304947478"><ele>1416.8333333333333</ele><time>2026-05-01T13:46:05Z</time></trkpt><trkpt lat="45.08420228101799" lon="6.716387500651899"><ele>1419.6666666666665</ele><time>2026-05-01T13:46:07Z</time></trkpt><trkpt lat="45.08424408506828" lon="6.716484285626219"><ele>1422.5</ele><time>2026-05-01T13:46:09Z</time></trkpt><trkpt lat="45.08421961026492" lon="6.716573203262524"><ele>1425.3333333333333</ele><time>2026-05-01T13:46:10Z</time></trkpt><trkpt lat="45.08413775120694" lon="6.716668477014914"><ele>1428.1666666666667</ele><time>2026-05-01T13:46:12Z</time></trkpt><trkpt lat="45.08403807253557" lon="6.716659936684738"><ele>1431.0</ele><time>2026-05-01T13:46:14Z</time></trkpt><trkpt lat="45.08392800016712" lon="6.7166387436976915"><ele>1435.0</ele><time>2026-05-01T13:46:16Z</time></trkpt><trkpt lat="45.083835815226415" lon="6.7165961454797865"><ele>1439.0</ele><time>2026-05-01T13:46:18Z</time></trkpt><trkpt lat="45.08375018041088" lon="6.716553241455934"><ele>1443.0</ele><time>2026-05-01T13:46:20Z</time></trkpt><trkpt lat="45.08367937801657" lon="6.716515006926531"><ele>1447.0</ele><time>2026-05-01T13:46:21Z</time></trkpt><trkpt lat="45.0836093143721" lon="6.716461981788248"><ele>1451.0</ele><time>2026-05-01T13:46:22Z</time></trkpt><trkpt lat="45.08349004220561" lon="6.716395791679507"><ele>1451.0</ele><time>2026-05-01T13:46:23Z</time></trkpt><trkpt lat="45.08339902472449" lon="6.716353232665234"><ele>1451.0</ele><time>2026-05-01T13:46:24Z</time></trkpt><trkpt lat="45.08332353390649" lon="6.7163199959921815"><ele>1451.0</ele><time>2026-05-01T13:46:25Z</time></trkpt><trkpt lat="45.08324595000538" lon="6.716294783968668"><ele>1451.0</ele><time>2026-05-01T13:46:26Z</time></trkpt><trkpt lat="45.08317899248451" lon="6.716255322372297"><ele>1451.0</ele><time>2026-05-01T13:46:27Z</time></trkpt><trkpt lat="45.08310096158744" lon="6.716217307227966"><ele>1451.0</ele><time>2026-05-01T13:46:28Z</time></trkpt><trkpt lat="45.083024249221374" lon="6.716215043612283"><ele>1448.8333333333335</ele><time>2026-05-01T13:46:29Z</time></trkpt><trkpt lat="45.0829567215333" lon="6.716172773462927"><ele>1446.6666666666667</ele><time>2026-05-01T13:46:30Z</time></trkpt><trkpt lat="45.08287627627267" lon="6.716117223498334"><ele>1444.5</ele><time>2026-05-01T13:46:31Z</time></trkpt><trkpt lat="45.08279487849798" lon="6.716085571213229"><ele>1442.3333333333333</ele><time>2026-05-01T13:46:32Z</time></trkpt><trkpt lat="45.08272738936739" lon="6.716045772908579"><ele>1440.1666666666665</ele><time>2026-05-01T13:46:33Z</time></trkpt><trkpt lat="45.08264960887056" lon="6.715995132217869"><ele>1438.0</ele><time>2026-05-01T13:46:34Z</time></trkpt><trkpt lat="45.082565587583765" lon="6.7159619353971705"><ele>1438.0</ele><time>2026-05-01T13:46:35Z</time></trkpt><trkpt lat="45.082490656188156" lon="6.715939605758296"><ele>1438.0</ele><time>2026-05-01T13:46:36Z</time></trkpt><trkpt lat="45.08241225266816" lon="6.715937099687111"><ele>1438.0</ele><time>2026-05-01T13:46:37Z</time></trkpt><trkpt lat="45.0823475097879" lon="6.715973180710544"><ele>1438.0</ele><time>2026-05-01T13:46:38Z</time></trkpt><trkpt lat="45.08228401344316" lon="6.7159934743464555"><ele>1438.0</ele><time>2026-05-01T13:46:39Z</time></trkpt><trkpt lat="45.08216803091174" lon="6.716078530721996"><ele>1438.0</ele><time>2026-05-01T13:46:41Z</time></trkpt><trkpt lat="45.08209849281623" lon="6.716119205351243"><ele>1445.3333333333333</ele><time>2026-05-01T13:46:42Z</time></trkpt><trkpt lat="45.08202806671211" lon="6.716158911707387"><ele>1452.6666666666665</ele><time>2026-05-01T13:46:43Z</time></trkpt><trkpt lat="45.081954039900104" lon="6.7162212774097485"><ele>1460.0</ele><time>2026-05-01T13:46:44.999Z</time></trkpt><trkpt lat="45.082006928259936" lon="6.716318409509272"><ele>1467.3333333333333</ele><time>2026-05-01T13:46:48.999Z</time></trkpt><trkpt lat="45.082095258306325" lon="6.716334488519968"><ele>1474.6666666666667</ele><time>2026-05-01T13:46:50.999Z</time></trkpt><trkpt lat="45.08216474124493" lon="6.716415156100304"><ele>1482.0</ele><time>2026-05-01T13:46:52.999Z</time></trkpt><trkpt lat="45.082223362547126" lon="6.716549884356463"><ele>1482.0</ele><time>2026-05-01T13:46:54.999Z</time></trkpt><trkpt lat="45.08224901130826" lon="6.716632973769224"><ele>1482.0</ele><time>2026-05-01T13:46:55.999Z</time></trkpt><trkpt lat="45.082289469843964" lon="6.716769160655741"><ele>1482.0</ele><time>2026-05-01T13:46:57.999Z</time></trkpt><trkpt lat="45.08233661307484" lon="6.716901957165811"><ele>1482.0</ele><time>2026-05-01T13:46:59.999Z</time></trkpt><trkpt lat="45.08240669972509" lon="6.717032922465496"><ele>1482.0</ele><time>2026-05-01T13:47:01.999Z</time></trkpt><trkpt lat="45.08246379921717" lon="6.717102376693936"><ele>1485.6666666666667</ele><time>2026-05-01T13:47:02.999Z</time></trkpt><trkpt lat="45.08252086177596" lon="6.717186076526583"><ele>1489.3333333333333</ele><time>2026-05-01T13:47:03.999Z</time></trkpt><trkpt lat="45.082568600723725" lon="6.717267240912958"><ele>1493.0</ele><time>2026-05-01T13:47:04.999Z</time></trkpt><trkpt lat="45.08262115472726" lon="6.717346175901986"><ele>1496.6666666666665</ele><time>2026-05-01T13:47:05.999Z</time></trkpt><trkpt lat="45.08267215217212" lon="6.717432396009368"><ele>1500.3333333333333</ele><time>2026-05-01T13:47:07.999Z</time></trkpt><trkpt lat="45.08272855312562" lon="6.717557149219519"><ele>1504.0</ele><time>2026-05-01T13:48:04Z</time></trkpt><trkpt lat="45.082757151709096" lon="6.717643356989975"><ele>1504.0</ele><time>2026-05-01T13:48:05Z</time></trkpt><trkpt lat="45.08278107449691" lon="6.717726711941361"><ele>1504.0</ele><time>2026-05-01T13:48:06Z</time></trkpt><trkpt lat="45.08277898751911" lon="6.717631897980401"><ele>1504.0</ele><time>2026-05-01T13:48:35Z</time></trkpt><trkpt lat="45.08273936712576" lon="6.71755473933501"><ele>1504.0</ele><time>2026-05-01T13:48:37Z</time></trkpt><trkpt lat="45.082685191781785" lon="6.717457229937464"><ele>1504.0</ele><time>2026-05-01T13:48:39Z</time></trkpt><trkpt lat="45.08262545464037" lon="6.717355440532688"><ele>1504.0</ele><time>2026-05-01T13:48:41Z</time></trkpt><trkpt lat="45.082566922393056" lon="6.717249981589626"><ele>1504.0</ele><time>2026-05-01T13:48:43Z</time></trkpt><trkpt lat="45.08251138221578" lon="6.717158141678587"><ele>1504.0</ele><time>2026-05-01T13:48:45Z</time></trkpt><trkpt lat="45.08245448094655" lon="6.7170898934130525"><ele>1504.0</ele><time>2026-05-01T13:48:47Z</time></trkpt><trkpt lat="45.08236358979444" lon="6.71698384236477"><ele>1504.0</ele><time>2026-05-01T13:48:49Z</time></trkpt><trkpt lat="45.082305966943636" lon="6.716860933609216"><ele>1504.0</ele><time>2026-05-01T13:48:50.999Z</time></trkpt><trkpt lat="45.08226469304016" lon="6.71674385159262"><ele>1500.3333333333333</ele><time>2026-05-01T13:48:52.999Z</time></trkpt><trkpt lat="45.08223286843495" lon="6.716639905280995"><ele>1496.6666666666665</ele><time>2026-05-01T13:48:54.999Z</time></trkpt><trkpt lat="45.08219849938253" lon="6.71653535208598"><ele>1493.0</ele><time>2026-05-01T13:48:56.999Z</time></trkpt><trkpt lat="45.08215172359749" lon="6.716431863279973"><ele>1489.3333333333333</ele><time>2026-05-01T13:48:58.999Z</time></trkpt><trkpt lat="45.08209022728474" lon="6.716339980951346"><ele>1485.6666666666667</ele><time>2026-05-01T13:49:00.999Z</time></trkpt><trkpt lat="45.08200858131741" lon="6.716311247429163"><ele>1482.0</ele><time>2026-05-01T13:49:02.999Z</time></trkpt><trkpt lat="45.081947664647615" lon="6.716264983930927"><ele>1482.0</ele><time>2026-05-01T13:49:05.999Z</time></trkpt><trkpt lat="45.081997468848385" lon="6.716189899451189"><ele>1482.0</ele><time>2026-05-01T13:49:08.999Z</time></trkpt><trkpt lat="45.082088258574395" lon="6.7161472828629805"><ele>1482.0</ele><time>2026-05-01T13:49:11.999Z</time></trkpt><trkpt lat="45.082168581301474" lon="6.716085653954001"><ele>1482.0</ele><time>2026-05-01T13:49:13.999Z</time></trkpt><trkpt lat="45.08224237179517" lon="6.716042500472403"><ele>1482.0</ele><time>2026-05-01T13:49:15.999Z</time></trkpt><trkpt lat="45.08232752840913" lon="6.716008343448632"><ele>1482.0</ele><time>2026-05-01T13:49:17.999Z</time></trkpt><trkpt lat="45.082410900876454" lon="6.715990352275092"><ele>1480.8</ele><time>2026-05-01T13:49:19.999Z</time></trkpt><trkpt lat="45.08250691299485" lon="6.715991234719875"><ele>1479.6</ele><time>2026-05-01T13:49:21.999Z</time></trkpt><trkpt lat="45.08260439766246" lon="6.715994558565277"><ele>1478.3999999999999</ele><time>2026-05-01T13:49:23.999Z</time></trkpt><trkpt lat="45.08270077749307" lon="6.715995819265811"><ele>1477.1999999999998</ele><time>2026-05-01T13:49:25.999Z</time></trkpt><trkpt lat="45.082784604409206" lon="6.716038972530662"><ele>1476.0</ele><time>2026-05-01T13:49:27.999Z</time></trkpt><trkpt lat="45.08287144357371" lon="6.716120917160717"><ele>1476.0</ele><time>2026-05-01T13:49:29.999Z</time></trkpt><trkpt lat="45.08295982073026" lon="6.716149395766728"><ele>1476.0</ele><time>2026-05-01T13:49:31.999Z</time></trkpt><trkpt lat="45.08302817672475" lon="6.716167778684816"><ele>1476.0</ele><time>2026-05-01T13:49:33.999Z</time></trkpt><trkpt lat="45.08312557841954" lon="6.716229235272244"><ele>1476.0</ele><time>2026-05-01T13:49:35.999Z</time></trkpt><trkpt lat="45.0831876298184" lon="6.716260234011378"><ele>1476.0</ele><time>2026-05-01T13:49:36.999Z</time></trkpt><trkpt lat="45.08330882188981" lon="6.716306840611071"><ele>1471.0</ele><time>2026-05-01T13:49:38.999Z</time></trkpt><trkpt lat="45.08341353673765" lon="6.7163605548883"><ele>1466.0</ele><time>2026-05-01T13:49:41Z</time></trkpt><trkpt lat="45.08347274649456" lon="6.716395214201326"><ele>1461.0</ele><time>2026-05-01T13:49:42Z</time></trkpt><trkpt lat="45.08357565572723" lon="6.716440707391501"><ele>1456.0</ele><time>2026-05-01T13:49:44Z</time></trkpt><trkpt lat="45.08366448856523" lon="6.716478591291792"><ele>1451.0</ele><time>2026-05-01T13:49:46Z</time></trkpt><trkpt lat="45.083743740242795" lon="6.716526695162967"><ele>1451.0</ele><time>2026-05-01T13:49:48Z</time></trkpt><trkpt lat="45.08382749601041" lon="6.7165293770700565"><ele>1451.0</ele><time>2026-05-01T13:49:54Z</time></trkpt><trkpt lat="45.08392907732224" lon="6.716560740835997"><ele>1451.0</ele><time>2026-05-01T13:49:56Z</time></trkpt><trkpt lat="45.08406887251048" lon="6.716604618058107"><ele>1451.0</ele><time>2026-05-01T13:49:58Z</time></trkpt><trkpt lat="45.08414842336951" lon="6.716595212223773"><ele>1451.0</ele><time>2026-05-01T13:50:00Z</time></trkpt><trkpt lat="45.084210291395046" lon="6.716664429567133"><ele>1451.0</ele><time>2026-05-01T13:50:13Z</time></trkpt><trkpt lat="45.084141698740396" lon="6.716668449286601"><ele>1451.0</ele><time>2026-05-01T13:50:19Z</time></trkpt><trkpt lat="45.08403104788745" lon="6.716648445840086"><ele>1451.0</ele><time>2026-05-01T13:50:21Z</time></trkpt><trkpt lat="45.08391837895082" lon="6.716597241706348"><ele>1451.0</ele><time>2026-05-01T13:50:23Z</time></trkpt><trkpt lat="45.083845286028875" lon="6.716563037877646"><ele>1451.0</ele><time>2026-05-01T13:50:25Z</time></trkpt><trkpt lat="45.083756904366005" lon="6.716509140130179"><ele>1451.0</ele><time>2026-05-01T13:50:28Z</time></trkpt><trkpt lat="45.08370020769985" lon="6.716457272861765"><ele>1451.0</ele><time>2026-05-01T13:50:29Z</time></trkpt><trkpt lat="45.08362975512819" lon="6.716400878750858"><ele>1451.0</ele><time>2026-05-01T13:50:30Z</time></trkpt><trkpt lat="45.0835703404048" lon="6.716356116771955"><ele>1451.0</ele><time>2026-05-01T13:50:31Z</time></trkpt><trkpt lat="45.08347526953872" lon="6.716279323090155"><ele>1451.0</ele><time>2026-05-01T13:50:33Z</time></trkpt><trkpt lat="45.08340217026721" lon="6.716214997409657"><ele>1451.0</ele><time>2026-05-01T13:50:36Z</time></trkpt><trkpt lat="45.08335582671253" lon="6.716137666532711"><ele>1448.8333333333335</ele><time>2026-05-01T13:50:38Z</time></trkpt><trkpt lat="45.0832876246722" lon="6.7160570248214695"><ele>1446.6666666666667</ele><time>2026-05-01T13:50:39Z</time></trkpt><trkpt lat="45.08322706942955" lon="6.715997035864006"><ele>1444.5</ele><time>2026-05-01T13:50:41Z</time></trkpt><trkpt lat="45.08312038362368" lon="6.715985239447326"><ele>1442.3333333333333</ele><time>2026-05-01T13:50:42Z</time></trkpt><trkpt lat="45.08304940087602" lon="6.715936632816387"><ele>1440.1666666666665</ele><time>2026-05-01T13:50:44Z</time></trkpt><trkpt lat="45.08297406399092" lon="6.715849132746566"><ele>1438.0</ele><time>2026-05-01T13:50:46Z</time></trkpt><trkpt lat="45.08292054228216" lon="6.7157434770468445"><ele>1438.0</ele><time>2026-05-01T13:50:48Z</time></trkpt><trkpt lat="45.082852552459165" lon="6.715661495294433"><ele>1438.0</ele><time>2026-05-01T13:50:49Z</time></trkpt><trkpt lat="45.08277977185885" lon="6.715558554122647"><ele>1438.0</ele><time>2026-05-01T13:50:50Z</time></trkpt><trkpt lat="45.082719194952894" lon="6.715513873538272"><ele>1438.0</ele><time>2026-05-01T13:50:51Z</time></trkpt><trkpt lat="45.08266287963417" lon="6.715446199762509"><ele>1438.0</ele><time>2026-05-01T13:50:52Z</time></trkpt><trkpt lat="45.082600260470365" lon="6.715390296157877"><ele>1438.0</ele><time>2026-05-01T13:50:53Z</time></trkpt><trkpt lat="45.082489481251365" lon="6.715321987827211"><ele>1439.3333333333333</ele><time>2026-05-01T13:50:55Z</time></trkpt><trkpt lat="45.08240515516154" lon="6.715279820402066"><ele>1440.6666666666665</ele><time>2026-05-01T13:50:57Z</time></trkpt><trkpt lat="45.08232300434899" lon="6.7152466783647204"><ele>1442.0</ele><time>2026-05-01T13:51:02Z</time></trkpt><trkpt lat="45.08222018327577" lon="6.715208932664579"><ele>1443.3333333333333</ele><time>2026-05-01T13:51:04Z</time></trkpt><trkpt lat="45.08215635713938" lon="6.715204825476556"><ele>1444.6666666666667</ele><time>2026-05-01T13:51:08Z</time></trkpt><trkpt lat="45.082076957504015" lon="6.715193020203373"><ele>1446.0</ele><time>2026-05-01T13:51:11Z</time></trkpt><trkpt lat="45.08200957529791" lon="6.715163874501998"><ele>1442.0</ele><time>2026-05-01T13:51:27Z</time></trkpt><trkpt lat="45.08192812252107" lon="6.715176044357679"><ele>1438.0</ele><time>2026-05-01T13:51:29.999Z</time></trkpt><trkpt lat="45.08184140628691" lon="6.715164984180861"><ele>1434.0</ele><time>2026-05-01T13:51:31.999Z</time></trkpt><trkpt lat="45.08176080989626" lon="6.715159219080477"><ele>1430.0</ele><time>2026-05-01T13:51:33.999Z</time></trkpt><trkpt lat="45.08168409886886" lon="6.715126173363317"><ele>1426.0</ele><time>2026-05-01T13:51:35.999Z</time></trkpt><trkpt lat="45.081609572194054" lon="6.715092316626538"><ele>1422.0</ele><time>2026-05-01T13:51:37.999Z</time></trkpt><trkpt lat="45.08152086785913" lon="6.715086228874859"><ele>1422.0</ele><time>2026-05-01T13:51:39.999Z</time></trkpt><trkpt lat="45.081446393275414" lon="6.7150850115377745"><ele>1422.0</ele><time>2026-05-01T13:51:41.999Z</time></trkpt><trkpt lat="45.08134325747336" lon="6.715059327166983"><ele>1422.0</ele><time>2026-05-01T13:51:43.999Z</time></trkpt><trkpt lat="45.08125536406958" lon="6.715064265565369"><ele>1422.0</ele><time>2026-05-01T13:51:45.999Z</time></trkpt><trkpt lat="45.08116080393067" lon="6.71502896693884"><ele>1422.0</ele><time>2026-05-01T13:51:48.001Z</time></trkpt><trkpt lat="45.081087899223874" lon="6.71504180109111"><ele>1422.0</ele><time>2026-05-01T13:51:50.001Z</time></trkpt><trkpt lat="45.081006502208886" lon="6.715072613171126"><ele>1422.0</ele><time>2026-05-01T13:51:53.001Z</time></trkpt><trkpt lat="45.08093300862092" lon="6.714993695209307"><ele>1422.0</ele><time>2026-05-01T13:51:55.001Z</time></trkpt><trkpt lat="45.080860234170316" lon="6.7148959696047"><ele>1422.0</ele><time>2026-05-01T13:51:57.001Z</time></trkpt><trkpt lat="45.08080643837617" lon="6.7148474321494405"><ele>1422.0</ele><time>2026-05-01T13:51:58Z</time></trkpt><trkpt lat="45.08071451614367" lon="6.714784856560007"><ele>1422.0</ele><time>2026-05-01T13:52:00Z</time></trkpt><trkpt lat="45.08062286611131" lon="6.714783277317788"><ele>1421.6</ele><time>2026-05-01T13:52:03Z</time></trkpt><trkpt lat="45.08054972524962" lon="6.714834419645472"><ele>1421.1999999999998</ele><time>2026-05-01T13:52:05Z</time></trkpt><trkpt lat="45.080460192131696" lon="6.714827825991869"><ele>1420.8</ele><time>2026-05-01T13:52:06Z</time></trkpt><trkpt lat="45.080336084053435" lon="6.7148110729651584"><ele>1420.4</ele><time>2026-05-01T13:52:08Z</time></trkpt><trkpt lat="45.08026414043883" lon="6.714867477322345"><ele>1420.0</ele><time>2026-05-01T13:52:10Z</time></trkpt><trkpt lat="45.080160344821316" lon="6.714939475622031"><ele>1420.0</ele><time>2026-05-01T13:52:12Z</time></trkpt><trkpt lat="45.08009199247391" lon="6.714878848183149"><ele>1420.0</ele><time>2026-05-01T13:52:14Z</time></trkpt><trkpt lat="45.079971527491296" lon="6.714846430208168"><ele>1420.0</ele><time>2026-05-01T13:52:16Z</time></trkpt><trkpt lat="45.079898069608376" lon="6.714895085459338"><ele>1420.0</ele><time>2026-05-01T13:52:17Z</time></trkpt><trkpt lat="45.07977620560795" lon="6.714876414326759"><ele>1420.0</ele><time>2026-05-01T13:52:19Z</time></trkpt><trkpt lat="45.079727641679774" lon="6.714818186760149"><ele>1415.8</ele><time>2026-05-01T13:52:20Z</time></trkpt><trkpt lat="45.07965721490666" lon="6.714774736161406"><ele>1411.6</ele><time>2026-05-01T13:52:23Z</time></trkpt><trkpt lat="45.07959060637608" lon="6.714830642522114"><ele>1407.4</ele><time>2026-05-01T13:52:39Z</time></trkpt><trkpt lat="45.0795087422738" lon="6.7148994136818345"><ele>1403.2</ele><time>2026-05-01T13:52:41Z</time></trkpt><trkpt lat="45.079405239751814" lon="6.7149757928938145"><ele>1399.0</ele><time>2026-05-01T13:52:43Z</time></trkpt><trkpt lat="45.07928791304433" lon="6.7150414187910155"><ele>1399.0</ele><time>2026-05-01T13:52:45Z</time></trkpt><trkpt lat="45.07921576562138" lon="6.715086260546035"><ele>1399.0</ele><time>2026-05-01T13:52:46Z</time></trkpt><trkpt lat="45.07912764725114" lon="6.715169537321652"><ele>1399.0</ele><time>2026-05-01T13:52:48Z</time></trkpt><trkpt lat="45.07906770329787" lon="6.715247262604324"><ele>1399.0</ele><time>2026-05-01T13:52:50Z</time></trkpt><trkpt lat="45.079061748634395" lon="6.715344781838964"><ele>1399.0</ele><time>2026-05-01T13:52:52Z</time></trkpt><trkpt lat="45.0790062968741" lon="6.715488379176357"><ele>1401.8000000000002</ele><time>2026-05-01T13:52:54Z</time></trkpt><trkpt lat="45.07890428648575" lon="6.715532616035478"><ele>1404.6000000000001</ele><time>2026-05-01T13:52:56Z</time></trkpt><trkpt lat="45.078830206095965" lon="6.715482130648447"><ele>1407.4</ele><time>2026-05-01T13:52:58Z</time></trkpt><trkpt lat="45.07875841956233" lon="6.7154334876711586"><ele>1410.2</ele><time>2026-05-01T13:53:32.999Z</time></trkpt><trkpt lat="45.078662230776686" lon="6.715455221370063"><ele>1413.0</ele><time>2026-05-01T13:53:34.999Z</time></trkpt><trkpt lat="45.07856299147264" lon="6.715477776061184"><ele>1413.0</ele><time>2026-05-01T13:53:36.999Z</time></trkpt><trkpt lat="45.078458191663266" lon="6.715539863754297"><ele>1413.0</ele><time>2026-05-01T13:53:38.999Z</time></trkpt><trkpt lat="45.078391766276766" lon="6.715547725792614"><ele>1413.0</ele><time>2026-05-01T13:53:39.999Z</time></trkpt><trkpt lat="45.078317333297136" lon="6.715559695612014"><ele>1413.0</ele><time>2026-05-01T13:53:40.999Z</time></trkpt><trkpt lat="45.0782455460815" lon="6.71556927918848"><ele>1413.0</ele><time>2026-05-01T13:53:41.999Z</time></trkpt><trkpt lat="45.07815488128535" lon="6.71560272617868"><ele>1413.0</ele><time>2026-05-01T13:53:43.999Z</time></trkpt><trkpt lat="45.07808493107002" lon="6.7156541156769585"><ele>1407.4</ele><time>2026-05-01T13:53:45.999Z</time></trkpt><trkpt lat="45.077971408508" lon="6.715768780545834"><ele>1401.8000000000002</ele><time>2026-05-01T13:53:47.999Z</time></trkpt><trkpt lat="45.07790744513271" lon="6.7158267233855495"><ele>1396.2</ele><time>2026-05-01T13:53:48.999Z</time></trkpt><trkpt lat="45.07784489755457" lon="6.7158714549817535"><ele>1390.6</ele><time>2026-05-01T13:53:49.999Z</time></trkpt><trkpt lat="45.0777543534215" lon="6.715897621568614"><ele>1385.0</ele><time>2026-05-01T13:53:51.999Z</time></trkpt><trkpt lat="45.07767570770391" lon="6.715920050293753"><ele>1385.0</ele><time>2026-05-01T13:53:54Z</time></trkpt><trkpt lat="45.07760856916077" lon="6.716001438166577"><ele>1385.0</ele><time>2026-05-01T13:53:56Z</time></trkpt><trkpt lat="45.077519462151024" lon="6.716116411274592"><ele>1385.0</ele><time>2026-05-01T13:53:58Z</time></trkpt><trkpt lat="45.07747985141519" lon="6.716202046828575"><ele>1385.0</ele><time>2026-05-01T13:54:00Z</time></trkpt><trkpt lat="45.07749093313459" lon="6.716321378635341"><ele>1385.0</ele><time>2026-05-01T13:54:02Z</time></trkpt><trkpt lat="45.07744463010303" lon="6.716474489816056"><ele>1383.6</ele><time>2026-05-01T13:54:04Z</time></trkpt><trkpt lat="45.07741593714363" lon="6.71655393208855"><ele>1382.2</ele><time>2026-05-01T13:54:05Z</time></trkpt><trkpt lat="45.07737257864449" lon="6.716722470955091"><ele>1380.8000000000002</ele><time>2026-05-01T13:54:07Z</time></trkpt><trkpt lat="45.077330272577335" lon="6.716814674737332"><ele>1379.4</ele><time>2026-05-01T13:54:08Z</time></trkpt><trkpt lat="45.07725408543563" lon="6.71692310171214"><ele>1378.0</ele><time>2026-05-01T13:54:10Z</time></trkpt><trkpt lat="45.07721752561071" lon="6.717029760945194"><ele>1378.0</ele><time>2026-05-01T13:54:12Z</time></trkpt><trkpt lat="45.077199893733784" lon="6.717173042040281"><ele>1378.0</ele><time>2026-05-01T13:54:14Z</time></trkpt><trkpt lat="45.07719800569828" lon="6.7173137154359575"><ele>1378.0</ele><time>2026-05-01T13:54:16Z</time></trkpt><trkpt lat="45.07720278515779" lon="6.717441082259928"><ele>1378.0</ele><time>2026-05-01T13:54:18Z</time></trkpt><trkpt lat="45.077155345671144" lon="6.717527485364106"><ele>1378.0</ele><time>2026-05-01T13:54:20Z</time></trkpt><trkpt lat="45.07712505217202" lon="6.717648020486999"><ele>1382.0</ele><time>2026-05-01T13:54:23Z</time></trkpt><trkpt lat="45.07709809865238" lon="6.7177889404623325"><ele>1386.0</ele><time>2026-05-01T13:54:25Z</time></trkpt><trkpt lat="45.077082819638406" lon="6.717879131847993"><ele>1390.0</ele><time>2026-05-01T13:54:26Z</time></trkpt><trkpt lat="45.077059870392155" lon="6.717983837933793"><ele>1394.0</ele><time>2026-05-01T13:54:28Z</time></trkpt><trkpt lat="45.07699470674324" lon="6.718080994819801"><ele>1398.0</ele><time>2026-05-01T13:54:30Z</time></trkpt><trkpt lat="45.07695960444707" lon="6.718180739031471"><ele>1402.0</ele><time>2026-05-01T13:54:32Z</time></trkpt><trkpt lat="45.076892921193775" lon="6.718286021065849"><ele>1402.0</ele><time>2026-05-01T13:54:34Z</time></trkpt><trkpt lat="45.07684581483053" lon="6.718383669908457"><ele>1402.0</ele><time>2026-05-01T13:54:36Z</time></trkpt><trkpt lat="45.076792347900984" lon="6.718451717851867"><ele>1402.0</ele><time>2026-05-01T13:54:38Z</time></trkpt><trkpt lat="45.076738073522364" lon="6.718509267567171"><ele>1402.0</ele><time>2026-05-01T13:54:40Z</time></trkpt><trkpt lat="45.0766620057099" lon="6.71858243493849"><ele>1402.0</ele><time>2026-05-01T13:54:43Z</time></trkpt><trkpt lat="45.07659485317894" lon="6.7186588654176855"><ele>1402.0</ele><time>2026-05-01T13:54:46Z</time></trkpt><trkpt lat="45.07652523515315" lon="6.718738176213899"><ele>1401.5</ele><time>2026-05-01T13:54:50Z</time></trkpt><trkpt lat="45.07644933774511" lon="6.718839161409283"><ele>1401.0</ele><time>2026-05-01T13:54:52Z</time></trkpt><trkpt lat="45.076386185900255" lon="6.718999048716191"><ele>1400.5</ele><time>2026-05-01T13:54:54Z</time></trkpt><trkpt lat="45.07630661101685" lon="6.719121694174107"><ele>1400.0</ele><time>2026-05-01T13:54:56Z</time></trkpt><trkpt lat="45.07619125840008" lon="6.719152683272452"><ele>1400.0</ele><time>2026-05-01T13:54:58Z</time></trkpt><trkpt lat="45.0761180443908" lon="6.71912368997984"><ele>1400.0</ele><time>2026-05-01T13:54:59Z</time></trkpt><trkpt lat="45.076051130323464" lon="6.719086216932016"><ele>1400.0</ele><time>2026-05-01T13:55:00Z</time></trkpt><trkpt lat="45.075987367551114" lon="6.71906951916609"><ele>1400.0</ele><time>2026-05-01T13:55:01Z</time></trkpt><trkpt lat="45.075869812385655" lon="6.719057552586287"><ele>1400.0</ele><time>2026-05-01T13:55:03Z</time></trkpt><trkpt lat="45.07580497158362" lon="6.719052200511376"><ele>1400.0</ele><time>2026-05-01T13:55:04Z</time></trkpt><trkpt lat="45.0757355692254" lon="6.719029825937365"><ele>1396.1666666666667</ele><time>2026-05-01T13:55:06Z</time></trkpt><trkpt lat="45.075668064770596" lon="6.7190688402858605"><ele>1392.3333333333335</ele><time>2026-05-01T13:55:08Z</time></trkpt><trkpt lat="45.07561508947236" lon="6.719121959662384"><ele>1388.5</ele><time>2026-05-01T13:55:09Z</time></trkpt><trkpt lat="45.07555428900511" lon="6.719161516690466"><ele>1384.6666666666667</ele><time>2026-05-01T13:55:10Z</time></trkpt><trkpt lat="45.07545825451441" lon="6.719189837331049"><ele>1380.8333333333333</ele><time>2026-05-01T13:55:12Z</time></trkpt><trkpt lat="45.07537880910033" lon="6.71922432847695"><ele>1377.0</ele><time>2026-05-01T13:55:14Z</time></trkpt><trkpt lat="45.07529814055603" lon="6.719252634261046"><ele>1377.0</ele><time>2026-05-01T13:55:16Z</time></trkpt><trkpt lat="45.07525567643681" lon="6.719331903642057"><ele>1377.0</ele><time>2026-05-01T13:55:18Z</time></trkpt><trkpt lat="45.07527384850169" lon="6.71947332074908"><ele>1377.0</ele><time>2026-05-01T13:55:19.999Z</time></trkpt><trkpt lat="45.07525286490625" lon="6.719568058404137"><ele>1377.0</ele><time>2026-05-01T13:55:20.999Z</time></trkpt><trkpt lat="45.07521471724672" lon="6.719649971074708"><ele>1377.0</ele><time>2026-05-01T13:55:21.999Z</time></trkpt><trkpt lat="45.07517355648317" lon="6.719737373375028"><ele>1377.0</ele><time>2026-05-01T13:55:22.999Z</time></trkpt><trkpt lat="45.07510693070792" lon="6.7198812931761145"><ele>1376.8</ele><time>2026-05-01T13:55:23.999Z</time></trkpt><trkpt lat="45.07505514214497" lon="6.720018298952839"><ele>1376.6</ele><time>2026-05-01T13:55:25.999Z</time></trkpt><trkpt lat="45.07498753444598" lon="6.720080394930087"><ele>1376.3999999999999</ele><time>2026-05-01T13:55:27.999Z</time></trkpt><trkpt lat="45.0748964131203" lon="6.72000518604924"><ele>1376.1999999999998</ele><time>2026-05-01T13:55:29.999Z</time></trkpt><trkpt lat="45.07481794135411" lon="6.720034831071006"><ele>1376.0</ele><time>2026-05-01T13:55:31.999Z</time></trkpt><trkpt lat="45.07474656572697" lon="6.7200663475632485"><ele>1376.0</ele><time>2026-05-01T13:55:32.999Z</time></trkpt><trkpt lat="45.07465240252387" lon="6.72006248625726"><ele>1376.0</ele><time>2026-05-01T13:55:34.999Z</time></trkpt><trkpt lat="45.0745717064122" lon="6.72005772245304"><ele>1376.0</ele><time>2026-05-01T13:55:46.999Z</time></trkpt><trkpt lat="45.07448905356016" lon="6.720137689618763"><ele>1376.0</ele><time>2026-05-01T13:55:48.999Z</time></trkpt><trkpt lat="45.07444053449584" lon="6.720294985172812"><ele>1376.0</ele><time>2026-05-01T13:55:50.999Z</time></trkpt><trkpt lat="45.07441977114165" lon="6.720385573093265"><ele>1378.8</ele><time>2026-05-01T13:55:51.999Z</time></trkpt><trkpt lat="45.074364633308356" lon="6.720495267689644"><ele>1381.6</ele><time>2026-05-01T13:55:53.999Z</time></trkpt><trkpt lat="45.07429502579791" lon="6.7205808976610335"><ele>1384.4</ele><time>2026-05-01T13:55:55.999Z</time></trkpt><trkpt lat="45.074218831288945" lon="6.72063079194485"><ele>1387.2</ele><time>2026-05-01T13:55:57.999Z</time></trkpt><trkpt lat="45.074153408284204" lon="6.720726827670409"><ele>1390.0</ele><time>2026-05-01T13:56:00Z</time></trkpt><trkpt lat="45.074054193868484" lon="6.7208199941191635"><ele>1390.0</ele><time>2026-05-01T13:56:02Z</time></trkpt><trkpt lat="45.073981632514986" lon="6.720977395160254"><ele>1390.0</ele><time>2026-05-01T13:56:04Z</time></trkpt><trkpt lat="45.07392020303338" lon="6.7210909863367725"><ele>1390.0</ele><time>2026-05-01T13:56:06Z</time></trkpt><trkpt lat="45.073850393047" lon="6.721087441583892"><ele>1390.0</ele><time>2026-05-01T13:56:11Z</time></trkpt><trkpt lat="45.073878983213675" lon="6.720961042794184"><ele>1390.0</ele><time>2026-05-01T13:56:14Z</time></trkpt><trkpt lat="45.07394679370324" lon="6.72086965352836"><ele>1390.0</ele><time>2026-05-01T13:57:42.999Z</time></trkpt><trkpt lat="45.0739846947574" lon="6.720789988082314"><ele>1390.0</ele><time>2026-05-01T13:57:52.999Z</time></trkpt><trkpt lat="45.073912567323404" lon="6.7209299806271305"><ele>1390.0</ele><time>2026-05-01T13:58:35Z</time></trkpt><trkpt lat="45.07384104124185" lon="6.721026802858468"><ele>1390.0</ele><time>2026-05-01T13:58:37Z</time></trkpt><trkpt lat="45.07384802751459" lon="6.721118758653887"><ele>1390.0</ele><time>2026-05-01T13:58:39Z</time></trkpt><trkpt lat="45.07389713676049" lon="6.7212346020968825"><ele>1394.5</ele><time>2026-05-01T13:58:41Z</time></trkpt><trkpt lat="45.07389749947758" lon="6.721329302802528"><ele>1399.0</ele><time>2026-05-01T13:58:43Z</time></trkpt><trkpt lat="45.07389616987707" lon="6.721427787054922"><ele>1403.5</ele><time>2026-05-01T13:58:45Z</time></trkpt><trkpt lat="45.07388474177563" lon="6.721526183174981"><ele>1408.0</ele><time>2026-05-01T13:58:48Z</time></trkpt><trkpt lat="45.073830491629984" lon="6.721581114017101"><ele>1412.5</ele><time>2026-05-01T13:58:51Z</time></trkpt><trkpt lat="45.073722479266316" lon="6.721532335791563"><ele>1417.0</ele><time>2026-05-01T13:58:54Z</time></trkpt><trkpt lat="45.07364986976007" lon="6.721475687176539"><ele>1417.0</ele><time>2026-05-01T13:58:56Z</time></trkpt><trkpt lat="45.073525690877204" lon="6.721423542628044"><ele>1417.0</ele><time>2026-05-01T13:58:58Z</time></trkpt><trkpt lat="45.07343665703483" lon="6.7213509274761405"><ele>1417.0</ele><time>2026-05-01T13:59:00Z</time></trkpt><trkpt lat="45.073377425503004" lon="6.721281372937584"><ele>1417.0</ele><time>2026-05-01T13:59:01Z</time></trkpt><trkpt lat="45.073316485061206" lon="6.721230097825635"><ele>1417.0</ele><time>2026-05-01T13:59:02Z</time></trkpt><trkpt lat="45.07321371539258" lon="6.721144221255364"><ele>1414.8</ele><time>2026-05-01T13:59:04Z</time></trkpt><trkpt lat="45.073163019255865" lon="6.721088554308375"><ele>1412.6</ele><time>2026-05-01T13:59:05Z</time></trkpt><trkpt lat="45.07310232049188" lon="6.721052352330372"><ele>1410.3999999999999</ele><time>2026-05-01T13:59:06Z</time></trkpt><trkpt lat="45.07298163821584" lon="6.7210197841814034"><ele>1408.1999999999998</ele><time>2026-05-01T13:59:07.999Z</time></trkpt><trkpt lat="45.07286208567388" lon="6.721038531769206"><ele>1406.0</ele><time>2026-05-01T13:59:09.999Z</time></trkpt><trkpt lat="45.07274203867642" lon="6.721092160298677"><ele>1406.0</ele><time>2026-05-01T13:59:11.999Z</time></trkpt><trkpt lat="45.0726795329978" lon="6.721129466339159"><ele>1406.0</ele><time>2026-05-01T13:59:12.999Z</time></trkpt><trkpt lat="45.072621056809304" lon="6.721179866305714"><ele>1406.0</ele><time>2026-05-01T13:59:13.999Z</time></trkpt><trkpt lat="45.072561165421085" lon="6.7212200133324975"><ele>1406.0</ele><time>2026-05-01T13:59:14.999Z</time></trkpt><trkpt lat="45.0724940030493" lon="6.721259644449276"><ele>1406.0</ele><time>2026-05-01T13:59:15.999Z</time></trkpt><trkpt lat="45.0724291072258" lon="6.7213050314755325"><ele>1406.0</ele><time>2026-05-01T13:59:16.999Z</time></trkpt><trkpt lat="45.072362866734856" lon="6.7213465446536445"><ele>1406.0</ele><time>2026-05-01T13:59:17.999Z</time></trkpt><trkpt lat="45.0722463966139" lon="6.721452238773718"><ele>1402.6666666666667</ele><time>2026-05-01T13:59:19.999Z</time></trkpt><trkpt lat="45.07218002124458" lon="6.721494414035005"><ele>1399.3333333333335</ele><time>2026-05-01T13:59:20.999Z</time></trkpt><trkpt lat="45.07210141300355" lon="6.7215093991648605"><ele>1396.0</ele><time>2026-05-01T13:59:21.999Z</time></trkpt><trkpt lat="45.072030114252414" lon="6.7215423770942495"><ele>1392.6666666666667</ele><time>2026-05-01T13:59:22.999Z</time></trkpt><trkpt lat="45.071974571861034" lon="6.721586898004583"><ele>1389.3333333333333</ele><time>2026-05-01T13:59:23.999Z</time></trkpt><trkpt lat="45.071920052922835" lon="6.721699213310767"><ele>1386.0</ele><time>2026-05-01T13:59:25.999Z</time></trkpt><trkpt lat="45.07187746491724" lon="6.721834164681537"><ele>1385.5</ele><time>2026-05-01T13:59:27.999Z</time></trkpt><trkpt lat="45.07188221299168" lon="6.721932739025278"><ele>1385.0</ele><time>2026-05-01T13:59:28.999Z</time></trkpt><trkpt lat="45.07186050006106" lon="6.722047453603855"><ele>1384.5</ele><time>2026-05-01T13:59:30.999Z</time></trkpt><trkpt lat="45.07180897929557" lon="6.722115057997998"><ele>1384.0</ele><time>2026-05-01T13:59:33.999Z</time></trkpt><trkpt lat="45.07171641417888" lon="6.722143081236067"><ele>1383.5</ele><time>2026-05-01T14:01:51.999Z</time></trkpt><trkpt lat="45.071621440096465" lon="6.72216764767769"><ele>1383.0</ele><time>2026-05-01T14:01:53.999Z</time></trkpt><trkpt lat="45.07151358614735" lon="6.722170412257058"><ele>1383.0</ele><time>2026-05-01T14:01:55.999Z</time></trkpt><trkpt lat="45.07145299176644" lon="6.722124511414999"><ele>1383.0</ele><time>2026-05-01T14:01:56.999Z</time></trkpt><trkpt lat="45.07138940401352" lon="6.722124511411735"><ele>1383.0</ele><time>2026-05-01T14:01:57.999Z</time></trkpt><trkpt lat="45.0713234898529" lon="6.722126000879812"><ele>1383.0</ele><time>2026-05-01T14:01:58.999Z</time></trkpt><trkpt lat="45.071201334398836" lon="6.722140954108086"><ele>1383.0</ele><time>2026-05-01T14:02:00.999Z</time></trkpt><trkpt lat="45.07113708248436" lon="6.722177396616521"><ele>1383.0</ele><time>2026-05-01T14:02:01.999Z</time></trkpt><trkpt lat="45.071078915276686" lon="6.722221996118369"><ele>1383.0</ele><time>2026-05-01T14:02:02.999Z</time></trkpt><trkpt lat="45.07101593126456" lon="6.722278452765574"><ele>1383.0</ele><time>2026-05-01T14:02:03.999Z</time></trkpt><trkpt lat="45.070957440195635" lon="6.722347972122068"><ele>1383.0</ele><time>2026-05-01T14:02:04.999Z</time></trkpt><trkpt lat="45.07087489237112" lon="6.7223824465569155"><ele>1383.0</ele><time>2026-05-01T14:02:05.999Z</time></trkpt><trkpt lat="45.07079992535295" lon="6.722438007533393"><ele>1383.0</ele><time>2026-05-01T14:02:06.999Z</time></trkpt><trkpt lat="45.070744210232796" lon="6.722496335699806"><ele>1383.0</ele><time>2026-05-01T14:02:07.999Z</time></trkpt><trkpt lat="45.07067143243806" lon="6.722595466365854"><ele>1380.4</ele><time>2026-05-01T14:02:09.999Z</time></trkpt><trkpt lat="45.070587696627555" lon="6.722701429129588"><ele>1377.8000000000002</ele><time>2026-05-01T14:02:11.999Z</time></trkpt><trkpt lat="45.070493423018014" lon="6.722774469014044"><ele>1375.2</ele><time>2026-05-01T14:02:13.999Z</time></trkpt><trkpt lat="45.07042843336603" lon="6.722833955674037"><ele>1372.6</ele><time>2026-05-01T14:02:15.999Z</time></trkpt><trkpt lat="45.07035672550526" lon="6.722899326076949"><ele>1370.0</ele><time>2026-05-01T14:02:37.999Z</time></trkpt><trkpt lat="45.07033852544833" lon="6.723035221313907"><ele>1370.0</ele><time>2026-05-01T14:02:38.999Z</time></trkpt><trkpt lat="45.070301612496806" lon="6.723223873176847"><ele>1370.0</ele><time>2026-05-01T14:02:41Z</time></trkpt><trkpt lat="45.070276171577376" lon="6.723332019129848"><ele>1370.0</ele><time>2026-05-01T14:02:42Z</time></trkpt><trkpt lat="45.070243118336734" lon="6.72345680614405"><ele>1370.0</ele><time>2026-05-01T14:02:43Z</time></trkpt><trkpt lat="45.07020938234931" lon="6.723567991155245"><ele>1370.0</ele><time>2026-05-01T14:02:44Z</time></trkpt><trkpt lat="45.07017050330849" lon="6.723680550784212"><ele>1370.0</ele><time>2026-05-01T14:02:45Z</time></trkpt><trkpt lat="45.070124779858844" lon="6.723791107056603"><ele>1370.0</ele><time>2026-05-01T14:02:46Z</time></trkpt><trkpt lat="45.070068373550995" lon="6.723887157166898"><ele>1370.0</ele><time>2026-05-01T14:02:47Z</time></trkpt><trkpt lat="45.07000461119375" lon="6.723972135671071"><ele>1370.0</ele><time>2026-05-01T14:02:48Z</time></trkpt><trkpt lat="45.06993766704077" lon="6.724053984071507"><ele>1370.0</ele><time>2026-05-01T14:02:49Z</time></trkpt><trkpt lat="45.06986881395601" lon="6.724147538611297"><ele>1370.0</ele><time>2026-05-01T14:02:50Z</time></trkpt><trkpt lat="45.06981929897858" lon="6.72426456966571"><ele>1370.0</ele><time>2026-05-01T14:02:51Z</time></trkpt><trkpt lat="45.069762685406005" lon="6.724366737510022"><ele>1370.0</ele><time>2026-05-01T14:02:52Z</time></trkpt><trkpt lat="45.06972012775912" lon="6.724461590858767"><ele>1370.0</ele><time>2026-05-01T14:02:53Z</time></trkpt><trkpt lat="45.06966489923281" lon="6.724566349801771"><ele>1370.0</ele><time>2026-05-01T14:02:53.999Z</time></trkpt><trkpt lat="45.069603843059056" lon="6.724680213624804"><ele>1373.75</ele><time>2026-05-01T14:02:54.999Z</time></trkpt><trkpt lat="45.069554174293415" lon="6.724817303904117"><ele>1377.5</ele><time>2026-05-01T14:02:55.999Z</time></trkpt><trkpt lat="45.06947489207932" lon="6.724959426585499"><ele>1381.25</ele><time>2026-05-01T14:02:56.999Z</time></trkpt><trkpt lat="45.06940564134066" lon="6.7251220671435465"><ele>1385.0</ele><time>2026-05-01T14:02:57.999Z</time></trkpt><trkpt lat="45.06933130306979" lon="6.725288565330535"><ele>1384.5</ele><time>2026-05-01T14:02:58.999Z</time></trkpt><trkpt lat="45.06926488005039" lon="6.72544636225937"><ele>1384.0</ele><time>2026-05-01T14:02:59.999Z</time></trkpt><trkpt lat="45.069204689254256" lon="6.725591589224687"><ele>1383.5</ele><time>2026-05-01T14:03:00.999Z</time></trkpt><trkpt lat="45.06914896271034" lon="6.7257337381546325"><ele>1383.0</ele><time>2026-05-01T14:03:01.999Z</time></trkpt><trkpt lat="45.069100253502036" lon="6.725873993022995"><ele>1383.0</ele><time>2026-05-01T14:03:02.999Z</time></trkpt><trkpt lat="45.06902691936848" lon="6.725982717243968"><ele>1383.0</ele><time>2026-05-01T14:03:03.999Z</time></trkpt><trkpt lat="45.06895360003659" lon="6.726063748325999"><ele>1383.0</ele><time>2026-05-01T14:03:04.999Z</time></trkpt><trkpt lat="45.068873044973394" lon="6.7261445273427345"><ele>1383.0</ele><time>2026-05-01T14:03:05.999Z</time></trkpt><trkpt lat="45.068797824442036" lon="6.726229982560227"><ele>1383.0</ele><time>2026-05-01T14:03:06.999Z</time></trkpt><trkpt lat="45.06871220297043" lon="6.726330747953753"><ele>1387.6000000000001</ele><time>2026-05-01T14:03:07.999Z</time></trkpt><trkpt lat="45.06864300072125" lon="6.7264406382694455"><ele>1392.2</ele><time>2026-05-01T14:03:08.999Z</time></trkpt><trkpt lat="45.06855157923573" lon="6.726505969685602"><ele>1396.8</ele><time>2026-05-01T14:03:09.999Z</time></trkpt><trkpt lat="45.06846989160032" lon="6.7266024818003824"><ele>1401.4</ele><time>2026-05-01T14:03:10.999Z</time></trkpt><trkpt lat="45.0683968595875" lon="6.7266920236644845"><ele>1406.0</ele><time>2026-05-01T14:03:11.999Z</time></trkpt><trkpt lat="45.06833501073818" lon="6.7268052759004195"><ele>1404.8</ele><time>2026-05-01T14:03:12.999Z</time></trkpt><trkpt lat="45.06826504998373" lon="6.726916580740747"><ele>1403.6</ele><time>2026-05-01T14:03:13.999Z</time></trkpt><trkpt lat="45.06818947839587" lon="6.7270382408122815"><ele>1402.4</ele><time>2026-05-01T14:03:14.999Z</time></trkpt><trkpt lat="45.06812689961711" lon="6.727154075978369"><ele>1401.2</ele><time>2026-05-01T14:03:15.999Z</time></trkpt><trkpt lat="45.06806355556316" lon="6.727282679408323"><ele>1400.0</ele><time>2026-05-01T14:03:16.999Z</time></trkpt><trkpt lat="45.068009515206" lon="6.727424278879325"><ele>1400.0</ele><time>2026-05-01T14:03:17.999Z</time></trkpt><trkpt lat="45.0679613015999" lon="6.7275845348128485"><ele>1400.0</ele><time>2026-05-01T14:03:18.999Z</time></trkpt><trkpt lat="45.06792872381074" lon="6.727748639678079"><ele>1400.0</ele><time>2026-05-01T14:03:19.999Z</time></trkpt><trkpt lat="45.067886516631305" lon="6.727911812313263"><ele>1400.0</ele><time>2026-05-01T14:03:20.999Z</time></trkpt><trkpt lat="45.067857945097465" lon="6.728098742689056"><ele>1404.5</ele><time>2026-05-01T14:03:21.999Z</time></trkpt><trkpt lat="45.067828353603474" lon="6.728290923755185"><ele>1409.0</ele><time>2026-05-01T14:03:22.999Z</time></trkpt><trkpt lat="45.06779402968587" lon="6.728493926554287"><ele>1413.5</ele><time>2026-05-01T14:03:23.999Z</time></trkpt><trkpt lat="45.067750184709816" lon="6.7286819676162395"><ele>1418.0</ele><time>2026-05-01T14:03:24.999Z</time></trkpt><trkpt lat="45.0677112147924" lon="6.72881900562536"><ele>1420.6666666666667</ele><time>2026-05-01T14:03:25.999Z</time></trkpt><trkpt lat="45.067671061321015" lon="6.728935564601419"><ele>1423.3333333333335</ele><time>2026-05-01T14:03:26.999Z</time></trkpt><trkpt lat="45.067644141783624" lon="6.729041538805721"><ele>1426.0</ele><time>2026-05-01T14:03:27.999Z</time></trkpt><trkpt lat="45.06769514132181" lon="6.729190676217546"><ele>1428.6666666666667</ele><time>2026-05-01T14:03:29.999Z</time></trkpt><trkpt lat="45.06777503901077" lon="6.729207537049465"><ele>1431.3333333333333</ele><time>2026-05-01T14:03:30.999Z</time></trkpt><trkpt lat="45.06782235721539" lon="6.729143376941773"><ele>1434.0</ele><time>2026-05-01T14:03:31.999Z</time></trkpt><trkpt lat="45.06785810316851" lon="6.729049719339295"><ele>1434.0</ele><time>2026-05-01T14:03:32.999Z</time></trkpt><trkpt lat="45.06791086138931" lon="6.728923385293417"><ele>1434.0</ele><time>2026-05-01T14:03:33.999Z</time></trkpt><trkpt lat="45.067970687189096" lon="6.728772401358534"><ele>1434.0</ele><time>2026-05-01T14:03:34.999Z</time></trkpt><trkpt lat="45.068027329894235" lon="6.728595105449432"><ele>1434.0</ele><time>2026-05-01T14:03:35.999Z</time></trkpt><trkpt lat="45.06807408086512" lon="6.728429630507119"><ele>1430.0</ele><time>2026-05-01T14:03:36.999Z</time></trkpt><trkpt lat="45.068118845810694" lon="6.728251701494127"><ele>1426.0</ele><time>2026-05-01T14:03:37.999Z</time></trkpt><trkpt lat="45.06815573971715" lon="6.728093617816584"><ele>1422.0</ele><time>2026-05-01T14:03:38.999Z</time></trkpt><trkpt lat="45.0682125627202" lon="6.727976808427013"><ele>1418.0</ele><time>2026-05-01T14:03:39.999Z</time></trkpt><trkpt lat="45.068282960092276" lon="6.727865983554485"><ele>1421.5</ele><time>2026-05-01T14:03:40.999Z</time></trkpt><trkpt lat="45.06838575550581" lon="6.7277673363899275"><ele>1425.0</ele><time>2026-05-01T14:03:41.999Z</time></trkpt><trkpt lat="45.0685063973931" lon="6.727676961333648"><ele>1428.5</ele><time>2026-05-01T14:03:42.999Z</time></trkpt><trkpt lat="45.068660082643454" lon="6.727626948991995"><ele>1432.0</ele><time>2026-05-01T14:03:43.999Z</time></trkpt><trkpt lat="45.068812377108756" lon="6.727555611352612"><ele>1432.0</ele><time>2026-05-01T14:03:44.999Z</time></trkpt><trkpt lat="45.06895891368749" lon="6.727477609932358"><ele>1432.0</ele><time>2026-05-01T14:03:45.999Z</time></trkpt><trkpt lat="45.06909485102607" lon="6.7274074304162985"><ele>1432.0</ele><time>2026-05-01T14:03:46.999Z</time></trkpt><trkpt lat="45.06925183815253" lon="6.727327030652644"><ele>1440.0</ele><time>2026-05-01T14:03:47.999Z</time></trkpt><trkpt lat="45.06939823320995" lon="6.727282172739441"><ele>1448.0</ele><time>2026-05-01T14:03:48.999Z</time></trkpt><trkpt lat="45.0695415460188" lon="6.727221580062461"><ele>1456.0</ele><time>2026-05-01T14:03:49.999Z</time></trkpt><trkpt lat="45.06968440055762" lon="6.72715529909419"><ele>1456.0</ele><time>2026-05-01T14:03:50.999Z</time></trkpt><trkpt lat="45.06982971217417" lon="6.727093373305333"><ele>1456.0</ele><time>2026-05-01T14:03:51.999Z</time></trkpt><trkpt lat="45.06997227820725" lon="6.727051395918808"><ele>1456.0</ele><time>2026-05-01T14:03:52.999Z</time></trkpt><trkpt lat="45.07009315380732" lon="6.726977262542871"><ele>1456.0</ele><time>2026-05-01T14:03:53.999Z</time></trkpt><trkpt lat="45.070198594685124" lon="6.726853754742036"><ele>1455.3333333333333</ele><time>2026-05-01T14:03:54.999Z</time></trkpt><trkpt lat="45.07030454179041" lon="6.726711010195087"><ele>1454.6666666666667</ele><time>2026-05-01T14:03:55.999Z</time></trkpt><trkpt lat="45.07041766533706" lon="6.72656683716651"><ele>1454.0</ele><time>2026-05-01T14:03:56.999Z</time></trkpt><trkpt lat="45.07054850418312" lon="6.726431113086353"><ele>1454.0</ele><time>2026-05-01T14:03:57.999Z</time></trkpt><trkpt lat="45.07067398740179" lon="6.726298460910027"><ele>1454.0</ele><time>2026-05-01T14:03:58.999Z</time></trkpt><trkpt lat="45.070794263859916" lon="6.726161360105037"><ele>1454.0</ele><time>2026-05-01T14:03:59.999Z</time></trkpt><trkpt lat="45.070897504173665" lon="6.726034905867529"><ele>1454.0</ele><time>2026-05-01T14:04:00.999Z</time></trkpt><trkpt lat="45.07099435703198" lon="6.725937402087108"><ele>1454.75</ele><time>2026-05-01T14:04:01.999Z</time></trkpt><trkpt lat="45.07109983099057" lon="6.7258519830125225"><ele>1455.5</ele><time>2026-05-01T14:04:02.999Z</time></trkpt><trkpt lat="45.07122781073603" lon="6.7258246697036554"><ele>1456.25</ele><time>2026-05-01T14:04:03.999Z</time></trkpt><trkpt lat="45.07136965105848" lon="6.72577994341043"><ele>1457.0</ele><time>2026-05-01T14:04:04.999Z</time></trkpt><trkpt lat="45.07150130942697" lon="6.7257182364607155"><ele>1459.25</ele><time>2026-05-01T14:04:05.999Z</time></trkpt><trkpt lat="45.07162482318459" lon="6.725602666867416"><ele>1461.5</ele><time>2026-05-01T14:04:06.999Z</time></trkpt><trkpt lat="45.07172922913933" lon="6.72544092856682"><ele>1463.75</ele><time>2026-05-01T14:04:07.999Z</time></trkpt><trkpt lat="45.07182873353176" lon="6.725292100828768"><ele>1466.0</ele><time>2026-05-01T14:04:08.999Z</time></trkpt><trkpt lat="45.07193772500874" lon="6.725177107859358"><ele>1466.0</ele><time>2026-05-01T14:04:09.999Z</time></trkpt><trkpt lat="45.07205948718423" lon="6.725084694451028"><ele>1466.0</ele><time>2026-05-01T14:04:10.999Z</time></trkpt><trkpt lat="45.072172280475016" lon="6.725002158030055"><ele>1466.0</ele><time>2026-05-01T14:04:11.999Z</time></trkpt><trkpt lat="45.07227929572492" lon="6.724913657579027"><ele>1466.0</ele><time>2026-05-01T14:04:12.999Z</time></trkpt><trkpt lat="45.072384194647775" lon="6.7248316351461"><ele>1470.6</ele><time>2026-05-01T14:04:13.999Z</time></trkpt><trkpt lat="45.07247974645314" lon="6.724734800163068"><ele>1475.1999999999998</ele><time>2026-05-01T14:04:14.999Z</time></trkpt><trkpt lat="45.07255939548784" lon="6.724656590172581"><ele>1479.8000000000002</ele><time>2026-05-01T14:04:15.999Z</time></trkpt><trkpt lat="45.07263386306614" lon="6.7246235381452495"><ele>1484.4</ele><time>2026-05-01T14:04:16.999Z</time></trkpt><trkpt lat="45.07269732741966" lon="6.724656996624502"><ele>1489.0</ele><time>2026-05-01T14:04:17.999Z</time></trkpt><trkpt lat="45.07272285362911" lon="6.724861877942007"><ele>1489.0</ele><time>2026-05-01T14:04:19.999Z</time></trkpt><trkpt lat="45.072678583406685" lon="6.724976069235508"><ele>1489.0</ele><time>2026-05-01T14:04:20.999Z</time></trkpt><trkpt lat="45.072617906867215" lon="6.725083545750652"><ele>1489.0</ele><time>2026-05-01T14:04:21.999Z</time></trkpt><trkpt lat="45.07254392626852" lon="6.725211015965337"><ele>1489.0</ele><time>2026-05-01T14:04:22.999Z</time></trkpt><trkpt lat="45.07246490809178" lon="6.725331784983041"><ele>1489.0</ele><time>2026-05-01T14:04:23.999Z</time></trkpt><trkpt lat="45.07237307102077" lon="6.725442586644898"><ele>1488.0</ele><time>2026-05-01T14:04:24.999Z</time></trkpt><trkpt lat="45.07227569845618" lon="6.725592236528349"><ele>1487.0</ele><time>2026-05-01T14:04:25.999Z</time></trkpt><trkpt lat="45.07220039036252" lon="6.725805033574703"><ele>1486.0</ele><time>2026-05-01T14:04:26.999Z</time></trkpt><trkpt lat="45.07211500256507" lon="6.725993922201768"><ele>1493.3333333333333</ele><time>2026-05-01T14:04:27.999Z</time></trkpt><trkpt lat="45.072011395221715" lon="6.726144843857447"><ele>1500.6666666666667</ele><time>2026-05-01T14:04:28.999Z</time></trkpt><trkpt lat="45.07187826533689" lon="6.726274603527123"><ele>1508.0</ele><time>2026-05-01T14:04:29.999Z</time></trkpt><trkpt lat="45.071750725725956" lon="6.726441765915431"><ele>1508.0</ele><time>2026-05-01T14:04:30.999Z</time></trkpt><trkpt lat="45.07161699615482" lon="6.726668221504923"><ele>1508.0</ele><time>2026-05-01T14:04:31.999Z</time></trkpt><trkpt lat="45.071507764241666" lon="6.7268868883270905"><ele>1508.0</ele><time>2026-05-01T14:04:32.999Z</time></trkpt><trkpt lat="45.07140260816007" lon="6.727080055362805"><ele>1507.0</ele><time>2026-05-01T14:04:33.999Z</time></trkpt><trkpt lat="45.07129673032787" lon="6.727276484050338"><ele>1506.0</ele><time>2026-05-01T14:04:34.999Z</time></trkpt><trkpt lat="45.071189720694015" lon="6.727488239189713"><ele>1505.0</ele><time>2026-05-01T14:04:35.999Z</time></trkpt><trkpt lat="45.071089800806426" lon="6.727696885557735"><ele>1504.3333333333335</ele><time>2026-05-01T14:04:36.999Z</time></trkpt><trkpt lat="45.070973251347496" lon="6.727905208777066"><ele>1503.6666666666667</ele><time>2026-05-01T14:04:37.999Z</time></trkpt><trkpt lat="45.07085651920502" lon="6.728105932720522"><ele>1503.0</ele><time>2026-05-01T14:04:38.999Z</time></trkpt><trkpt lat="45.07073612736329" lon="6.72833589390373"><ele>1509.3333333333333</ele><time>2026-05-01T14:04:39.999Z</time></trkpt><trkpt lat="45.07062137325964" lon="6.728598996094106"><ele>1515.6666666666665</ele><time>2026-05-01T14:04:40.999Z</time></trkpt><trkpt lat="45.07049614355418" lon="6.728833489103101"><ele>1522.0</ele><time>2026-05-01T14:04:41.999Z</time></trkpt><trkpt lat="45.070361339518556" lon="6.729057687510505"><ele>1522.0</ele><time>2026-05-01T14:04:42.999Z</time></trkpt><trkpt lat="45.07025205884874" lon="6.729240012566684"><ele>1522.0</ele><time>2026-05-01T14:04:43.999Z</time></trkpt><trkpt lat="45.07015666459097" lon="6.729427865657933"><ele>1522.0</ele><time>2026-05-01T14:04:44.999Z</time></trkpt><trkpt lat="45.070061744984926" lon="6.729629172109707"><ele>1519.0</ele><time>2026-05-01T14:04:45.999Z</time></trkpt><trkpt lat="45.06995026806093" lon="6.729815501115683"><ele>1516.0</ele><time>2026-05-01T14:04:46.999Z</time></trkpt><trkpt lat="45.06983543560049" lon="6.729998404144805"><ele>1513.0</ele><time>2026-05-01T14:04:47.999Z</time></trkpt><trkpt lat="45.06973151516286" lon="6.730178589856198"><ele>1517.0</ele><time>2026-05-01T14:04:48.999Z</time></trkpt><trkpt lat="45.06965828236881" lon="6.730344344250357"><ele>1521.0</ele><time>2026-05-01T14:04:49.999Z</time></trkpt><trkpt lat="45.06958859294436" lon="6.730533057314706"><ele>1525.0</ele><time>2026-05-01T14:04:50.999Z</time></trkpt><trkpt lat="45.06957308351211" lon="6.730662658838976"><ele>1529.0</ele><time>2026-05-01T14:04:51.999Z</time></trkpt><trkpt lat="45.06958091464346" lon="6.73076159037937"><ele>1529.0</ele><time>2026-05-01T14:04:52.999Z</time></trkpt><trkpt lat="45.069583874084195" lon="6.73092944556705"><ele>1529.0</ele><time>2026-05-01T14:04:53.999Z</time></trkpt><trkpt lat="45.069586357148225" lon="6.731067908296365"><ele>1529.0</ele><time>2026-05-01T14:04:54.999Z</time></trkpt><trkpt lat="45.069558805291685" lon="6.731161450819744"><ele>1529.0</ele><time>2026-05-01T14:04:55.999Z</time></trkpt><trkpt lat="45.06948284207809" lon="6.731246767982951"><ele>1529.0</ele><time>2026-05-01T14:04:56.999Z</time></trkpt><trkpt lat="45.06941329484303" lon="6.73131520830757"><ele>1526.8000000000002</ele><time>2026-05-01T14:04:57.999Z</time></trkpt><trkpt lat="45.06935959055096" lon="6.7314153084235615"><ele>1524.6000000000001</ele><time>2026-05-01T14:04:58.999Z</time></trkpt><trkpt lat="45.06932454657016" lon="6.731540042339669"><ele>1522.4</ele><time>2026-05-01T14:04:59.999Z</time></trkpt><trkpt lat="45.069282695839696" lon="6.731681759313246"><ele>1520.2</ele><time>2026-05-01T14:05:00.999Z</time></trkpt><trkpt lat="45.06920652823022" lon="6.731811497309433"><ele>1518.0</ele><time>2026-05-01T14:05:01.999Z</time></trkpt><trkpt lat="45.06910818219537" lon="6.731876121249101"><ele>1522.0</ele><time>2026-05-01T14:05:02.999Z</time></trkpt><trkpt lat="45.06900073133702" lon="6.7319683223746924"><ele>1526.0</ele><time>2026-05-01T14:05:03.999Z</time></trkpt><trkpt lat="45.06893467120058" lon="6.732036735147023"><ele>1530.0</ele><time>2026-05-01T14:05:04.999Z</time></trkpt><trkpt lat="45.06887904571652" lon="6.732145802108571"><ele>1534.0</ele><time>2026-05-01T14:05:05.999Z</time></trkpt><trkpt lat="45.06883798308055" lon="6.732235189046981"><ele>1538.0</ele><time>2026-05-01T14:05:06.999Z</time></trkpt><trkpt lat="45.06879101538247" lon="6.732376137955104"><ele>1538.0</ele><time>2026-05-01T14:05:08.999Z</time></trkpt><trkpt lat="45.06874794823258" lon="6.732545873784388"><ele>1538.0</ele><time>2026-05-01T14:05:10.999Z</time></trkpt><trkpt lat="45.068724921848926" lon="6.732653413832878"><ele>1538.0</ele><time>2026-05-01T14:05:11.999Z</time></trkpt><trkpt lat="45.068698430447014" lon="6.732786199425315"><ele>1538.0</ele><time>2026-05-01T14:05:12.999Z</time></trkpt><trkpt lat="45.06867243889086" lon="6.732927583294984"><ele>1538.0</ele><time>2026-05-01T14:05:13.999Z</time></trkpt><trkpt lat="45.06865929323296" lon="6.733082387107826"><ele>1541.2</ele><time>2026-05-01T14:05:14.999Z</time></trkpt><trkpt lat="45.06862648541335" lon="6.733222417671682"><ele>1544.4</ele><time>2026-05-01T14:05:15.999Z</time></trkpt><trkpt lat="45.06857550143795" lon="6.733323224656374"><ele>1547.6000000000001</ele><time>2026-05-01T14:05:16.999Z</time></trkpt><trkpt lat="45.06852186931988" lon="6.7333962034019414"><ele>1550.8000000000002</ele><time>2026-05-01T14:05:17.999Z</time></trkpt><trkpt lat="45.06844884930176" lon="6.733470451780726"><ele>1554.0</ele><time>2026-05-01T14:05:18.999Z</time></trkpt><trkpt lat="45.06837673141097" lon="6.733563523085281"><ele>1551.0</ele><time>2026-05-01T14:05:19.999Z</time></trkpt><trkpt lat="45.06830198004839" lon="6.733669386764369"><ele>1548.0</ele><time>2026-05-01T14:05:20.999Z</time></trkpt><trkpt lat="45.06820852354314" lon="6.733777507347952"><ele>1545.0</ele><time>2026-05-01T14:05:21.999Z</time></trkpt><trkpt lat="45.0681093504651" lon="6.733876622143673"><ele>1542.0</ele><time>2026-05-01T14:05:22.999Z</time></trkpt><trkpt lat="45.068016215752955" lon="6.733956736634516"><ele>1542.0</ele><time>2026-05-01T14:05:23.999Z</time></trkpt><trkpt lat="45.06795012783014" lon="6.734054744091901"><ele>1542.0</ele><time>2026-05-01T14:05:24.999Z</time></trkpt><trkpt lat="45.06790645752168" lon="6.734145916848757"><ele>1542.0</ele><time>2026-05-01T14:05:25.999Z</time></trkpt><trkpt lat="45.067900921118024" lon="6.734247186191484"><ele>1542.0</ele><time>2026-05-01T14:05:26.999Z</time></trkpt><trkpt lat="45.067894259702065" lon="6.73435506947143"><ele>1542.0</ele><time>2026-05-01T14:05:27.999Z</time></trkpt><trkpt lat="45.06787467788622" lon="6.734459923299604"><ele>1542.0</ele><time>2026-05-01T14:05:28.999Z</time></trkpt><trkpt lat="45.06786014512868" lon="6.73457392045056"><ele>1544.6</ele><time>2026-05-01T14:05:29.999Z</time></trkpt><trkpt lat="45.06783923478508" lon="6.7346939112814015"><ele>1547.1999999999998</ele><time>2026-05-01T14:05:30.999Z</time></trkpt><trkpt lat="45.06780216635509" lon="6.734819820068766"><ele>1549.8</ele><time>2026-05-01T14:05:31.999Z</time></trkpt><trkpt lat="45.067775624933724" lon="6.734954544348337"><ele>1552.4</ele><time>2026-05-01T14:05:32.999Z</time></trkpt><trkpt lat="45.067750380633385" lon="6.735092977762778"><ele>1555.0</ele><time>2026-05-01T14:05:33.999Z</time></trkpt><trkpt lat="45.06772630737047" lon="6.735247341922486"><ele>1557.75</ele><time>2026-05-01T14:05:34.999Z</time></trkpt><trkpt lat="45.06769022096536" lon="6.735405515775026"><ele>1560.5</ele><time>2026-05-01T14:05:35.999Z</time></trkpt><trkpt lat="45.06767016349434" lon="6.7355888411975995"><ele>1563.25</ele><time>2026-05-01T14:05:36.999Z</time></trkpt><trkpt lat="45.06764528508663" lon="6.735758730512798"><ele>1566.0</ele><time>2026-05-01T14:05:37.999Z</time></trkpt><trkpt lat="45.06761946526413" lon="6.735927265911355"><ele>1569.0</ele><time>2026-05-01T14:05:38.999Z</time></trkpt><trkpt lat="45.06759101016398" lon="6.736125925559006"><ele>1572.0</ele><time>2026-05-01T14:05:39.999Z</time></trkpt><trkpt lat="45.067563172653514" lon="6.736365074856027"><ele>1575.0</ele><time>2026-05-01T14:05:40.999Z</time></trkpt><trkpt lat="45.06755722973214" lon="6.73662226929081"><ele>1575.0</ele><time>2026-05-01T14:05:41.999Z</time></trkpt><trkpt lat="45.067554582288174" lon="6.736838940009879"><ele>1575.0</ele><time>2026-05-01T14:05:42.999Z</time></trkpt><trkpt lat="45.06754091940578" lon="6.737057504028531"><ele>1575.0</ele><time>2026-05-01T14:05:43.999Z</time></trkpt><trkpt lat="45.06753611395454" lon="6.7372797242480615"><ele>1577.6666666666665</ele><time>2026-05-01T14:05:44.999Z</time></trkpt><trkpt lat="45.067527567580754" lon="6.737508305066649"><ele>1580.3333333333333</ele><time>2026-05-01T14:05:45.999Z</time></trkpt><trkpt lat="45.0675249618082" lon="6.7377398492271965"><ele>1583.0</ele><time>2026-05-01T14:05:46.999Z</time></trkpt><trkpt lat="45.06752589001218" lon="6.737972743071403"><ele>1584.6666666666665</ele><time>2026-05-01T14:05:47.999Z</time></trkpt><trkpt lat="45.067530157225974" lon="6.738213922896173"><ele>1586.3333333333335</ele><time>2026-05-01T14:05:48.999Z</time></trkpt><trkpt lat="45.067515993100855" lon="6.738465826377359"><ele>1588.0</ele><time>2026-05-01T14:05:49.999Z</time></trkpt><trkpt lat="45.06751563503646" lon="6.738690446824596"><ele>1590.0</ele><time>2026-05-01T14:05:50.999Z</time></trkpt><trkpt lat="45.067528860687105" lon="6.738913891905688"><ele>1592.0</ele><time>2026-05-01T14:05:51.999Z</time></trkpt><trkpt lat="45.06752433229196" lon="6.739137579991561"><ele>1594.0</ele><time>2026-05-01T14:05:52.999Z</time></trkpt><trkpt lat="45.06750434337323" lon="6.739367269122311"><ele>1593.4</ele><time>2026-05-01T14:05:53.999Z</time></trkpt><trkpt lat="45.067498584199434" lon="6.739573228490149"><ele>1592.8000000000002</ele><time>2026-05-01T14:05:54.999Z</time></trkpt><trkpt lat="45.067498870503655" lon="6.739741032942074"><ele>1592.1999999999998</ele><time>2026-05-01T14:05:55.999Z</time></trkpt><trkpt lat="45.067522119126885" lon="6.739880899841606"><ele>1591.6</ele><time>2026-05-01T14:05:56.999Z</time></trkpt><trkpt lat="45.06753127484505" lon="6.739997576206781"><ele>1591.0</ele><time>2026-05-01T14:05:57.999Z</time></trkpt><trkpt lat="45.067557312140636" lon="6.740098836815222"><ele>1591.0000000000002</ele><time>2026-05-01T14:05:58.999Z</time></trkpt><trkpt lat="45.067620347575094" lon="6.7401508357486595"><ele>1591.0</ele><time>2026-05-01T14:05:59.999Z</time></trkpt><trkpt lat="45.06769625461297" lon="6.7401468624990235"><ele>1591.0</ele><time>2026-05-01T14:06:00.999Z</time></trkpt><trkpt lat="45.0677587788494" lon="6.740069214405654"><ele>1591.0</ele><time>2026-05-01T14:06:01.999Z</time></trkpt><trkpt lat="45.06778446496699" lon="6.739959451406959"><ele>1591.0000000000002</ele><time>2026-05-01T14:06:02.999Z</time></trkpt><trkpt lat="45.06781402597043" lon="6.7398304595814675"><ele>1591.0</ele><time>2026-05-01T14:06:03.999Z</time></trkpt><trkpt lat="45.067854937025665" lon="6.73968302157346"><ele>1591.0</ele><time>2026-05-01T14:06:04.999Z</time></trkpt><trkpt lat="45.06790578255815" lon="6.7395054277143345"><ele>1591.0</ele><time>2026-05-01T14:06:05.999Z</time></trkpt><trkpt lat="45.06796036048855" lon="6.739322378046988"><ele>1591.0</ele><time>2026-05-01T14:06:06.999Z</time></trkpt><trkpt lat="45.06802417406183" lon="6.739141632222249"><ele>1591.0</ele><time>2026-05-01T14:06:07.999Z</time></trkpt><trkpt lat="45.06807379393161" lon="6.7389264651348375"><ele>1592.0</ele><time>2026-05-01T14:06:08.999Z</time></trkpt><trkpt lat="45.06809625398653" lon="6.738669837613796"><ele>1593.0</ele><time>2026-05-01T14:06:09.999Z</time></trkpt><trkpt lat="45.06811440766589" lon="6.738426528273598"><ele>1594.0</ele><time>2026-05-01T14:06:10.999Z</time></trkpt><trkpt lat="45.068147295145316" lon="6.7382180465571535"><ele>1592.5</ele><time>2026-05-01T14:06:11.999Z</time></trkpt><trkpt lat="45.0681905001016" lon="6.7380190843815475"><ele>1591.0</ele><time>2026-05-01T14:06:12.999Z</time></trkpt><trkpt lat="45.06823235938419" lon="6.7378538919409605"><ele>1589.5</ele><time>2026-05-01T14:06:13.999Z</time></trkpt><trkpt lat="45.068267809829145" lon="6.737713642652198"><ele>1588.0</ele><time>2026-05-01T14:06:14.999Z</time></trkpt><trkpt lat="45.068316664787794" lon="6.737569364876066"><ele>1597.5</ele><time>2026-05-01T14:06:15.999Z</time></trkpt><trkpt lat="45.06836833164269" lon="6.737420899517537"><ele>1607.0</ele><time>2026-05-01T14:06:16.999Z</time></trkpt><trkpt lat="45.0684320471524" lon="6.737282621710959"><ele>1616.5</ele><time>2026-05-01T14:06:17.999Z</time></trkpt><trkpt lat="45.068514680707715" lon="6.737154467832096"><ele>1626.0</ele><time>2026-05-01T14:06:18.999Z</time></trkpt><trkpt lat="45.068604750714734" lon="6.737028608596205"><ele>1626.0</ele><time>2026-05-01T14:06:19.999Z</time></trkpt><trkpt lat="45.06868646539632" lon="6.736901228128225"><ele>1626.0</ele><time>2026-05-01T14:06:20.999Z</time></trkpt><trkpt lat="45.06876168240235" lon="6.736790869573498"><ele>1626.0</ele><time>2026-05-01T14:06:21.999Z</time></trkpt><trkpt lat="45.06884740868552" lon="6.73670349913573"><ele>1626.0</ele><time>2026-05-01T14:06:22.999Z</time></trkpt><trkpt lat="45.06894709741087" lon="6.736638770692714"><ele>1626.0</ele><time>2026-05-01T14:06:23.999Z</time></trkpt><trkpt lat="45.069056445979456" lon="6.736573344180905"><ele>1630.75</ele><time>2026-05-01T14:06:24.999Z</time></trkpt><trkpt lat="45.06917447302287" lon="6.736491938495649"><ele>1635.5</ele><time>2026-05-01T14:06:25.999Z</time></trkpt><trkpt lat="45.069301433786364" lon="6.73639564474386"><ele>1640.25</ele><time>2026-05-01T14:06:26.999Z</time></trkpt><trkpt lat="45.06943451704283" lon="6.736295763001645"><ele>1645.0</ele><time>2026-05-01T14:06:27.999Z</time></trkpt><trkpt lat="45.06957897986405" lon="6.736201467768174"><ele>1647.6666666666667</ele><time>2026-05-01T14:06:28.999Z</time></trkpt><trkpt lat="45.06970796746795" lon="6.736050347526016"><ele>1650.3333333333335</ele><time>2026-05-01T14:06:29.999Z</time></trkpt><trkpt lat="45.069839894032775" lon="6.735902314925189"><ele>1653.0</ele><time>2026-05-01T14:06:30.999Z</time></trkpt><trkpt lat="45.06996829717703" lon="6.735756832937519"><ele>1653.0</ele><time>2026-05-01T14:06:31.999Z</time></trkpt><trkpt lat="45.07009815820757" lon="6.735623881464194"><ele>1653.0</ele><time>2026-05-01T14:06:32.999Z</time></trkpt><trkpt lat="45.0702481729853" lon="6.7354639150226605"><ele>1653.0</ele><time>2026-05-01T14:06:33.999Z</time></trkpt><trkpt lat="45.0704079671568" lon="6.735293944370308"><ele>1647.0</ele><time>2026-05-01T14:06:34.999Z</time></trkpt><trkpt lat="45.070561813416475" lon="6.735128819217913"><ele>1641.0</ele><time>2026-05-01T14:06:36Z</time></trkpt><trkpt lat="45.070697460680044" lon="6.734964982960435"><ele>1635.0</ele><time>2026-05-01T14:06:37Z</time></trkpt><trkpt lat="45.07080637331946" lon="6.734801975303781"><ele>1640.5</ele><time>2026-05-01T14:06:38Z</time></trkpt><trkpt lat="45.07090161495997" lon="6.734635609479167"><ele>1646.0</ele><time>2026-05-01T14:06:39Z</time></trkpt><trkpt lat="45.070972504699846" lon="6.734447851989644"><ele>1651.5</ele><time>2026-05-01T14:06:40Z</time></trkpt><trkpt lat="45.07103468062553" lon="6.734266642650788"><ele>1657.0</ele><time>2026-05-01T14:06:41Z</time></trkpt><trkpt lat="45.07108570609057" lon="6.734112343107646"><ele>1657.0</ele><time>2026-05-01T14:06:42Z</time></trkpt><trkpt lat="45.07113779475461" lon="6.733972531283693"><ele>1657.0</ele><time>2026-05-01T14:06:43Z</time></trkpt><trkpt lat="45.07122263375874" lon="6.733843406178274"><ele>1657.0</ele><time>2026-05-01T14:06:44Z</time></trkpt><trkpt lat="45.07131851961469" lon="6.733711317499272"><ele>1657.0</ele><time>2026-05-01T14:06:45Z</time></trkpt><trkpt lat="45.07143218914109" lon="6.733571299139701"><ele>1653.3333333333335</ele><time>2026-05-01T14:06:46Z</time></trkpt><trkpt lat="45.071545507415216" lon="6.73338372934365"><ele>1649.6666666666665</ele><time>2026-05-01T14:06:47Z</time></trkpt><trkpt lat="45.07167246334089" lon="6.7331950999049734"><ele>1646.0</ele><time>2026-05-01T14:06:48Z</time></trkpt><trkpt lat="45.07181914298109" lon="6.73299442455206"><ele>1651.6666666666665</ele><time>2026-05-01T14:06:49Z</time></trkpt><trkpt lat="45.07195606112042" lon="6.732798958721077"><ele>1657.3333333333335</ele><time>2026-05-01T14:06:50Z</time></trkpt><trkpt lat="45.07206936710203" lon="6.732644685532362"><ele>1663.0</ele><time>2026-05-01T14:06:51Z</time></trkpt><trkpt lat="45.072160166463405" lon="6.732485322903093"><ele>1663.0</ele><time>2026-05-01T14:06:52Z</time></trkpt><trkpt lat="45.07224568471309" lon="6.732331352401404"><ele>1663.0</ele><time>2026-05-01T14:06:53Z</time></trkpt><trkpt lat="45.07231925865435" lon="6.7322103389666355"><ele>1663.0</ele><time>2026-05-01T14:06:54Z</time></trkpt><trkpt lat="45.07240188450757" lon="6.732104406491281"><ele>1663.0</ele><time>2026-05-01T14:06:55Z</time></trkpt><trkpt lat="45.072504051680845" lon="6.73197746050753"><ele>1668.3333333333335</ele><time>2026-05-01T14:06:56Z</time></trkpt><trkpt lat="45.07265272784315" lon="6.731854626116072"><ele>1673.6666666666665</ele><time>2026-05-01T14:06:57Z</time></trkpt><trkpt lat="45.07279218078523" lon="6.73175232425435"><ele>1679.0</ele><time>2026-05-01T14:06:58Z</time></trkpt><trkpt lat="45.07292928180656" lon="6.731680733375968"><ele>1679.0</ele><time>2026-05-01T14:06:59Z</time></trkpt><trkpt lat="45.07304928700313" lon="6.731613004522025"><ele>1679.0</ele><time>2026-05-01T14:07:00Z</time></trkpt><trkpt lat="45.073145768047" lon="6.731543525889375"><ele>1679.0</ele><time>2026-05-01T14:07:01Z</time></trkpt><trkpt lat="45.0732236811226" lon="6.7315113346585385"><ele>1679.0</ele><time>2026-05-01T14:07:02Z</time></trkpt><trkpt lat="45.07328897006351" lon="6.731545500831837"><ele>1679.0</ele><time>2026-05-01T14:07:03Z</time></trkpt><trkpt lat="45.07327714527758" lon="6.731635897651809"><ele>1679.0</ele><time>2026-05-01T14:07:05Z</time></trkpt><trkpt lat="45.07314844046076" lon="6.731755882944644"><ele>1679.0</ele><time>2026-05-01T14:07:07Z</time></trkpt><trkpt lat="45.07306021299734" lon="6.731852888670442"><ele>1679.0</ele><time>2026-05-01T14:07:08Z</time></trkpt><trkpt lat="45.07294970623956" lon="6.73198149937042"><ele>1679.0</ele><time>2026-05-01T14:07:09Z</time></trkpt><trkpt lat="45.07286712742605" lon="6.7321079813191504"><ele>1682.75</ele><time>2026-05-01T14:07:10Z</time></trkpt><trkpt lat="45.072796840859695" lon="6.732238963825705"><ele>1686.5</ele><time>2026-05-01T14:07:11Z</time></trkpt><trkpt lat="45.072738111799076" lon="6.732369591889831"><ele>1690.25</ele><time>2026-05-01T14:07:12Z</time></trkpt><trkpt lat="45.07268770463859" lon="6.73253563179343"><ele>1694.0</ele><time>2026-05-01T14:07:13Z</time></trkpt><trkpt lat="45.07264308132086" lon="6.732726103727806"><ele>1699.0</ele><time>2026-05-01T14:07:14Z</time></trkpt><trkpt lat="45.07260137682242" lon="6.732937984127069"><ele>1704.0</ele><time>2026-05-01T14:07:15Z</time></trkpt><trkpt lat="45.07255648131826" lon="6.733168264239048"><ele>1709.0</ele><time>2026-05-01T14:07:16Z</time></trkpt><trkpt lat="45.07249304456601" lon="6.733369963233496"><ele>1704.25</ele><time>2026-05-01T14:07:17Z</time></trkpt><trkpt lat="45.072437914718236" lon="6.7335566649993455"><ele>1699.5</ele><time>2026-05-01T14:07:18Z</time></trkpt><trkpt lat="45.072423300473645" lon="6.733753427441747"><ele>1694.75</ele><time>2026-05-01T14:07:19Z</time></trkpt><trkpt lat="45.07240091748875" lon="6.73395617000138"><ele>1690.0</ele><time>2026-05-01T14:07:20Z</time></trkpt><trkpt lat="45.07238346728532" lon="6.734185097544112"><ele>1693.0</ele><time>2026-05-01T14:07:21Z</time></trkpt><trkpt lat="45.072362623961816" lon="6.734412182988609"><ele>1696.0</ele><time>2026-05-01T14:07:22Z</time></trkpt><trkpt lat="45.07231447604246" lon="6.734611487962215"><ele>1699.0</ele><time>2026-05-01T14:07:23Z</time></trkpt><trkpt lat="45.072256123532874" lon="6.73477080203843"><ele>1702.0</ele><time>2026-05-01T14:07:24Z</time></trkpt><trkpt lat="45.07218816389311" lon="6.73495755096171"><ele>1702.0</ele><time>2026-05-01T14:07:25Z</time></trkpt><trkpt lat="45.07212298967431" lon="6.735154589315113"><ele>1702.0</ele><time>2026-05-01T14:07:26Z</time></trkpt><trkpt lat="45.072055143683144" lon="6.735353547009136"><ele>1702.0</ele><time>2026-05-01T14:07:27Z</time></trkpt><trkpt lat="45.071984569905204" lon="6.735543326623163"><ele>1705.5</ele><time>2026-05-01T14:07:28Z</time></trkpt><trkpt lat="45.07193276753841" lon="6.7356814240651035"><ele>1709.0</ele><time>2026-05-01T14:07:29Z</time></trkpt><trkpt lat="45.07187869210368" lon="6.735829763290116"><ele>1712.5</ele><time>2026-05-01T14:07:30Z</time></trkpt><trkpt lat="45.071836211567636" lon="6.736009165690331"><ele>1716.0</ele><time>2026-05-01T14:07:31Z</time></trkpt><trkpt lat="45.071807799818465" lon="6.736211485353911"><ele>1721.0</ele><time>2026-05-01T14:07:32Z</time></trkpt><trkpt lat="45.07178420405931" lon="6.736410811291606"><ele>1726.0</ele><time>2026-05-01T14:07:33Z</time></trkpt><trkpt lat="45.0717419084568" lon="6.736626521275598"><ele>1731.0</ele><time>2026-05-01T14:07:34Z</time></trkpt><trkpt lat="45.07167249159317" lon="6.736819464336592"><ele>1728.0</ele><time>2026-05-01T14:07:35Z</time></trkpt><trkpt lat="45.071569169992074" lon="6.737002792471859"><ele>1725.0</ele><time>2026-05-01T14:07:36Z</time></trkpt><trkpt lat="45.07144004064348" lon="6.7371772967"><ele>1722.0</ele><time>2026-05-01T14:07:37Z</time></trkpt><trkpt lat="45.071330013448424" lon="6.737353198121358"><ele>1722.0</ele><time>2026-05-01T14:07:38Z</time></trkpt><trkpt lat="45.071257005175404" lon="6.737502280071772"><ele>1721.9999999999998</ele><time>2026-05-01T14:07:39Z</time></trkpt><trkpt lat="45.071201249169896" lon="6.737628663157903"><ele>1721.9999999999998</ele><time>2026-05-01T14:07:40Z</time></trkpt><trkpt lat="45.07119103117688" lon="6.737738942749079"><ele>1722.0</ele><time>2026-05-01T14:07:41Z</time></trkpt><trkpt lat="45.071226284488844" lon="6.737894832318565"><ele>1722.0</ele><time>2026-05-01T14:07:43Z</time></trkpt><trkpt lat="45.07130101507289" lon="6.737916939804381"><ele>1722.0</ele><time>2026-05-01T14:07:44Z</time></trkpt><trkpt lat="45.07136183773583" lon="6.73784386729589"><ele>1721.9999999999998</ele><time>2026-05-01T14:07:45Z</time></trkpt><trkpt lat="45.071420719875036" lon="6.73777228611018"><ele>1721.9999999999998</ele><time>2026-05-01T14:07:46Z</time></trkpt><trkpt lat="45.07150497348339" lon="6.737706210152947"><ele>1722.0</ele><time>2026-05-01T14:07:47Z</time></trkpt><trkpt lat="45.07159142796859" lon="6.737607687095341"><ele>1722.0</ele><time>2026-05-01T14:07:48Z</time></trkpt><trkpt lat="45.07170326482245" lon="6.737497189829828"><ele>1730.6666666666665</ele><time>2026-05-01T14:07:49Z</time></trkpt><trkpt lat="45.07181865459656" lon="6.737395994123931"><ele>1739.3333333333333</ele><time>2026-05-01T14:07:50Z</time></trkpt><trkpt lat="45.071938501535016" lon="6.7372853561741355"><ele>1748.0</ele><time>2026-05-01T14:07:51Z</time></trkpt><trkpt lat="45.07207598901284" lon="6.7371297843654725"><ele>1748.0</ele><time>2026-05-01T14:07:52Z</time></trkpt><trkpt lat="45.07221125835693" lon="6.736919992146331"><ele>1748.0</ele><time>2026-05-01T14:07:53Z</time></trkpt><trkpt lat="45.07233276793651" lon="6.736704222639731"><ele>1748.0</ele><time>2026-05-01T14:07:54Z</time></trkpt><trkpt lat="45.07245325041669" lon="6.7365228008405165"><ele>1748.0</ele><time>2026-05-01T14:07:55Z</time></trkpt><trkpt lat="45.07259234959104" lon="6.736360313794907"><ele>1748.0</ele><time>2026-05-01T14:07:56Z</time></trkpt><trkpt lat="45.07274435364822" lon="6.7362015365467"><ele>1748.0</ele><time>2026-05-01T14:07:57Z</time></trkpt><trkpt lat="45.072925968635836" lon="6.736031933516105"><ele>1748.0</ele><time>2026-05-01T14:07:58Z</time></trkpt><trkpt lat="45.0731060564486" lon="6.735869359027225"><ele>1748.0</ele><time>2026-05-01T14:07:59Z</time></trkpt><trkpt lat="45.073259154542555" lon="6.735748352642976"><ele>1748.0</ele><time>2026-05-01T14:08:00Z</time></trkpt><trkpt lat="45.07336963763209" lon="6.735611491894554"><ele>1751.2</ele><time>2026-05-01T14:08:01Z</time></trkpt><trkpt lat="45.073453730741896" lon="6.735529765828053"><ele>1754.4</ele><time>2026-05-01T14:08:02Z</time></trkpt><trkpt lat="45.073518108583876" lon="6.73545628394798"><ele>1757.6000000000001</ele><time>2026-05-01T14:08:03Z</time></trkpt><trkpt lat="45.07356304783846" lon="6.735382984210256"><ele>1760.8000000000002</ele><time>2026-05-01T14:08:04Z</time></trkpt><trkpt lat="45.07362001813032" lon="6.735225395442625"><ele>1764.0</ele><time>2026-05-01T14:08:05Z</time></trkpt><trkpt lat="45.073671084394014" lon="6.735054930535327"><ele>1764.0</ele><time>2026-05-01T14:08:06Z</time></trkpt><trkpt lat="45.073741802412705" lon="6.734874759506754"><ele>1764.0</ele><time>2026-05-01T14:08:07Z</time></trkpt><trkpt lat="45.07383823693271" lon="6.7347506369630565"><ele>1764.0</ele><time>2026-05-01T14:08:08Z</time></trkpt><trkpt lat="45.07395940596261" lon="6.734624461477808"><ele>1764.0</ele><time>2026-05-01T14:08:09Z</time></trkpt><trkpt lat="45.074062599042236" lon="6.734542060536148"><ele>1769.0</ele><time>2026-05-01T14:08:09.999Z</time></trkpt><trkpt lat="45.07417812630547" lon="6.734463749887833"><ele>1774.0</ele><time>2026-05-01T14:08:10.999Z</time></trkpt><trkpt lat="45.07429125622444" lon="6.734365291231583"><ele>1779.0</ele><time>2026-05-01T14:08:11.999Z</time></trkpt><trkpt lat="45.0744166894131" lon="6.73427091967587"><ele>1784.0</ele><time>2026-05-01T14:08:12.999Z</time></trkpt><trkpt lat="45.07453970240326" lon="6.734169638084176"><ele>1784.0</ele><time>2026-05-01T14:08:13.999Z</time></trkpt><trkpt lat="45.07465105392749" lon="6.73403597337047"><ele>1784.0</ele><time>2026-05-01T14:08:14.999Z</time></trkpt><trkpt lat="45.07476611817764" lon="6.733869338685577"><ele>1784.0</ele><time>2026-05-01T14:08:15.999Z</time></trkpt><trkpt lat="45.07488960820411" lon="6.733720293225913"><ele>1787.25</ele><time>2026-05-01T14:08:16.999Z</time></trkpt><trkpt lat="45.07501465468801" lon="6.733590278091199"><ele>1790.5</ele><time>2026-05-01T14:08:17.999Z</time></trkpt><trkpt lat="45.07511952311489" lon="6.733466460319817"><ele>1793.75</ele><time>2026-05-01T14:08:18.999Z</time></trkpt><trkpt lat="45.07520608533142" lon="6.733364560203694"><ele>1797.0</ele><time>2026-05-01T14:08:19.999Z</time></trkpt><trkpt lat="45.07528221803879" lon="6.7333034689389955"><ele>1797.0</ele><time>2026-05-01T14:08:20.999Z</time></trkpt><trkpt lat="45.07537176439528" lon="6.733310430426174"><ele>1797.0</ele><time>2026-05-01T14:08:21.999Z</time></trkpt><trkpt lat="45.075464794841416" lon="6.733268469587893"><ele>1797.0</ele><time>2026-05-01T14:08:22.999Z</time></trkpt><trkpt lat="45.0755377863709" lon="6.733189026140289"><ele>1797.0</ele><time>2026-05-01T14:08:23.999Z</time></trkpt><trkpt lat="45.075572638369145" lon="6.733087181159936"><ele>1797.0</ele><time>2026-05-01T14:08:24.999Z</time></trkpt><trkpt lat="45.0756196115065" lon="6.733014362663687"><ele>1797.0</ele><time>2026-05-01T14:08:25.999Z</time></trkpt><trkpt lat="45.075675680224194" lon="6.732962572482705"><ele>1797.0</ele><time>2026-05-01T14:08:26.999Z</time></trkpt><trkpt lat="45.075730499049776" lon="6.732891134532271"><ele>1796.9999999999998</ele><time>2026-05-01T14:08:27.999Z</time></trkpt><trkpt lat="45.07580879655548" lon="6.732797730101936"><ele>1796.9999999999998</ele><time>2026-05-01T14:08:28.999Z</time></trkpt><trkpt lat="45.075907486570216" lon="6.73271123607944"><ele>1797.0</ele><time>2026-05-01T14:08:29.999Z</time></trkpt><trkpt lat="45.07599250644579" lon="6.732596060741988"><ele>1797.0</ele><time>2026-05-01T14:08:30.999Z</time></trkpt><trkpt lat="45.07608701942332" lon="6.732510941406413"><ele>1797.8333333333333</ele><time>2026-05-01T14:08:31.999Z</time></trkpt><trkpt lat="45.076160671096325" lon="6.732438741896757"><ele>1798.6666666666665</ele><time>2026-05-01T14:08:32.999Z</time></trkpt><trkpt lat="45.07622235815223" lon="6.732387152541769"><ele>1799.5</ele><time>2026-05-01T14:08:33.999Z</time></trkpt><trkpt lat="45.07629266462377" lon="6.732360167224817"><ele>1800.3333333333333</ele><time>2026-05-01T14:08:35Z</time></trkpt><trkpt lat="45.07637016445398" lon="6.73240971656277"><ele>1801.1666666666665</ele><time>2026-05-01T14:08:36Z</time></trkpt><trkpt lat="45.076469676597874" lon="6.732422637154302"><ele>1802.0</ele><time>2026-05-01T14:08:37Z</time></trkpt><trkpt lat="45.076563007012155" lon="6.732489113989476"><ele>1806.0</ele><time>2026-05-01T14:08:38Z</time></trkpt><trkpt lat="45.07665614022264" lon="6.732541869596666"><ele>1809.9999999999998</ele><time>2026-05-01T14:08:39Z</time></trkpt><trkpt lat="45.07675684845007" lon="6.732615323995536"><ele>1813.9999999999998</ele><time>2026-05-01T14:08:40Z</time></trkpt><trkpt lat="45.076855976460095" lon="6.732681018077211"><ele>1818.0</ele><time>2026-05-01T14:08:41Z</time></trkpt><trkpt lat="45.07695428671297" lon="6.732713555890887"><ele>1822.0</ele><time>2026-05-01T14:08:42Z</time></trkpt><trkpt lat="45.07706918972564" lon="6.732672493661148"><ele>1822.0</ele><time>2026-05-01T14:08:43Z</time></trkpt><trkpt lat="45.07717924012507" lon="6.73263991697513"><ele>1822.0</ele><time>2026-05-01T14:08:44Z</time></trkpt><trkpt lat="45.0772974889725" lon="6.732601704699902"><ele>1822.0</ele><time>2026-05-01T14:08:45Z</time></trkpt><trkpt lat="45.07741462607356" lon="6.732564745434606"><ele>1822.0</ele><time>2026-05-01T14:08:46Z</time></trkpt><trkpt lat="45.07753748816282" lon="6.732511224641776"><ele>1824.0</ele><time>2026-05-01T14:08:47Z</time></trkpt><trkpt lat="45.07762316020558" lon="6.7323936922977525"><ele>1826.0</ele><time>2026-05-01T14:08:48Z</time></trkpt><trkpt lat="45.07771539530264" lon="6.732241857863461"><ele>1828.0</ele><time>2026-05-01T14:08:49Z</time></trkpt><trkpt lat="45.077831387286494" lon="6.732114343747228"><ele>1830.0</ele><time>2026-05-01T14:08:50Z</time></trkpt><trkpt lat="45.07792948797932" lon="6.7319523497783935"><ele>1827.5</ele><time>2026-05-01T14:08:51Z</time></trkpt><trkpt lat="45.07802935026818" lon="6.7318016232024"><ele>1825.0</ele><time>2026-05-01T14:08:52Z</time></trkpt><trkpt lat="45.07814335650871" lon="6.731658181817491"><ele>1822.5</ele><time>2026-05-01T14:08:53Z</time></trkpt><trkpt lat="45.0782456458352" lon="6.731537683884038"><ele>1820.0</ele><time>2026-05-01T14:08:54Z</time></trkpt><trkpt lat="45.0783460270851" lon="6.731413362048922"><ele>1822.5</ele><time>2026-05-01T14:08:55Z</time></trkpt><trkpt lat="45.07844733359729" lon="6.731275947440194"><ele>1825.0</ele><time>2026-05-01T14:08:56Z</time></trkpt><trkpt lat="45.07855204172734" lon="6.731154698503771"><ele>1827.5</ele><time>2026-05-01T14:08:57Z</time></trkpt><trkpt lat="45.078664033902605" lon="6.731040234159781"><ele>1830.0</ele><time>2026-05-01T14:08:58Z</time></trkpt><trkpt lat="45.078779996021005" lon="6.730958610191035"><ele>1830.0</ele><time>2026-05-01T14:08:59Z</time></trkpt><trkpt lat="45.07890993063857" lon="6.730874597131351"><ele>1830.0</ele><time>2026-05-01T14:09:00Z</time></trkpt><trkpt lat="45.07904959975195" lon="6.730806867637242"><ele>1830.0</ele><time>2026-05-01T14:09:01Z</time></trkpt><trkpt lat="45.07918202506438" lon="6.730742476235154"><ele>1830.0</ele><time>2026-05-01T14:09:02Z</time></trkpt><trkpt lat="45.079301691282524" lon="6.7306780597272695"><ele>1835.75</ele><time>2026-05-01T14:09:03Z</time></trkpt><trkpt lat="45.07941979223935" lon="6.730630150555776"><ele>1841.5</ele><time>2026-05-01T14:09:04Z</time></trkpt><trkpt lat="45.07954594438474" lon="6.730586473277983"><ele>1847.25</ele><time>2026-05-01T14:09:05Z</time></trkpt><trkpt lat="45.079687939050245" lon="6.730570382013594"><ele>1853.0</ele><time>2026-05-01T14:09:06Z</time></trkpt><trkpt lat="45.079847347152004" lon="6.7305986027944495"><ele>1858.6666666666665</ele><time>2026-05-01T14:09:07Z</time></trkpt><trkpt lat="45.08001461329958" lon="6.730641470086751"><ele>1864.3333333333335</ele><time>2026-05-01T14:09:08Z</time></trkpt><trkpt lat="45.08018033765077" lon="6.730660266749831"><ele>1870.0</ele><time>2026-05-01T14:09:09Z</time></trkpt><trkpt lat="45.08033149496582" lon="6.73065200766339"><ele>1870.0</ele><time>2026-05-01T14:09:10Z</time></trkpt><trkpt lat="45.080486493549444" lon="6.73065401081619"><ele>1870.0</ele><time>2026-05-01T14:09:11Z</time></trkpt><trkpt lat="45.08062460008194" lon="6.730647502060836"><ele>1870.0</ele><time>2026-05-01T14:09:12Z</time></trkpt><trkpt lat="45.08077044121261" lon="6.730673573047001"><ele>1870.0</ele><time>2026-05-01T14:09:13Z</time></trkpt><trkpt lat="45.08091477453052" lon="6.73070997033471"><ele>1871.75</ele><time>2026-05-01T14:09:14Z</time></trkpt><trkpt lat="45.08105688440867" lon="6.730777582259433"><ele>1873.5</ele><time>2026-05-01T14:09:15Z</time></trkpt><trkpt lat="45.08118042800432" lon="6.73085011880478"><ele>1875.25</ele><time>2026-05-01T14:09:16Z</time></trkpt><trkpt lat="45.081293668319" lon="6.730895082089726"><ele>1877.0</ele><time>2026-05-01T14:09:17Z</time></trkpt><trkpt lat="45.081394186061814" lon="6.730897978749986"><ele>1876.9999999999998</ele><time>2026-05-01T14:09:18Z</time></trkpt><trkpt lat="45.08147149081981" lon="6.730849440387124"><ele>1877.0</ele><time>2026-05-01T14:09:19Z</time></trkpt><trkpt lat="45.08155166761508" lon="6.730831169086876"><ele>1877.0</ele><time>2026-05-01T14:09:21Z</time></trkpt><trkpt lat="45.081565760841386" lon="6.730940532639982"><ele>1877.0</ele><time>2026-05-01T14:09:22Z</time></trkpt><trkpt lat="45.08149741871205" lon="6.73098404259572"><ele>1876.9999999999998</ele><time>2026-05-01T14:09:23Z</time></trkpt><trkpt lat="45.08140532272849" lon="6.731021213401723"><ele>1877.0</ele><time>2026-05-01T14:09:25Z</time></trkpt><trkpt lat="45.08131484269735" lon="6.731055345887024"><ele>1882.3999999999999</ele><time>2026-05-01T14:09:26Z</time></trkpt><trkpt lat="45.08120584851887" lon="6.731089809417329"><ele>1887.7999999999997</ele><time>2026-05-01T14:09:27Z</time></trkpt><trkpt lat="45.08108994766765" lon="6.73112555002288"><ele>1893.2</ele><time>2026-05-01T14:09:28Z</time></trkpt><trkpt lat="45.08099234367571" lon="6.731166318295639"><ele>1898.6</ele><time>2026-05-01T14:09:29Z</time></trkpt><trkpt lat="45.0808941336429" lon="6.731218336826226"><ele>1904.0</ele><time>2026-05-01T14:09:30Z</time></trkpt><trkpt lat="45.080794889034" lon="6.731299869797965"><ele>1902.4999999999998</ele><time>2026-05-01T14:09:31Z</time></trkpt><trkpt lat="45.08069424978808" lon="6.731335534173005"><ele>1901.0</ele><time>2026-05-01T14:09:32Z</time></trkpt><trkpt lat="45.08062123900653" lon="6.731392109553139"><ele>1899.5</ele><time>2026-05-01T14:09:33Z</time></trkpt><trkpt lat="45.08056289964272" lon="6.731440062752837"><ele>1898.0</ele><time>2026-05-01T14:09:34Z</time></trkpt><trkpt lat="45.08048624024233" lon="6.7315262559290945"><ele>1896.4999999999998</ele><time>2026-05-01T14:09:36Z</time></trkpt><trkpt lat="45.08050103003923" lon="6.731617412359274"><ele>1895.0</ele><time>2026-05-01T14:12:19Z</time></trkpt><trkpt lat="45.0805809321561" lon="6.73166128728698"><ele>1895.0</ele><time>2026-05-01T14:12:23Z</time></trkpt><trkpt lat="45.0806089715045" lon="6.731765612122563"><ele>1895.0</ele><time>2026-05-01T14:12:27Z</time></trkpt><trkpt lat="45.080870423716945" lon="6.7315659547769835"><ele>1895.0</ele><time>2026-05-01T14:12:28Z</time></trkpt><trkpt lat="45.08099220830796" lon="6.731551848208667"><ele>1896.4999999999998</ele><time>2026-05-01T14:12:30Z</time></trkpt><trkpt lat="45.08105639681427" lon="6.7315485795911"><ele>1898.0</ele><time>2026-05-01T14:12:31Z</time></trkpt><trkpt lat="45.08112068765649" lon="6.731559721700739"><ele>1899.5</ele><time>2026-05-01T14:12:32Z</time></trkpt><trkpt lat="45.0812204588564" lon="6.731590352468935"><ele>1901.0</ele><time>2026-05-01T14:12:34Z</time></trkpt><trkpt lat="45.08127827061705" lon="6.731672192319084"><ele>1902.4999999999998</ele><time>2026-05-01T14:12:36Z</time></trkpt><trkpt lat="45.08132127718214" lon="6.731743746950817"><ele>1904.0</ele><time>2026-05-01T14:12:37Z</time></trkpt><trkpt lat="45.08136462275935" lon="6.731864821115841"><ele>1908.6</ele><time>2026-05-01T14:12:39Z</time></trkpt><trkpt lat="45.08142287521084" lon="6.731994183724568"><ele>1913.2</ele><time>2026-05-01T14:12:41Z</time></trkpt><trkpt lat="45.08149530359779" lon="6.732119814800952"><ele>1917.7999999999997</ele><time>2026-05-01T14:12:43Z</time></trkpt><trkpt lat="45.081586030295284" lon="6.732214459480754"><ele>1922.3999999999999</ele><time>2026-05-01T14:12:45Z</time></trkpt><trkpt lat="45.08165143525039" lon="6.73222601788112"><ele>1927.0</ele><time>2026-05-01T14:12:47.999Z</time></trkpt><trkpt lat="45.08174000098939" lon="6.732223960726142"><ele>1928.0</ele><time>2026-05-01T14:12:56.999Z</time></trkpt><trkpt lat="45.0818608911895" lon="6.7322056074178"><ele>1928.9999999999998</ele><time>2026-05-01T14:12:58.999Z</time></trkpt><trkpt lat="45.08192572683754" lon="6.732198415055526"><ele>1929.9999999999998</ele><time>2026-05-01T14:12:59.999Z</time></trkpt><trkpt lat="45.08202821266268" lon="6.73222333559094"><ele>1931.0</ele><time>2026-05-01T14:13:01.999Z</time></trkpt><trkpt lat="45.08213918698199" lon="6.732285986988658"><ele>1932.0</ele><time>2026-05-01T14:13:04Z</time></trkpt><trkpt lat="45.08224505785535" lon="6.732341002975545"><ele>1932.0</ele><time>2026-05-01T14:13:06Z</time></trkpt><trkpt lat="45.08236289415707" lon="6.73239628169889"><ele>1932.0</ele><time>2026-05-01T14:13:08Z</time></trkpt><trkpt lat="45.08242885519867" lon="6.732432667923198"><ele>1932.0</ele><time>2026-05-01T14:13:09Z</time></trkpt><trkpt lat="45.082497036681424" lon="6.73247777496165"><ele>1932.0</ele><time>2026-05-01T14:13:10Z</time></trkpt><trkpt lat="45.082572757146494" lon="6.732526584991272"><ele>1932.0</ele><time>2026-05-01T14:13:11Z</time></trkpt><trkpt lat="45.08265081521533" lon="6.732583703861763"><ele>1932.0</ele><time>2026-05-01T14:13:12Z</time></trkpt><trkpt lat="45.08273670238513" lon="6.732641658672855"><ele>1932.6666666666667</ele><time>2026-05-01T14:13:13Z</time></trkpt><trkpt lat="45.082824871449624" lon="6.732693805389996"><ele>1933.3333333333335</ele><time>2026-05-01T14:13:14Z</time></trkpt><trkpt lat="45.08291748439501" lon="6.732732588133281"><ele>1934.0</ele><time>2026-05-01T14:13:15Z</time></trkpt><trkpt lat="45.082991023335694" lon="6.73277097629883"><ele>1934.6666666666667</ele><time>2026-05-01T14:13:16Z</time></trkpt><trkpt lat="45.08306049373123" lon="6.732801299347353"><ele>1935.3333333333335</ele><time>2026-05-01T14:13:17Z</time></trkpt><trkpt lat="45.083137490933595" lon="6.732832519426672"><ele>1936.0</ele><time>2026-05-01T14:13:18Z</time></trkpt><trkpt lat="45.083223734781676" lon="6.732862398699972"><ele>1938.0</ele><time>2026-05-01T14:13:19Z</time></trkpt><trkpt lat="45.083323179456436" lon="6.732908125276539"><ele>1940.0</ele><time>2026-05-01T14:13:20Z</time></trkpt><trkpt lat="45.083421162688566" lon="6.732946985153392"><ele>1942.0</ele><time>2026-05-01T14:13:21Z</time></trkpt><trkpt lat="45.08351483658038" lon="6.732987584296031"><ele>1944.0</ele><time>2026-05-01T14:13:22Z</time></trkpt><trkpt lat="45.08361142294045" lon="6.733047404165481"><ele>1946.0</ele><time>2026-05-01T14:13:23Z</time></trkpt><trkpt lat="45.08368941121844" lon="6.733125408803499"><ele>1946.0</ele><time>2026-05-01T14:13:24Z</time></trkpt><trkpt lat="45.08378117573596" lon="6.733188154976293"><ele>1946.0</ele><time>2026-05-01T14:13:25Z</time></trkpt><trkpt lat="45.08387682995815" lon="6.733209416663985"><ele>1946.0</ele><time>2026-05-01T14:13:26Z</time></trkpt><trkpt lat="45.08397866954075" lon="6.733221385563517"><ele>1946.0</ele><time>2026-05-01T14:13:27Z</time></trkpt><trkpt lat="45.08406835835109" lon="6.733280606888607"><ele>1946.0</ele><time>2026-05-01T14:13:28Z</time></trkpt><trkpt lat="45.08414292442914" lon="6.733360885708797"><ele>1945.4999999999998</ele><time>2026-05-01T14:13:29Z</time></trkpt><trkpt lat="45.08420291549435" lon="6.733441486690309"><ele>1945.0</ele><time>2026-05-01T14:13:30Z</time></trkpt><trkpt lat="45.08427010596101" lon="6.733502039037385"><ele>1944.5</ele><time>2026-05-01T14:13:31Z</time></trkpt><trkpt lat="45.0843347100568" lon="6.7335567461490635"><ele>1944.0</ele><time>2026-05-01T14:13:32Z</time></trkpt><trkpt lat="45.08438614455332" lon="6.733614325647475"><ele>1943.4999999999998</ele><time>2026-05-01T14:13:33Z</time></trkpt><trkpt lat="45.08444631965555" lon="6.7336836745381845"><ele>1943.0</ele><time>2026-05-01T14:13:34Z</time></trkpt><trkpt lat="45.08450767969129" lon="6.73374946639924"><ele>1946.4</ele><time>2026-05-01T14:13:35Z</time></trkpt><trkpt lat="45.08458685904836" lon="6.733849935493966"><ele>1949.8000000000002</ele><time>2026-05-01T14:13:37Z</time></trkpt><trkpt lat="45.08463020698491" lon="6.73393759838462"><ele>1953.2</ele><time>2026-05-01T14:13:39Z</time></trkpt><trkpt lat="45.0846509165866" lon="6.734040879045257"><ele>1956.6</ele><time>2026-05-01T14:13:41Z</time></trkpt><trkpt lat="45.08477088333823" lon="6.734102309786521"><ele>1960.0</ele><time>2026-05-01T14:14:02Z</time></trkpt><trkpt lat="45.08482962596786" lon="6.734175788259876"><ele>1960.0</ele><time>2026-05-01T14:14:04Z</time></trkpt><trkpt lat="45.08490757013935" lon="6.73423734802004"><ele>1960.0</ele><time>2026-05-01T14:14:06Z</time></trkpt><trkpt lat="45.085017113608906" lon="6.734271243814008"><ele>1960.0</ele><time>2026-05-01T14:14:08Z</time></trkpt><trkpt lat="45.08511150283801" lon="6.734322033399015"><ele>1960.0</ele><time>2026-05-01T14:14:10Z</time></trkpt><trkpt lat="45.085199693831385" lon="6.734282628474994"><ele>1960.0</ele><time>2026-05-01T14:14:12Z</time></trkpt><trkpt lat="45.085280008549184" lon="6.734247095384054"><ele>1956.1666666666667</ele><time>2026-05-01T14:14:14Z</time></trkpt><trkpt lat="45.085353566779915" lon="6.7342352534747505"><ele>1952.3333333333335</ele><time>2026-05-01T14:14:16Z</time></trkpt><trkpt lat="45.08542809185259" lon="6.734212023989997"><ele>1948.5</ele><time>2026-05-01T14:14:18Z</time></trkpt><trkpt lat="45.08553565742105" lon="6.7342335248847816"><ele>1944.6666666666665</ele><time>2026-05-01T14:14:20Z</time></trkpt><trkpt lat="45.08561817546497" lon="6.734191309366967"><ele>1940.8333333333333</ele><time>2026-05-01T14:14:22Z</time></trkpt><trkpt lat="45.085697043847844" lon="6.734110223157671"><ele>1937.0</ele><time>2026-05-01T14:14:24Z</time></trkpt><trkpt lat="45.0857172915568" lon="6.734004824132932"><ele>1937.0</ele><time>2026-05-01T14:14:25Z</time></trkpt><trkpt lat="45.08565265835826" lon="6.733843076235276"><ele>1936.9999999999998</ele><time>2026-05-01T14:14:27Z</time></trkpt><trkpt lat="45.08559131339864" lon="6.733802823261938"><ele>1936.9999999999998</ele><time>2026-05-01T14:14:28Z</time></trkpt><trkpt lat="45.08550912311145" lon="6.733705117208803"><ele>1937.0</ele><time>2026-05-01T14:14:30Z</time></trkpt><trkpt lat="45.08541298964679" lon="6.733631077761713"><ele>1937.0</ele><time>2026-05-01T14:14:32Z</time></trkpt><trkpt lat="45.08535393144859" lon="6.733553552955982"><ele>1933.8</ele><time>2026-05-01T14:14:34Z</time></trkpt><trkpt lat="45.085315025066315" lon="6.733473148425362"><ele>1930.6</ele><time>2026-05-01T14:14:37Z</time></trkpt><trkpt lat="45.08545482491235" lon="6.733458348118807"><ele>1927.3999999999999</ele><time>2026-05-01T14:14:43Z</time></trkpt><trkpt lat="45.08553303181442" lon="6.733503417231398"><ele>1924.1999999999998</ele><time>2026-05-01T14:14:45Z</time></trkpt><trkpt lat="45.08562718783432" lon="6.733527019641663"><ele>1921.0</ele><time>2026-05-01T14:14:47Z</time></trkpt><trkpt lat="45.085700370006265" lon="6.73354768971432"><ele>1921.3333333333335</ele><time>2026-05-01T14:14:49Z</time></trkpt><trkpt lat="45.08577492510549" lon="6.733595587571704"><ele>1921.6666666666667</ele><time>2026-05-01T14:14:51Z</time></trkpt><trkpt lat="45.08585529783106" lon="6.7336380003351035"><ele>1922.0</ele><time>2026-05-01T14:14:53Z</time></trkpt><trkpt lat="45.085928842865066" lon="6.733675744575891"><ele>1922.3333333333335</ele><time>2026-05-01T14:14:55Z</time></trkpt><trkpt lat="45.08599062121525" lon="6.733705838756844"><ele>1922.6666666666667</ele><time>2026-05-01T14:14:57Z</time></trkpt><trkpt lat="45.086052001943195" lon="6.733764313441882"><ele>1923.0</ele><time>2026-05-01T14:14:59Z</time></trkpt><trkpt lat="45.08610718357962" lon="6.7338178421049655"><ele>1923.0</ele><time>2026-05-01T14:15:00Z</time></trkpt><trkpt lat="45.086183941279" lon="6.733896423782249"><ele>1923.0</ele><time>2026-05-01T14:15:02Z</time></trkpt><trkpt lat="45.086253702374215" lon="6.7339541427047385"><ele>1923.0</ele><time>2026-05-01T14:15:04Z</time></trkpt><trkpt lat="45.0862968558264" lon="6.734020840591646"><ele>1923.0</ele><time>2026-05-01T14:15:06Z</time></trkpt><trkpt lat="45.086348341514366" lon="6.734082620912804"><ele>1923.0</ele><time>2026-05-01T14:15:29Z</time></trkpt><trkpt lat="45.08640544920154" lon="6.734137125740283"><ele>1923.0</ele><time>2026-05-01T14:15:35Z</time></trkpt><trkpt lat="45.086450948640774" lon="6.734215137262477"><ele>1923.0</ele><time>2026-05-01T14:15:37Z</time></trkpt><trkpt lat="45.08652257246898" lon="6.734316584953104"><ele>1924.6666666666667</ele><time>2026-05-01T14:15:39Z</time></trkpt><trkpt lat="45.08659599412288" lon="6.734397362072573"><ele>1926.3333333333335</ele><time>2026-05-01T14:15:41Z</time></trkpt><trkpt lat="45.08666802808915" lon="6.73446153808236"><ele>1928.0</ele><time>2026-05-01T14:15:43Z</time></trkpt><trkpt lat="45.08673910553175" lon="6.7345556532904585"><ele>1929.6666666666667</ele><time>2026-05-01T14:15:45Z</time></trkpt><trkpt lat="45.08680470878864" lon="6.734583965082895"><ele>1931.3333333333335</ele><time>2026-05-01T14:15:46Z</time></trkpt><trkpt lat="45.08686456762889" lon="6.734630064176232"><ele>1933.0</ele><time>2026-05-01T14:15:47Z</time></trkpt><trkpt lat="45.08692728370985" lon="6.734677360315429"><ele>1933.0000000000002</ele><time>2026-05-01T14:15:48Z</time></trkpt><trkpt lat="45.08698011731809" lon="6.734744934085532"><ele>1933.0</ele><time>2026-05-01T14:15:49Z</time></trkpt><trkpt lat="45.08703929298711" lon="6.734789976238208"><ele>1933.0</ele><time>2026-05-01T14:15:50Z</time></trkpt><trkpt lat="45.08710156338715" lon="6.734826119400679"><ele>1933.0</ele><time>2026-05-01T14:15:51Z</time></trkpt><trkpt lat="45.087179972980095" lon="6.73484363636185"><ele>1933.0000000000002</ele><time>2026-05-01T14:15:53Z</time></trkpt><trkpt lat="45.087260193862605" lon="6.734858785739477"><ele>1933.0</ele><time>2026-05-01T14:15:55Z</time></trkpt><trkpt lat="45.087352323596015" lon="6.734827412710887"><ele>1930.2</ele><time>2026-05-01T14:15:57Z</time></trkpt><trkpt lat="45.087470356608314" lon="6.734796142258169"><ele>1927.4</ele><time>2026-05-01T14:15:59Z</time></trkpt><trkpt lat="45.087533783654344" lon="6.734787671546509"><ele>1924.6000000000001</ele><time>2026-05-01T14:16:00Z</time></trkpt><trkpt lat="45.087616830054536" lon="6.734785462059968"><ele>1921.8000000000002</ele><time>2026-05-01T14:16:01Z</time></trkpt><trkpt lat="45.08772878610244" lon="6.7347960434292125"><ele>1919.0</ele><time>2026-05-01T14:16:02Z</time></trkpt><trkpt lat="45.08781754400559" lon="6.734805885202045"><ele>1918.9999999999998</ele><time>2026-05-01T14:16:03Z</time></trkpt><trkpt lat="45.08790691588436" lon="6.734809077295325"><ele>1919.0</ele><time>2026-05-01T14:16:04Z</time></trkpt><trkpt lat="45.08798584894062" lon="6.734795956837106"><ele>1919.0</ele><time>2026-05-01T14:16:05Z</time></trkpt><trkpt lat="45.08806442563701" lon="6.734820296293848"><ele>1919.0</ele><time>2026-05-01T14:16:06Z</time></trkpt><trkpt lat="45.08814144557963" lon="6.73482143890111"><ele>1918.9999999999998</ele><time>2026-05-01T14:16:07Z</time></trkpt><trkpt lat="45.088220935185326" lon="6.734826918227168"><ele>1919.0</ele><time>2026-05-01T14:16:08Z</time></trkpt><trkpt lat="45.08829862711315" lon="6.734841776403561"><ele>1918.8000000000002</ele><time>2026-05-01T14:16:09Z</time></trkpt><trkpt lat="45.08840407736456" lon="6.734864700611756"><ele>1918.6000000000001</ele><time>2026-05-01T14:16:11Z</time></trkpt><trkpt lat="45.088495421550476" lon="6.734921641358643"><ele>1918.4</ele><time>2026-05-01T14:16:13Z</time></trkpt><trkpt lat="45.08860048272072" lon="6.735024611860653"><ele>1918.2</ele><time>2026-05-01T14:16:15Z</time></trkpt><trkpt lat="45.08866694759592" lon="6.735140394068448"><ele>1918.0</ele><time>2026-05-01T14:16:17Z</time></trkpt><trkpt lat="45.08875223603446" lon="6.735240288022219"><ele>1920.6666666666667</ele><time>2026-05-01T14:16:19Z</time></trkpt><trkpt lat="45.088808909324776" lon="6.7353746981754306"><ele>1923.3333333333335</ele><time>2026-05-01T14:16:21Z</time></trkpt><trkpt lat="45.08889293898917" lon="6.7355077661514535"><ele>1926.0</ele><time>2026-05-01T14:16:23Z</time></trkpt><trkpt lat="45.08894177124592" lon="6.735579186238169"><ele>1928.6666666666665</ele><time>2026-05-01T14:16:24Z</time></trkpt><trkpt lat="45.08898653480402" lon="6.735644098990888"><ele>1931.3333333333333</ele><time>2026-05-01T14:16:25Z</time></trkpt><trkpt lat="45.08901286970766" lon="6.735740024380523"><ele>1934.0</ele><time>2026-05-01T14:16:26Z</time></trkpt><trkpt lat="45.08908532750556" lon="6.735843713385491"><ele>1934.1666666666665</ele><time>2026-05-01T14:16:28Z</time></trkpt><trkpt lat="45.08915227779794" lon="6.735937833050407"><ele>1934.3333333333333</ele><time>2026-05-01T14:16:30Z</time></trkpt><trkpt lat="45.089208156083004" lon="6.735983874278515"><ele>1934.5</ele><time>2026-05-01T14:16:32Z</time></trkpt><trkpt lat="45.089260754864505" lon="6.736084710178125"><ele>1934.6666666666665</ele><time>2026-05-01T14:16:34Z</time></trkpt><trkpt lat="45.08935331328323" lon="6.736192112926879"><ele>1934.8333333333333</ele><time>2026-05-01T14:16:36Z</time></trkpt><trkpt lat="45.08941035296077" lon="6.736256689638899"><ele>1935.0</ele><time>2026-05-01T14:16:37Z</time></trkpt><trkpt lat="45.08946118038278" lon="6.736334389940257"><ele>1935.0</ele><time>2026-05-01T14:16:38Z</time></trkpt><trkpt lat="45.08952269455012" lon="6.73640958310098"><ele>1935.0</ele><time>2026-05-01T14:16:41Z</time></trkpt><trkpt lat="45.089621773510245" lon="6.73645806801805"><ele>1935.0</ele><time>2026-05-01T14:16:43Z</time></trkpt><trkpt lat="45.08970633963277" lon="6.7365315937664025"><ele>1935.0</ele><time>2026-05-01T14:16:45Z</time></trkpt><trkpt lat="45.08975871554245" lon="6.736619024693587"><ele>1935.0</ele><time>2026-05-01T14:16:47Z</time></trkpt><trkpt lat="45.08980339140575" lon="6.73668544447883"><ele>1935.0</ele><time>2026-05-01T14:16:49Z</time></trkpt><trkpt lat="45.089857076047814" lon="6.736760247451814"><ele>1933.3333333333333</ele><time>2026-05-01T14:16:52Z</time></trkpt><trkpt lat="45.08995985005037" lon="6.736754763387714"><ele>1931.6666666666665</ele><time>2026-05-01T14:17:17Z</time></trkpt><trkpt lat="45.090081007319796" lon="6.736812729823852"><ele>1930.0</ele><time>2026-05-01T14:17:19Z</time></trkpt><trkpt lat="45.090117409151205" lon="6.736890845776325"><ele>1928.3333333333333</ele><time>2026-05-01T14:17:20Z</time></trkpt><trkpt lat="45.09015612667294" lon="6.736972290041979"><ele>1926.6666666666665</ele><time>2026-05-01T14:17:21Z</time></trkpt><trkpt lat="45.090191593151694" lon="6.7370497413290344"><ele>1925.0</ele><time>2026-05-01T14:17:22Z</time></trkpt><trkpt lat="45.09023815773239" lon="6.737151428724898"><ele>1925.0</ele><time>2026-05-01T14:17:24Z</time></trkpt><trkpt lat="45.09028153186835" lon="6.737246148814951"><ele>1925.0</ele><time>2026-05-01T14:17:27Z</time></trkpt><trkpt lat="45.090245222172314" lon="6.737166856313114"><ele>1925.0</ele><time>2026-05-01T14:18:16Z</time></trkpt><trkpt lat="45.09019940530172" lon="6.73706680179729"><ele>1925.0</ele><time>2026-05-01T14:18:18Z</time></trkpt><trkpt lat="45.09016050653177" lon="6.736981854993405"><ele>1925.0</ele><time>2026-05-01T14:18:20Z</time></trkpt><trkpt lat="45.09012042204742" lon="6.736897133599218"><ele>1925.0</ele><time>2026-05-01T14:18:22Z</time></trkpt><trkpt lat="45.09008154067573" lon="6.736818136474963"><ele>1925.0</ele><time>2026-05-01T14:18:23Z</time></trkpt><trkpt lat="45.08998714858541" lon="6.736659737810086"><ele>1926.6666666666665</ele><time>2026-05-01T14:18:25Z</time></trkpt><trkpt lat="45.089929991958336" lon="6.736590188399596"><ele>1928.3333333333333</ele><time>2026-05-01T14:18:26Z</time></trkpt><trkpt lat="45.089859726783516" lon="6.736547449089138"><ele>1930.0</ele><time>2026-05-01T14:18:27Z</time></trkpt><trkpt lat="45.08977304583194" lon="6.736568693277384"><ele>1931.6666666666665</ele><time>2026-05-01T14:18:28Z</time></trkpt><trkpt lat="45.08969673234272" lon="6.736652722357963"><ele>1933.3333333333333</ele><time>2026-05-01T14:18:30Z</time></trkpt><trkpt lat="45.089603801815464" lon="6.736594033725541"><ele>1935.0</ele><time>2026-05-01T14:18:32Z</time></trkpt><trkpt lat="45.08952260738534" lon="6.736578595709719"><ele>1935.0</ele><time>2026-05-01T14:18:34Z</time></trkpt><trkpt lat="45.08945558768465" lon="6.736559321542616"><ele>1935.0</ele><time>2026-05-01T14:18:35Z</time></trkpt><trkpt lat="45.08940967629027" lon="6.736211194797793"><ele>1935.0</ele><time>2026-05-01T14:18:36Z</time></trkpt><trkpt lat="45.08934753550176" lon="6.736127408998864"><ele>1935.0</ele><time>2026-05-01T14:18:37Z</time></trkpt><trkpt lat="45.08926690832053" lon="6.736001847226916"><ele>1934.8333333333333</ele><time>2026-05-01T14:18:39Z</time></trkpt><trkpt lat="45.089199968991565" lon="6.735896103398614"><ele>1934.6666666666665</ele><time>2026-05-01T14:18:41Z</time></trkpt><trkpt lat="45.08914027785926" lon="6.735793800887796"><ele>1934.5</ele><time>2026-05-01T14:18:43Z</time></trkpt><trkpt lat="45.08905411574436" lon="6.7356862527831645"><ele>1934.3333333333333</ele><time>2026-05-01T14:18:45Z</time></trkpt><trkpt lat="45.08901066542652" lon="6.7356141899247515"><ele>1934.1666666666665</ele><time>2026-05-01T14:18:46Z</time></trkpt><trkpt lat="45.08895101176827" lon="6.735567326220496"><ele>1934.0</ele><time>2026-05-01T14:18:47Z</time></trkpt><trkpt lat="45.08889453728785" lon="6.735490516382564"><ele>1933.9999999999998</ele><time>2026-05-01T14:18:48Z</time></trkpt><trkpt lat="45.0887916387612" lon="6.735363346686213"><ele>1934.0</ele><time>2026-05-01T14:18:50Z</time></trkpt><trkpt lat="45.08874339480107" lon="6.735287321042476"><ele>1934.0</ele><time>2026-05-01T14:18:51Z</time></trkpt><trkpt lat="45.0887012771542" lon="6.735209494568124"><ele>1934.0</ele><time>2026-05-01T14:18:52Z</time></trkpt><trkpt lat="45.088657149469874" lon="6.735118090339058"><ele>1933.9999999999998</ele><time>2026-05-01T14:18:53Z</time></trkpt><trkpt lat="45.08863575188866" lon="6.735031368805326"><ele>1934.0</ele><time>2026-05-01T14:18:54Z</time></trkpt><trkpt lat="45.088549678095475" lon="6.73492932611173"><ele>1931.4999999999998</ele><time>2026-05-01T14:18:56Z</time></trkpt><trkpt lat="45.088479035172874" lon="6.734859459266994"><ele>1929.0</ele><time>2026-05-01T14:18:57Z</time></trkpt><trkpt lat="45.088396839180746" lon="6.734808834639135"><ele>1926.5</ele><time>2026-05-01T14:18:58Z</time></trkpt><trkpt lat="45.088311016248994" lon="6.734782448785708"><ele>1924.0</ele><time>2026-05-01T14:18:59Z</time></trkpt><trkpt lat="45.08824677663622" lon="6.734776552251376"><ele>1921.4999999999998</ele><time>2026-05-01T14:19:00Z</time></trkpt><trkpt lat="45.08817939208968" lon="6.734771387710269"><ele>1919.0</ele><time>2026-05-01T14:19:01Z</time></trkpt><trkpt lat="45.0881042340146" lon="6.73478822685879"><ele>1918.9999999999998</ele><time>2026-05-01T14:19:02Z</time></trkpt><trkpt lat="45.08802598332397" lon="6.734756280058047"><ele>1919.0</ele><time>2026-05-01T14:19:03Z</time></trkpt><trkpt lat="45.08795138304165" lon="6.734747932115068"><ele>1919.0</ele><time>2026-05-01T14:19:04Z</time></trkpt><trkpt lat="45.08786938724695" lon="6.73476420285103"><ele>1919.0</ele><time>2026-05-01T14:19:05.001Z</time></trkpt><trkpt lat="45.08779015956954" lon="6.734752065014793"><ele>1918.9999999999998</ele><time>2026-05-01T14:19:06.001Z</time></trkpt><trkpt lat="45.0876916289206" lon="6.734743816512327"><ele>1919.0</ele><time>2026-05-01T14:19:07.001Z</time></trkpt><trkpt lat="45.08760136976727" lon="6.7347405083738945"><ele>1918.9999999999998</ele><time>2026-05-01T14:19:08.001Z</time></trkpt><trkpt lat="45.087523140895875" lon="6.734759483266435"><ele>1919.0</ele><time>2026-05-01T14:19:09.001Z</time></trkpt><trkpt lat="45.08745868777741" lon="6.734761250629873"><ele>1919.0</ele><time>2026-05-01T14:19:10.001Z</time></trkpt><trkpt lat="45.0873580578108" lon="6.7347638426563545"><ele>1919.0</ele><time>2026-05-01T14:19:12.001Z</time></trkpt><trkpt lat="45.087280531276306" lon="6.734782073805079"><ele>1918.9999999999998</ele><time>2026-05-01T14:19:14.001Z</time></trkpt><trkpt lat="45.08718088595945" lon="6.734819485334938"><ele>1919.0</ele><time>2026-05-01T14:19:16.001Z</time></trkpt><trkpt lat="45.087109603653225" lon="6.734792964781663"><ele>1921.8000000000002</ele><time>2026-05-01T14:19:18.001Z</time></trkpt><trkpt lat="45.087013695014214" lon="6.734721629981923"><ele>1924.6000000000001</ele><time>2026-05-01T14:19:20.001Z</time></trkpt><trkpt lat="45.08691395907703" lon="6.7346245188052185"><ele>1927.4</ele><time>2026-05-01T14:19:22.001Z</time></trkpt><trkpt lat="45.08682019294003" lon="6.734534061562012"><ele>1930.2</ele><time>2026-05-01T14:19:24.001Z</time></trkpt><trkpt lat="45.086754924136976" lon="6.734475149587175"><ele>1933.0</ele><time>2026-05-01T14:19:25Z</time></trkpt><trkpt lat="45.0866941293144" lon="6.734415617666228"><ele>1931.0</ele><time>2026-05-01T14:19:26Z</time></trkpt><trkpt lat="45.08662078072666" lon="6.734319461952327"><ele>1929.0000000000002</ele><time>2026-05-01T14:19:28Z</time></trkpt><trkpt lat="45.08650820732488" lon="6.734221888903189"><ele>1927.0000000000002</ele><time>2026-05-01T14:19:30Z</time></trkpt><trkpt lat="45.086457866590315" lon="6.734128922598904"><ele>1925.0</ele><time>2026-05-01T14:19:32Z</time></trkpt><trkpt lat="45.08640455994191" lon="6.7340576859241805"><ele>1923.0</ele><time>2026-05-01T14:19:35Z</time></trkpt><trkpt lat="45.08632502641145" lon="6.733974476757071"><ele>1923.0</ele><time>2026-05-01T14:19:39Z</time></trkpt><trkpt lat="45.08627270219911" lon="6.733911495611854"><ele>1923.0</ele><time>2026-05-01T14:19:40Z</time></trkpt><trkpt lat="45.08622253097678" lon="6.733852135286805"><ele>1923.0</ele><time>2026-05-01T14:19:41Z</time></trkpt><trkpt lat="45.086105940253326" lon="6.733768449587655"><ele>1923.0</ele><time>2026-05-01T14:19:43Z</time></trkpt><trkpt lat="45.08600549079826" lon="6.733692361904977"><ele>1923.0</ele><time>2026-05-01T14:19:45Z</time></trkpt><trkpt lat="45.085944789824524" lon="6.733654074072018"><ele>1923.0</ele><time>2026-05-01T14:19:46Z</time></trkpt><trkpt lat="45.08588212833526" lon="6.733615834508334"><ele>1923.0</ele><time>2026-05-01T14:19:47Z</time></trkpt><trkpt lat="45.08577559813878" lon="6.733578026632657"><ele>1923.0</ele><time>2026-05-01T14:19:48Z</time></trkpt><trkpt lat="45.085693943223795" lon="6.733543310379322"><ele>1923.0</ele><time>2026-05-01T14:19:49Z</time></trkpt><trkpt lat="45.08562723685157" lon="6.7335006301531575"><ele>1923.0</ele><time>2026-05-01T14:19:50Z</time></trkpt><trkpt lat="45.08552176712701" lon="6.733485304818344"><ele>1923.0</ele><time>2026-05-01T14:19:52Z</time></trkpt><trkpt lat="45.085456369248604" lon="6.733461399843842"><ele>1923.0</ele><time>2026-05-01T14:19:53Z</time></trkpt><trkpt lat="45.08537537496262" lon="6.733423569119426"><ele>1922.6666666666667</ele><time>2026-05-01T14:19:54Z</time></trkpt><trkpt lat="45.08528517606066" lon="6.733406269214476"><ele>1922.3333333333335</ele><time>2026-05-01T14:19:55Z</time></trkpt><trkpt lat="45.085201611110946" lon="6.733396602386137"><ele>1922.0</ele><time>2026-05-01T14:19:56Z</time></trkpt><trkpt lat="45.08511982456575" lon="6.73333244337457"><ele>1921.6666666666667</ele><time>2026-05-01T14:19:58Z</time></trkpt><trkpt lat="45.08505753642465" lon="6.733346037543779"><ele>1921.3333333333335</ele><time>2026-05-01T14:20:16Z</time></trkpt><trkpt lat="45.085096008412" lon="6.733424608209911"><ele>1921.0</ele><time>2026-05-01T14:20:19Z</time></trkpt><trkpt lat="45.08515546941658" lon="6.733393706014747"><ele>1921.0</ele><time>2026-05-01T14:20:22Z</time></trkpt><trkpt lat="45.085169180942884" lon="6.733267959340648"><ele>1921.0</ele><time>2026-05-01T14:20:25Z</time></trkpt><trkpt lat="45.08505668768238" lon="6.733189382964829"><ele>1921.0</ele><time>2026-05-01T14:20:27Z</time></trkpt><trkpt lat="45.08502618924272" lon="6.733106419206215"><ele>1921.0</ele><time>2026-05-01T14:20:28Z</time></trkpt><trkpt lat="45.08497699479456" lon="6.732951089302551"><ele>1921.0</ele><time>2026-05-01T14:20:30Z</time></trkpt><trkpt lat="45.08495069570232" lon="6.73286805240851"><ele>1920.8</ele><time>2026-05-01T14:20:31Z</time></trkpt><trkpt lat="45.08489421773017" lon="6.7327128753879215"><ele>1920.6</ele><time>2026-05-01T14:20:33Z</time></trkpt><trkpt lat="45.08484891098736" lon="6.732581355089674"><ele>1920.4</ele><time>2026-05-01T14:20:35Z</time></trkpt><trkpt lat="45.08480828341224" lon="6.732485573705225"><ele>1920.2</ele><time>2026-05-01T14:20:37Z</time></trkpt><trkpt lat="45.084765537238354" lon="6.73240143343833"><ele>1920.0</ele><time>2026-05-01T14:20:39Z</time></trkpt><trkpt lat="45.084930704095534" lon="6.731980026717764"><ele>1916.4</ele><time>2026-05-01T14:20:42Z</time></trkpt><trkpt lat="45.08488611868608" lon="6.731849780312916"><ele>1912.8</ele><time>2026-05-01T14:20:44Z</time></trkpt><trkpt lat="45.084841886169734" lon="6.731716162869847"><ele>1909.1999999999998</ele><time>2026-05-01T14:20:47Z</time></trkpt><trkpt lat="45.08480876019414" lon="6.731586898683406"><ele>1905.6</ele><time>2026-05-01T14:20:49Z</time></trkpt><trkpt lat="45.08477144307167" lon="6.73147362247502"><ele>1902.0</ele><time>2026-05-01T14:20:51Z</time></trkpt><trkpt lat="45.08472712670703" lon="6.731377420024213"><ele>1902.0</ele><time>2026-05-01T14:20:53Z</time></trkpt><trkpt lat="45.08470028353848" lon="6.731291383403446"><ele>1901.9999999999998</ele><time>2026-05-01T14:20:55Z</time></trkpt><trkpt lat="45.08465780403748" lon="6.731188731301317"><ele>1901.9999999999998</ele><time>2026-05-01T14:20:59Z</time></trkpt><trkpt lat="45.08460332718335" lon="6.731064838198615"><ele>1902.0</ele><time>2026-05-01T14:21:01Z</time></trkpt><trkpt lat="45.0845729322689" lon="6.730932576647101"><ele>1902.0</ele><time>2026-05-01T14:21:03Z</time></trkpt><trkpt lat="45.084548411094474" lon="6.730791454318824"><ele>1898.0</ele><time>2026-05-01T14:21:05Z</time></trkpt><trkpt lat="45.084520934183566" lon="6.730677137785027"><ele>1894.0</ele><time>2026-05-01T14:21:07Z</time></trkpt><trkpt lat="45.084492489696906" lon="6.730548224437139"><ele>1890.0</ele><time>2026-05-01T14:21:09Z</time></trkpt><trkpt lat="45.08446552088003" lon="6.730433325305532"><ele>1886.0</ele><time>2026-05-01T14:21:11.001Z</time></trkpt><trkpt lat="45.08444591866427" lon="6.730323258158794"><ele>1882.0</ele><time>2026-05-01T14:21:13.001Z</time></trkpt><trkpt lat="45.084447733050254" lon="6.730217244058793"><ele>1878.0</ele><time>2026-05-01T14:21:15.001Z</time></trkpt><trkpt lat="45.08443935678273" lon="6.730111929316658"><ele>1874.0</ele><time>2026-05-01T14:21:17.001Z</time></trkpt><trkpt lat="45.084428326945456" lon="6.730006487970945"><ele>1870.0</ele><time>2026-05-01T14:21:19.001Z</time></trkpt><trkpt lat="45.084427823564084" lon="6.729907735503838"><ele>1866.0</ele><time>2026-05-01T14:21:21.001Z</time></trkpt><trkpt lat="45.08441689810991" lon="6.72978364938258"><ele>1862.0</ele><time>2026-05-01T14:21:23.001Z</time></trkpt><trkpt lat="45.08439688485006" lon="6.729647455462574"><ele>1858.0</ele><time>2026-05-01T14:21:25.001Z</time></trkpt><trkpt lat="45.0843735869436" lon="6.729563109630661"><ele>1854.0</ele><time>2026-05-01T14:21:26.001Z</time></trkpt><trkpt lat="45.084322436801585" lon="6.729436756146744"><ele>1850.6666666666667</ele><time>2026-05-01T14:21:28Z</time></trkpt><trkpt lat="45.08427625750614" lon="6.729295492431139"><ele>1847.3333333333335</ele><time>2026-05-01T14:21:30Z</time></trkpt><trkpt lat="45.08425031607241" lon="6.729197896626375"><ele>1844.0</ele><time>2026-05-01T14:21:32Z</time></trkpt><trkpt lat="45.08422292026235" lon="6.729091184195405"><ele>1840.6666666666667</ele><time>2026-05-01T14:21:34Z</time></trkpt><trkpt lat="45.084192272080706" lon="6.728983744006577"><ele>1837.3333333333335</ele><time>2026-05-01T14:21:36Z</time></trkpt><trkpt lat="45.08416596786381" lon="6.728875664353229"><ele>1834.0</ele><time>2026-05-01T14:21:38Z</time></trkpt><trkpt lat="45.084125621198794" lon="6.728754115623954"><ele>1834.6666666666667</ele><time>2026-05-01T14:21:40Z</time></trkpt><trkpt lat="45.08408303396083" lon="6.728632370318226"><ele>1835.3333333333335</ele><time>2026-05-01T14:21:42Z</time></trkpt><trkpt lat="45.08403725264468" lon="6.728538126076121"><ele>1836.0</ele><time>2026-05-01T14:21:44Z</time></trkpt><trkpt lat="45.08399974137477" lon="6.728462160429101"><ele>1836.6666666666665</ele><time>2026-05-01T14:21:46Z</time></trkpt><trkpt lat="45.08395916832764" lon="6.7283752146412406"><ele>1837.3333333333333</ele><time>2026-05-01T14:21:49Z</time></trkpt><trkpt lat="45.08388953791339" lon="6.7282894692277075"><ele>1838.0</ele><time>2026-05-01T14:21:52Z</time></trkpt><trkpt lat="45.08385536690354" lon="6.728201911903321"><ele>1833.9999999999998</ele><time>2026-05-01T14:21:54Z</time></trkpt><trkpt lat="45.083822685657175" lon="6.728077501844124"><ele>1830.0</ele><time>2026-05-01T14:21:57Z</time></trkpt><trkpt lat="45.08380512573803" lon="6.7279889936986095"><ele>1826.0</ele><time>2026-05-01T14:21:59Z</time></trkpt><trkpt lat="45.083778883020265" lon="6.727888699273039"><ele>1822.0</ele><time>2026-05-01T14:22:01Z</time></trkpt><trkpt lat="45.083746528897066" lon="6.727770866811917"><ele>1817.9999999999998</ele><time>2026-05-01T14:22:03Z</time></trkpt><trkpt lat="45.08370193669257" lon="6.7276699363516475"><ele>1814.0</ele><time>2026-05-01T14:22:05Z</time></trkpt><trkpt lat="45.0836559411359" lon="6.727561191663766"><ele>1811.1666666666665</ele><time>2026-05-01T14:22:07Z</time></trkpt><trkpt lat="45.083612079308246" lon="6.727458751853637"><ele>1808.3333333333333</ele><time>2026-05-01T14:22:09Z</time></trkpt><trkpt lat="45.083580497005876" lon="6.727354698048653"><ele>1805.5</ele><time>2026-05-01T14:22:11Z</time></trkpt><trkpt lat="45.08355371231536" lon="6.727250178726103"><ele>1802.6666666666665</ele><time>2026-05-01T14:22:13Z</time></trkpt><trkpt lat="45.0835337809445" lon="6.72715509012224"><ele>1799.8333333333333</ele><time>2026-05-01T14:22:15Z</time></trkpt><trkpt lat="45.08352669470507" lon="6.7270633258348775"><ele>1797.0</ele><time>2026-05-01T14:22:18Z</time></trkpt><trkpt lat="45.08351834055952" lon="6.726956337422581"><ele>1793.6666666666667</ele><time>2026-05-01T14:22:21Z</time></trkpt><trkpt lat="45.08351967754361" lon="6.726847865567735"><ele>1790.3333333333335</ele><time>2026-05-01T14:22:24Z</time></trkpt><trkpt lat="45.083521479904206" lon="6.726743028820767"><ele>1787.0</ele><time>2026-05-01T14:22:26Z</time></trkpt><trkpt lat="45.08349375033261" lon="6.726627149483471"><ele>1783.6666666666667</ele><time>2026-05-01T14:22:28Z</time></trkpt><trkpt lat="45.08346554123639" lon="6.726478051416832"><ele>1780.3333333333335</ele><time>2026-05-01T14:22:30Z</time></trkpt><trkpt lat="45.08345442267761" lon="6.726337873615194"><ele>1777.0</ele><time>2026-05-01T14:22:32Z</time></trkpt><trkpt lat="45.083441306326144" lon="6.726195699089246"><ele>1777.0000000000002</ele><time>2026-05-01T14:22:34Z</time></trkpt><trkpt lat="45.083438786311916" lon="6.726070307067687"><ele>1777.0</ele><time>2026-05-01T14:22:36Z</time></trkpt><trkpt lat="45.08343635230533" lon="6.725947441280056"><ele>1777.0</ele><time>2026-05-01T14:22:38Z</time></trkpt><trkpt lat="45.083419194867055" lon="6.7258276285426"><ele>1777.0</ele><time>2026-05-01T14:22:40Z</time></trkpt><trkpt lat="45.08338395106795" lon="6.725715124573504"><ele>1777.0000000000002</ele><time>2026-05-01T14:22:42Z</time></trkpt><trkpt lat="45.08330560364035" lon="6.725693041536677"><ele>1777.0</ele><time>2026-05-01T14:23:00Z</time></trkpt><trkpt lat="45.08324167218695" lon="6.725747563580943"><ele>1777.0</ele><time>2026-05-01T14:23:03Z</time></trkpt><trkpt lat="45.08322561142366" lon="6.725849027062375"><ele>1776.9999999999998</ele><time>2026-05-01T14:23:05Z</time></trkpt><trkpt lat="45.08325910832766" lon="6.726007295562224"><ele>1776.9999999999998</ele><time>2026-05-01T14:23:07Z</time></trkpt><trkpt lat="45.0832788234624" lon="6.726096322378473"><ele>1777.0</ele><time>2026-05-01T14:23:08Z</time></trkpt><trkpt lat="45.08330770410144" lon="6.726278435384989"><ele>1777.0</ele><time>2026-05-01T14:23:10Z</time></trkpt><trkpt lat="45.08331347364229" lon="6.726374549937674"><ele>1777.0</ele><time>2026-05-01T14:23:11Z</time></trkpt><trkpt lat="45.08330856892135" lon="6.726467903066324"><ele>1776.9999999999998</ele><time>2026-05-01T14:23:12Z</time></trkpt><trkpt lat="45.08326227172636" lon="6.726590742262077"><ele>1776.9999999999998</ele><time>2026-05-01T14:23:14Z</time></trkpt><trkpt lat="45.08319594624601" lon="6.726601686261797"><ele>1777.0</ele><time>2026-05-01T14:23:17Z</time></trkpt><trkpt lat="45.08307406986272" lon="6.7265904889393875"><ele>1777.0</ele><time>2026-05-01T14:23:20Z</time></trkpt><trkpt lat="45.082948384373246" lon="6.726566267386481"><ele>1776.6666666666667</ele><time>2026-05-01T14:23:22Z</time></trkpt><trkpt lat="45.08288392892053" lon="6.726567518204724"><ele>1776.3333333333335</ele><time>2026-05-01T14:23:23Z</time></trkpt><trkpt lat="45.08277249878603" lon="6.7265639934114665"><ele>1776.0</ele><time>2026-05-01T14:23:25Z</time></trkpt><trkpt lat="45.082705970747426" lon="6.726549091650073"><ele>1775.6666666666665</ele><time>2026-05-01T14:23:26Z</time></trkpt><trkpt lat="45.08263376856245" lon="6.726534717345062"><ele>1775.3333333333333</ele><time>2026-05-01T14:23:27Z</time></trkpt><trkpt lat="45.082552600675335" lon="6.726502128974699"><ele>1775.0</ele><time>2026-05-01T14:23:28Z</time></trkpt><trkpt lat="45.082485631289295" lon="6.72647072694953"><ele>1773.6666666666665</ele><time>2026-05-01T14:23:29Z</time></trkpt><trkpt lat="45.082426683048496" lon="6.726432986437235"><ele>1772.3333333333333</ele><time>2026-05-01T14:23:30Z</time></trkpt><trkpt lat="45.082365667950995" lon="6.726376311643507"><ele>1771.0</ele><time>2026-05-01T14:23:31Z</time></trkpt><trkpt lat="45.08229721927237" lon="6.7263456269758795"><ele>1769.6666666666665</ele><time>2026-05-01T14:23:32Z</time></trkpt><trkpt lat="45.08223194305931" lon="6.7263145592421125"><ele>1768.3333333333333</ele><time>2026-05-01T14:23:33Z</time></trkpt><trkpt lat="45.082119731014814" lon="6.726285372037947"><ele>1767.0</ele><time>2026-05-01T14:23:35Z</time></trkpt><trkpt lat="45.0820565914236" lon="6.726258148558874"><ele>1767.0</ele><time>2026-05-01T14:23:36Z</time></trkpt><trkpt lat="45.08199471823416" lon="6.726237035818237"><ele>1766.9999999999998</ele><time>2026-05-01T14:23:37Z</time></trkpt><trkpt lat="45.08191709114429" lon="6.726224506248438"><ele>1766.9999999999998</ele><time>2026-05-01T14:23:38Z</time></trkpt><trkpt lat="45.08182797234852" lon="6.726173503753633"><ele>1767.0</ele><time>2026-05-01T14:23:40Z</time></trkpt><trkpt lat="45.08171390738574" lon="6.726160175090961"><ele>1767.0</ele><time>2026-05-01T14:23:42Z</time></trkpt><trkpt lat="45.08159423391719" lon="6.72612643614641"><ele>1765.1666666666667</ele><time>2026-05-01T14:23:44Z</time></trkpt><trkpt lat="45.08148940423336" lon="6.726065290812628"><ele>1763.3333333333335</ele><time>2026-05-01T14:23:46Z</time></trkpt><trkpt lat="45.08138721610736" lon="6.726003720593638"><ele>1761.5</ele><time>2026-05-01T14:23:48Z</time></trkpt><trkpt lat="45.08132273732925" lon="6.725966311773359"><ele>1759.6666666666667</ele><time>2026-05-01T14:23:49Z</time></trkpt><trkpt lat="45.0812593619477" lon="6.725931192748677"><ele>1757.8333333333335</ele><time>2026-05-01T14:23:50Z</time></trkpt><trkpt lat="45.08120604523599" lon="6.72588327160992"><ele>1756.0</ele><time>2026-05-01T14:23:51Z</time></trkpt><trkpt lat="45.081140369904084" lon="6.725841855355198"><ele>1752.8</ele><time>2026-05-01T14:23:52Z</time></trkpt><trkpt lat="45.08102666076468" lon="6.725765723791273"><ele>1749.6</ele><time>2026-05-01T14:23:54Z</time></trkpt><trkpt lat="45.080968494961404" lon="6.725727419098003"><ele>1746.4</ele><time>2026-05-01T14:23:55Z</time></trkpt><trkpt lat="45.08092501761484" lon="6.725662913111259"><ele>1743.2</ele><time>2026-05-01T14:23:56Z</time></trkpt><trkpt lat="45.080833161845135" lon="6.725537495893949"><ele>1740.0</ele><time>2026-05-01T14:23:58Z</time></trkpt><trkpt lat="45.080731252984705" lon="6.725472570908093"><ele>1738.0</ele><time>2026-05-01T14:24:00Z</time></trkpt><trkpt lat="45.08062409609361" lon="6.725389317428059"><ele>1736.0</ele><time>2026-05-01T14:24:02Z</time></trkpt><trkpt lat="45.08055736381521" lon="6.725340813792181"><ele>1734.0</ele><time>2026-05-01T14:24:03Z</time></trkpt><trkpt lat="45.080500589883506" lon="6.725301157586355"><ele>1732.0</ele><time>2026-05-01T14:24:04Z</time></trkpt><trkpt lat="45.080399708109645" lon="6.725243696873988"><ele>1730.0</ele><time>2026-05-01T14:24:06Z</time></trkpt><trkpt lat="45.0803266973529" lon="6.725136709896548"><ele>1726.0</ele><time>2026-05-01T14:24:08Z</time></trkpt><trkpt lat="45.08023589060691" lon="6.725030821872465"><ele>1722.0</ele><time>2026-05-01T14:24:10Z</time></trkpt><trkpt lat="45.0801320814865" lon="6.724935577782689"><ele>1718.0</ele><time>2026-05-01T14:24:12Z</time></trkpt><trkpt lat="45.08003715995007" lon="6.724842371176954"><ele>1714.0</ele><time>2026-05-01T14:24:14Z</time></trkpt><trkpt lat="45.0799426277793" lon="6.72475681977667"><ele>1714.0000000000002</ele><time>2026-05-01T14:24:16Z</time></trkpt><trkpt lat="45.079901659383935" lon="6.724686225395324"><ele>1714.0</ele><time>2026-05-01T14:24:18Z</time></trkpt><trkpt lat="45.079890167231405" lon="6.724570236885727"><ele>1714.0</ele><time>2026-05-01T14:24:20Z</time></trkpt><trkpt lat="45.08001191191459" lon="6.7244496883815215"><ele>1714.0</ele><time>2026-05-01T14:24:21Z</time></trkpt><trkpt lat="45.07999073869864" lon="6.724343452260393"><ele>1714.0000000000002</ele><time>2026-05-01T14:24:25Z</time></trkpt><trkpt lat="45.079968171289934" lon="6.724254299759996"><ele>1714.0</ele><time>2026-05-01T14:24:27Z</time></trkpt><trkpt lat="45.07995541509411" lon="6.724161490861752"><ele>1709.8333333333335</ele><time>2026-05-01T14:24:28Z</time></trkpt><trkpt lat="45.07991807975698" lon="6.724056248146023"><ele>1705.6666666666667</ele><time>2026-05-01T14:24:29Z</time></trkpt><trkpt lat="45.079880809130465" lon="6.723958318892127"><ele>1701.5</ele><time>2026-05-01T14:24:30Z</time></trkpt><trkpt lat="45.079855482040344" lon="6.723873846004446"><ele>1697.3333333333335</ele><time>2026-05-01T14:24:31Z</time></trkpt><trkpt lat="45.07980009078059" lon="6.723722982191522"><ele>1693.1666666666667</ele><time>2026-05-01T14:24:33Z</time></trkpt><trkpt lat="45.07977640710351" lon="6.723585567481886"><ele>1689.0</ele><time>2026-05-01T14:24:35Z</time></trkpt><trkpt lat="45.0797163350354" lon="6.723517988579909"><ele>1685.4</ele><time>2026-05-01T14:24:37Z</time></trkpt><trkpt lat="45.079629262745286" lon="6.72347932943503"><ele>1681.8000000000002</ele><time>2026-05-01T14:24:39Z</time></trkpt><trkpt lat="45.079554130078265" lon="6.723450534325042"><ele>1678.1999999999998</ele><time>2026-05-01T14:24:41Z</time></trkpt><trkpt lat="45.07945603768243" lon="6.723456023948317"><ele>1674.6</ele><time>2026-05-01T14:24:43Z</time></trkpt><trkpt lat="45.07933898639327" lon="6.723516273203047"><ele>1671.0</ele><time>2026-05-01T14:24:45Z</time></trkpt><trkpt lat="45.07923379751747" lon="6.723533635988643"><ele>1671.0</ele><time>2026-05-01T14:24:47Z</time></trkpt><trkpt lat="45.07914323132539" lon="6.723512550071422"><ele>1671.0</ele><time>2026-05-01T14:24:49Z</time></trkpt><trkpt lat="45.0790966623571" lon="6.7234200817078325"><ele>1671.0</ele><time>2026-05-01T14:24:50.999Z</time></trkpt><trkpt lat="45.079107958848105" lon="6.723320381572266"><ele>1671.0</ele><time>2026-05-01T14:24:52.999Z</time></trkpt><trkpt lat="45.0791203503491" lon="6.723232594686642"><ele>1671.0</ele><time>2026-05-01T14:24:54.999Z</time></trkpt><trkpt lat="45.07918142466206" lon="6.723088499797656"><ele>1671.0</ele><time>2026-05-01T14:24:56.999Z</time></trkpt><trkpt lat="45.07921569715949" lon="6.723008271830597"><ele>1671.0</ele><time>2026-05-01T14:24:57.999Z</time></trkpt><trkpt lat="45.07925557554374" lon="6.722919408225874"><ele>1671.0</ele><time>2026-05-01T14:24:58.999Z</time></trkpt><trkpt lat="45.07931945268916" lon="6.722776438613712"><ele>1671.0</ele><time>2026-05-01T14:25:00.999Z</time></trkpt><trkpt lat="45.07941384406731" lon="6.722654657943589"><ele>1671.0</ele><time>2026-05-01T14:25:02.999Z</time></trkpt><trkpt lat="45.07948133295608" lon="6.722542098558133"><ele>1671.0</ele><time>2026-05-01T14:25:04.999Z</time></trkpt><trkpt lat="45.079522466263974" lon="6.72242525874527"><ele>1666.8</ele><time>2026-05-01T14:25:06.999Z</time></trkpt><trkpt lat="45.07954711658647" lon="6.722263296520096"><ele>1662.6</ele><time>2026-05-01T14:25:08.999Z</time></trkpt><trkpt lat="45.07957526943106" lon="6.7221074557318765"><ele>1658.4</ele><time>2026-05-01T14:25:10.999Z</time></trkpt><trkpt lat="45.07961467505669" lon="6.722013659540677"><ele>1654.2</ele><time>2026-05-01T14:25:12.999Z</time></trkpt><trkpt lat="45.07967230140008" lon="6.721916196096796"><ele>1650.0</ele><time>2026-05-01T14:26:38.999Z</time></trkpt><trkpt lat="45.07971143468948" lon="6.721811252663271"><ele>1644.4</ele><time>2026-05-01T14:26:40.999Z</time></trkpt><trkpt lat="45.079719582371766" lon="6.721688276075339"><ele>1638.8</ele><time>2026-05-01T14:26:42.999Z</time></trkpt><trkpt lat="45.07970172143644" lon="6.721595751941623"><ele>1633.1999999999998</ele><time>2026-05-01T14:28:33.999Z</time></trkpt><trkpt lat="45.079738615317716" lon="6.721473962850801"><ele>1627.6</ele><time>2026-05-01T14:28:36.999Z</time></trkpt><trkpt lat="45.079812446350545" lon="6.721392263015048"><ele>1622.0</ele><time>2026-05-01T14:28:38.999Z</time></trkpt><trkpt lat="45.07988631497391" lon="6.721267782244678"><ele>1622.3999999999999</ele><time>2026-05-01T14:28:40.999Z</time></trkpt><trkpt lat="45.07998408809754" lon="6.721160288035196"><ele>1622.8</ele><time>2026-05-01T14:28:42.999Z</time></trkpt><trkpt lat="45.08009363025047" lon="6.721070049208945"><ele>1623.2</ele><time>2026-05-01T14:28:44.999Z</time></trkpt><trkpt lat="45.08017543693" lon="6.720959676717924"><ele>1623.6</ele><time>2026-05-01T14:28:46.999Z</time></trkpt><trkpt lat="45.08024350286966" lon="6.720892861701774"><ele>1624.0</ele><time>2026-05-01T14:28:48.999Z</time></trkpt><trkpt lat="45.08029796844983" lon="6.72084704517564"><ele>1624.0000000000002</ele><time>2026-05-01T14:28:50.999Z</time></trkpt><trkpt lat="45.08037164320027" lon="6.720803106802199"><ele>1624.0</ele><time>2026-05-01T14:28:52.999Z</time></trkpt><trkpt lat="45.08044482349863" lon="6.720762748064536"><ele>1624.0</ele><time>2026-05-01T14:28:54.999Z</time></trkpt><trkpt lat="45.08054766027971" lon="6.72075396066029"><ele>1624.0</ele><time>2026-05-01T14:28:56.999Z</time></trkpt><trkpt lat="45.08066184562327" lon="6.720791495181676"><ele>1624.0000000000002</ele><time>2026-05-01T14:28:58.999Z</time></trkpt><trkpt lat="45.080716692572686" lon="6.720840539204567"><ele>1624.0</ele><time>2026-05-01T14:28:59.999Z</time></trkpt><trkpt lat="45.08079296463319" lon="6.720915423859843"><ele>1624.0000000000002</ele><time>2026-05-01T14:29:01.999Z</time></trkpt><trkpt lat="45.08086335592681" lon="6.720917926331983"><ele>1624.0</ele><time>2026-05-01T14:29:04.999Z</time></trkpt><trkpt lat="45.080862604681954" lon="6.72077804979143"><ele>1624.0</ele><time>2026-05-01T14:29:06.999Z</time></trkpt><trkpt lat="45.08080426126209" lon="6.720718006030926"><ele>1624.0</ele><time>2026-05-01T14:29:10.999Z</time></trkpt><trkpt lat="45.080770949072615" lon="6.720636974196062"><ele>1624.0000000000002</ele><time>2026-05-01T14:29:14.999Z</time></trkpt><trkpt lat="45.0807263411407" lon="6.720561442656701"><ele>1624.0</ele><time>2026-05-01T14:29:16.999Z</time></trkpt><trkpt lat="45.08065519052495" lon="6.720467915800988"><ele>1624.0</ele><time>2026-05-01T14:29:18.999Z</time></trkpt><trkpt lat="45.080566224377655" lon="6.720386158885156"><ele>1624.0</ele><time>2026-05-01T14:29:20.999Z</time></trkpt><trkpt lat="45.08046295003974" lon="6.720347262822954"><ele>1624.0</ele><time>2026-05-01T14:29:22.999Z</time></trkpt><trkpt lat="45.08033895558057" lon="6.720377049209466"><ele>1624.0</ele><time>2026-05-01T14:29:24.999Z</time></trkpt><trkpt lat="45.08027393375883" lon="6.720387933258652"><ele>1624.0</ele><time>2026-05-01T14:29:25.999Z</time></trkpt><trkpt lat="45.080206951181815" lon="6.720404000424701"><ele>1624.0</ele><time>2026-05-01T14:29:26.999Z</time></trkpt><trkpt lat="45.08014913766071" lon="6.720447092529396"><ele>1624.0</ele><time>2026-05-01T14:29:27.999Z</time></trkpt><trkpt lat="45.08007968225113" lon="6.720458339788866"><ele>1624.0</ele><time>2026-05-01T14:29:28.999Z</time></trkpt><trkpt lat="45.08000990792085" lon="6.720473416416469"><ele>1624.0</ele><time>2026-05-01T14:29:29.999Z</time></trkpt><trkpt lat="45.07993821169814" lon="6.720491760975947"><ele>1624.0</ele><time>2026-05-01T14:29:30.999Z</time></trkpt><trkpt lat="45.07986790644743" lon="6.720508931757062"><ele>1624.0</ele><time>2026-05-01T14:29:31.999Z</time></trkpt><trkpt lat="45.07980276240999" lon="6.7205237181134505"><ele>1624.0</ele><time>2026-05-01T14:29:32.999Z</time></trkpt><trkpt lat="45.0796822172952" lon="6.72054131430375"><ele>1619.2</ele><time>2026-05-01T14:29:34.999Z</time></trkpt><trkpt lat="45.07956618659373" lon="6.720582903234203"><ele>1614.4</ele><time>2026-05-01T14:29:36.999Z</time></trkpt><trkpt lat="45.07945471587814" lon="6.720619844914869"><ele>1609.6</ele><time>2026-05-01T14:29:38.999Z</time></trkpt><trkpt lat="45.07938462152114" lon="6.720644995447674"><ele>1604.8</ele><time>2026-05-01T14:29:39.999Z</time></trkpt><trkpt lat="45.07930930425507" lon="6.720678588466508"><ele>1600.0</ele><time>2026-05-01T14:29:40.999Z</time></trkpt><trkpt lat="45.07923384571836" lon="6.720714437207094"><ele>1600.0000000000002</ele><time>2026-05-01T14:29:41.999Z</time></trkpt><trkpt lat="45.0791597945389" lon="6.720756491578972"><ele>1600.0</ele><time>2026-05-01T14:29:42.999Z</time></trkpt><trkpt lat="45.079093879199974" lon="6.720792093938729"><ele>1600.0</ele><time>2026-05-01T14:29:44Z</time></trkpt><trkpt lat="45.07899379708107" lon="6.720866216036334"><ele>1600.0</ele><time>2026-05-01T14:29:46Z</time></trkpt><trkpt lat="45.07889618860554" lon="6.720953209544229"><ele>1600.0000000000002</ele><time>2026-05-01T14:29:48Z</time></trkpt><trkpt lat="45.07883079705107" lon="6.720950526263001"><ele>1600.0</ele><time>2026-05-01T14:29:49Z</time></trkpt><trkpt lat="45.07872420422348" lon="6.7210198845697"><ele>1597.6</ele><time>2026-05-01T14:29:51Z</time></trkpt><trkpt lat="45.07863115453977" lon="6.721102081544807"><ele>1595.2</ele><time>2026-05-01T14:29:53Z</time></trkpt><trkpt lat="45.07855666074698" lon="6.721185413792159"><ele>1592.8000000000002</ele><time>2026-05-01T14:29:55Z</time></trkpt><trkpt lat="45.07848505757816" lon="6.721305290135171"><ele>1590.4</ele><time>2026-05-01T14:29:57Z</time></trkpt><trkpt lat="45.078419217695334" lon="6.721418909418376"><ele>1588.0</ele><time>2026-05-01T14:29:59Z</time></trkpt><trkpt lat="45.0783488030691" lon="6.72149538728201"><ele>1588.0000000000002</ele><time>2026-05-01T14:30:01Z</time></trkpt><trkpt lat="45.07829210734184" lon="6.721552917855035"><ele>1588.0</ele><time>2026-05-01T14:30:03Z</time></trkpt><trkpt lat="45.07822057779457" lon="6.721598940735373"><ele>1588.0</ele><time>2026-05-01T14:30:06Z</time></trkpt><trkpt lat="45.07814531021494" lon="6.721608845738708"><ele>1588.0</ele><time>2026-05-01T14:30:10Z</time></trkpt><trkpt lat="45.07805985729898" lon="6.72163052439066"><ele>1588.0000000000002</ele><time>2026-05-01T14:30:12Z</time></trkpt><trkpt lat="45.077978075303" lon="6.721670851244948"><ele>1588.0</ele><time>2026-05-01T14:30:14Z</time></trkpt><trkpt lat="45.077894127408925" lon="6.721779681866804"><ele>1585.8333333333335</ele><time>2026-05-01T14:30:16Z</time></trkpt><trkpt lat="45.077823853039504" lon="6.721876973404963"><ele>1583.6666666666667</ele><time>2026-05-01T14:30:18Z</time></trkpt><trkpt lat="45.07778952189551" lon="6.721965200129801"><ele>1581.5</ele><time>2026-05-01T14:30:20Z</time></trkpt><trkpt lat="45.077735685224155" lon="6.7220617506262945"><ele>1579.3333333333335</ele><time>2026-05-01T14:30:22Z</time></trkpt><trkpt lat="45.07769178313261" lon="6.72213143033766"><ele>1577.1666666666667</ele><time>2026-05-01T14:30:24Z</time></trkpt><trkpt lat="45.07763128510258" lon="6.722173397088878"><ele>1575.0</ele><time>2026-05-01T14:30:26Z</time></trkpt><trkpt lat="45.07756059660048" lon="6.722217583916331"><ele>1575.0</ele><time>2026-05-01T14:30:28Z</time></trkpt><trkpt lat="45.07747442944075" lon="6.722239218034119"><ele>1575.0</ele><time>2026-05-01T14:30:30Z</time></trkpt><trkpt lat="45.07737008715476" lon="6.722265461965587"><ele>1575.0</ele><time>2026-05-01T14:30:32Z</time></trkpt><trkpt lat="45.07730778022592" lon="6.722300803055863"><ele>1575.0</ele><time>2026-05-01T14:30:33Z</time></trkpt><trkpt lat="45.07724589738598" lon="6.722355239882688"><ele>1575.0</ele><time>2026-05-01T14:30:34Z</time></trkpt><trkpt lat="45.0771893328925" lon="6.722407083002834"><ele>1575.0</ele><time>2026-05-01T14:30:35Z</time></trkpt><trkpt lat="45.07713485958565" lon="6.722457626558046"><ele>1572.4</ele><time>2026-05-01T14:30:36Z</time></trkpt><trkpt lat="45.07707868555861" lon="6.722509748133817"><ele>1569.8</ele><time>2026-05-01T14:30:37Z</time></trkpt><trkpt lat="45.076978148394126" lon="6.722598812401641"><ele>1567.1999999999998</ele><time>2026-05-01T14:30:39Z</time></trkpt><trkpt lat="45.076894938300775" lon="6.722688383700321"><ele>1564.6</ele><time>2026-05-01T14:30:41Z</time></trkpt><trkpt lat="45.07679378425112" lon="6.722726228433563"><ele>1562.0</ele><time>2026-05-01T14:30:43Z</time></trkpt><trkpt lat="45.07669104614697" lon="6.722740014949198"><ele>1555.6</ele><time>2026-05-01T14:30:45Z</time></trkpt><trkpt lat="45.076590564804945" lon="6.722718392809193"><ele>1549.1999999999998</ele><time>2026-05-01T14:30:47Z</time></trkpt><trkpt lat="45.07648604460456" lon="6.722734784263067"><ele>1542.8</ele><time>2026-05-01T14:30:49Z</time></trkpt><trkpt lat="45.07636458194344" lon="6.722785553201322"><ele>1536.4</ele><time>2026-05-01T14:30:51Z</time></trkpt><trkpt lat="45.07630150424593" lon="6.7228188131479"><ele>1530.0</ele><time>2026-05-01T14:30:52Z</time></trkpt><trkpt lat="45.076190173897906" lon="6.722874253688061"><ele>1530.0</ele><time>2026-05-01T14:30:54Z</time></trkpt><trkpt lat="45.0760869009601" lon="6.72292290362626"><ele>1530.0</ele><time>2026-05-01T14:30:56Z</time></trkpt><trkpt lat="45.076006123443804" lon="6.722997013461267"><ele>1530.0</ele><time>2026-05-01T14:30:58Z</time></trkpt><trkpt lat="45.07598245257907" lon="6.723080021181675"><ele>1530.0</ele><time>2026-05-01T14:31:00Z</time></trkpt><trkpt lat="45.07595068913742" lon="6.72315788972994"><ele>1530.0</ele><time>2026-05-01T14:31:03Z</time></trkpt><trkpt lat="45.07590389713993" lon="6.723239084844457"><ele>1530.0</ele><time>2026-05-01T14:31:04Z</time></trkpt><trkpt lat="45.075839242974986" lon="6.723300352728024"><ele>1524.0</ele><time>2026-05-01T14:31:07Z</time></trkpt><trkpt lat="45.075552114511304" lon="6.723446142646738"><ele>1518.0</ele><time>2026-05-01T14:31:08.999Z</time></trkpt><trkpt lat="45.07549142709254" lon="6.723420725481418"><ele>1512.0</ele><time>2026-05-01T14:31:09.999Z</time></trkpt><trkpt lat="45.07538417201696" lon="6.723384606449497"><ele>1512.0</ele><time>2026-05-01T14:31:11.999Z</time></trkpt><trkpt lat="45.075308166122824" lon="6.723353768450533"><ele>1512.0</ele><time>2026-05-01T14:31:13.999Z</time></trkpt><trkpt lat="45.07523329887915" lon="6.723387148293206"><ele>1512.0</ele><time>2026-05-01T14:32:57Z</time></trkpt><trkpt lat="45.07517082235004" lon="6.723344470836158"><ele>1512.0</ele><time>2026-05-01T14:32:58Z</time></trkpt><trkpt lat="45.07507688870469" lon="6.723254436866077"><ele>1512.0</ele><time>2026-05-01T14:33:00Z</time></trkpt><trkpt lat="45.074966938412594" lon="6.7233370442892575"><ele>1511.0</ele><time>2026-05-01T14:33:02Z</time></trkpt><trkpt lat="45.074893910107434" lon="6.723369349021169"><ele>1510.0</ele><time>2026-05-01T14:33:03Z</time></trkpt><trkpt lat="45.07482031795885" lon="6.723412022967281"><ele>1509.0</ele><time>2026-05-01T14:33:04Z</time></trkpt><trkpt lat="45.07474116704582" lon="6.723467238182344"><ele>1508.0</ele><time>2026-05-01T14:33:05Z</time></trkpt><trkpt lat="45.07468453782146" lon="6.723530451884596"><ele>1507.0</ele><time>2026-05-01T14:33:06Z</time></trkpt><trkpt lat="45.07464539445491" lon="6.723609424970399"><ele>1506.0</ele><time>2026-05-01T14:33:07Z</time></trkpt><trkpt lat="45.07460027773562" lon="6.723682497576169"><ele>1506.0</ele><time>2026-05-01T14:33:08Z</time></trkpt><trkpt lat="45.074539531833764" lon="6.723738421940667"><ele>1506.0</ele><time>2026-05-01T14:33:09Z</time></trkpt><trkpt lat="45.07449921140642" lon="6.72382599079013"><ele>1506.0</ele><time>2026-05-01T14:33:10Z</time></trkpt><trkpt lat="45.074437409795095" lon="6.72390417944055"><ele>1506.0</ele><time>2026-05-01T14:33:11Z</time></trkpt><trkpt lat="45.07438348022696" lon="6.723973779837822"><ele>1506.0</ele><time>2026-05-01T14:33:12Z</time></trkpt><trkpt lat="45.07432734502313" lon="6.72402843791295"><ele>1506.0</ele><time>2026-05-01T14:33:13Z</time></trkpt><trkpt lat="45.07430511954384" lon="6.724117793330498"><ele>1506.0</ele><time>2026-05-01T14:33:14Z</time></trkpt><trkpt lat="45.07428869835502" lon="6.72422834260128"><ele>1506.0</ele><time>2026-05-01T14:33:16Z</time></trkpt><trkpt lat="45.074263117731995" lon="6.7243413909564325"><ele>1506.0</ele><time>2026-05-01T14:33:18Z</time></trkpt><trkpt lat="45.074186107966476" lon="6.7243622786690045"><ele>1506.0</ele><time>2026-05-01T14:33:21Z</time></trkpt><trkpt lat="45.07418023071047" lon="6.724263060181662"><ele>1506.0</ele><time>2026-05-01T14:33:23Z</time></trkpt><trkpt lat="45.074135591761475" lon="6.724190097321082"><ele>1506.0</ele><time>2026-05-01T14:33:25Z</time></trkpt><trkpt lat="45.07408975056356" lon="6.724109177624923"><ele>1506.0</ele><time>2026-05-01T14:33:27Z</time></trkpt><trkpt lat="45.07401274988151" lon="6.7239895308708"><ele>1503.3333333333333</ele><time>2026-05-01T14:33:29Z</time></trkpt><trkpt lat="45.07395908139664" lon="6.723926658391596"><ele>1500.6666666666667</ele><time>2026-05-01T14:33:31Z</time></trkpt><trkpt lat="45.07387068523142" lon="6.72384016730237"><ele>1498.0</ele><time>2026-05-01T14:33:34Z</time></trkpt><trkpt lat="45.07378584207679" lon="6.723800499898909"><ele>1495.3333333333335</ele><time>2026-05-01T14:33:36Z</time></trkpt><trkpt lat="45.07370309524715" lon="6.7238191434999655"><ele>1492.6666666666667</ele><time>2026-05-01T14:33:38Z</time></trkpt><trkpt lat="45.073615610135164" lon="6.723859446455611"><ele>1490.0</ele><time>2026-05-01T14:33:40Z</time></trkpt><trkpt lat="45.07354234662286" lon="6.723895151342595"><ele>1490.0</ele><time>2026-05-01T14:33:42Z</time></trkpt><trkpt lat="45.07347435816196" lon="6.723928502416201"><ele>1490.0</ele><time>2026-05-01T14:33:45Z</time></trkpt><trkpt lat="45.07340185232371" lon="6.723961159059136"><ele>1490.0</ele><time>2026-05-01T14:33:47Z</time></trkpt><trkpt lat="45.07333543797564" lon="6.723990621083311"><ele>1490.0</ele><time>2026-05-01T14:33:48Z</time></trkpt><trkpt lat="45.07327582561035" lon="6.724037264224006"><ele>1490.0</ele><time>2026-05-01T14:33:49Z</time></trkpt><trkpt lat="45.07320727354178" lon="6.724057263385784"><ele>1490.0</ele><time>2026-05-01T14:33:50Z</time></trkpt><trkpt lat="45.073138909476" lon="6.7240858301531325"><ele>1490.0</ele><time>2026-05-01T14:33:51Z</time></trkpt><trkpt lat="45.073031117167815" lon="6.72412890056382"><ele>1489.8333333333335</ele><time>2026-05-01T14:33:53Z</time></trkpt><trkpt lat="45.072948305485845" lon="6.724146795497091"><ele>1489.6666666666667</ele><time>2026-05-01T14:33:55Z</time></trkpt><trkpt lat="45.072871942312275" lon="6.724168653778639"><ele>1489.5</ele><time>2026-05-01T14:33:59Z</time></trkpt><trkpt lat="45.07277263164117" lon="6.724251373900364"><ele>1489.3333333333333</ele><time>2026-05-01T14:34:01Z</time></trkpt><trkpt lat="45.07271043345904" lon="6.724306662444584"><ele>1489.1666666666665</ele><time>2026-05-01T14:34:02Z</time></trkpt><trkpt lat="45.0726600714778" lon="6.724364915562633"><ele>1489.0</ele><time>2026-05-01T14:34:03Z</time></trkpt><trkpt lat="45.07261992886341" lon="6.7244400793242995"><ele>1489.0</ele><time>2026-05-01T14:34:04Z</time></trkpt><trkpt lat="45.07254625808163" lon="6.724517396473259"><ele>1489.0</ele><time>2026-05-01T14:34:05Z</time></trkpt><trkpt lat="45.07248711227837" lon="6.72457852776326"><ele>1489.0</ele><time>2026-05-01T14:34:06Z</time></trkpt><trkpt lat="45.072387461021634" lon="6.724696965713381"><ele>1489.0</ele><time>2026-05-01T14:34:08Z</time></trkpt><trkpt lat="45.07233414296525" lon="6.724791956712126"><ele>1489.0</ele><time>2026-05-01T14:34:10Z</time></trkpt><trkpt lat="45.07238088251129" lon="6.724711009850793"><ele>1489.0</ele><time>2026-05-01T14:34:18Z</time></trkpt><trkpt lat="45.07243189240411" lon="6.72462752315584"><ele>1489.0</ele><time>2026-05-01T14:34:20Z</time></trkpt><trkpt lat="45.07252547134866" lon="6.724524008149206"><ele>1489.0</ele><time>2026-05-01T14:34:22Z</time></trkpt><trkpt lat="45.07261532784374" lon="6.724642944998101"><ele>1489.0</ele><time>2026-05-01T14:34:23Z</time></trkpt><trkpt lat="45.0727156412427" lon="6.724605503495663"><ele>1489.0</ele><time>2026-05-01T14:34:24Z</time></trkpt><trkpt lat="45.07312167775786" lon="6.724126781413042"><ele>1489.2</ele><time>2026-05-01T14:34:34Z</time></trkpt><trkpt lat="45.07318751536759" lon="6.724095723466461"><ele>1489.4</ele><time>2026-05-01T14:34:35Z</time></trkpt><trkpt lat="45.073305426446076" lon="6.724056633090145"><ele>1489.6</ele><time>2026-05-01T14:34:37Z</time></trkpt><trkpt lat="45.07339659805946" lon="6.72400169257265"><ele>1489.8</ele><time>2026-05-01T14:34:39Z</time></trkpt><trkpt lat="45.07347506356131" lon="6.72395838458663"><ele>1490.0</ele><time>2026-05-01T14:34:41Z</time></trkpt><trkpt lat="45.073572829322835" lon="6.723929994719637"><ele>1490.0</ele><time>2026-05-01T14:34:44Z</time></trkpt><trkpt lat="45.073652737564906" lon="6.7238943266429025"><ele>1490.0</ele><time>2026-05-01T14:34:46Z</time></trkpt><trkpt lat="45.07372708467194" lon="6.723859721556233"><ele>1490.0</ele><time>2026-05-01T14:34:48Z</time></trkpt><trkpt lat="45.07381460512213" lon="6.723841538094006"><ele>1490.0</ele><time>2026-05-01T14:34:50Z</time></trkpt><trkpt lat="45.073879240055774" lon="6.723902757307962"><ele>1490.0</ele><time>2026-05-01T14:34:52Z</time></trkpt><trkpt lat="45.07393509662293" lon="6.723960395747462"><ele>1490.0</ele><time>2026-05-01T14:34:54Z</time></trkpt><trkpt lat="45.074003940717255" lon="6.724042927104497"><ele>1490.0</ele><time>2026-05-01T14:34:56Z</time></trkpt><trkpt lat="45.074069916170465" lon="6.724149392871965"><ele>1490.0</ele><time>2026-05-01T14:34:58Z</time></trkpt><trkpt lat="45.074149203822145" lon="6.724284201517793"><ele>1490.0</ele><time>2026-05-01T14:35:00Z</time></trkpt><trkpt lat="45.074205182475175" lon="6.724355258542214"><ele>1490.0</ele><time>2026-05-01T14:35:03Z</time></trkpt><trkpt lat="45.07427214017461" lon="6.724398867840079"><ele>1490.0</ele><time>2026-05-01T14:35:05Z</time></trkpt><trkpt lat="45.07433385313058" lon="6.724262744404812"><ele>1493.2</ele><time>2026-05-01T14:35:07Z</time></trkpt><trkpt lat="45.074322528071306" lon="6.724146084029862"><ele>1496.4</ele><time>2026-05-01T14:35:08Z</time></trkpt><trkpt lat="45.07436641263337" lon="6.724038957719336"><ele>1499.6</ele><time>2026-05-01T14:35:10Z</time></trkpt><trkpt lat="45.07442097430761" lon="6.72395034655163"><ele>1502.8</ele><time>2026-05-01T14:35:12Z</time></trkpt><trkpt lat="45.074489952615" lon="6.7238450592191645"><ele>1506.0</ele><time>2026-05-01T14:35:14Z</time></trkpt><trkpt lat="45.074567910140225" lon="6.7237649083912"><ele>1506.0</ele><time>2026-05-01T14:35:16Z</time></trkpt><trkpt lat="45.07463051569203" lon="6.723677850012744"><ele>1506.0</ele><time>2026-05-01T14:35:18Z</time></trkpt><trkpt lat="45.07469380431856" lon="6.723567531404865"><ele>1506.0</ele><time>2026-05-01T14:35:20Z</time></trkpt><trkpt lat="45.07476574682696" lon="6.723484044096043"><ele>1506.0</ele><time>2026-05-01T14:35:22Z</time></trkpt><trkpt lat="45.074870442989514" lon="6.723431636059744"><ele>1506.0</ele><time>2026-05-01T14:35:24Z</time></trkpt><trkpt lat="45.07497498819016" lon="6.723380403719173"><ele>1507.1999999999998</ele><time>2026-05-01T14:35:26Z</time></trkpt><trkpt lat="45.07506908119416" lon="6.723324573742519"><ele>1508.3999999999999</ele><time>2026-05-01T14:35:28Z</time></trkpt><trkpt lat="45.075168525336274" lon="6.723311456243622"><ele>1509.6</ele><time>2026-05-01T14:35:30Z</time></trkpt><trkpt lat="45.07526764100633" lon="6.723384855364307"><ele>1510.8</ele><time>2026-05-01T14:35:32Z</time></trkpt><trkpt lat="45.075363486884825" lon="6.723425294952611"><ele>1512.0</ele><time>2026-05-01T14:35:34Z</time></trkpt><trkpt lat="45.07527240002691" lon="6.723387284051918"><ele>1512.0</ele><time>2026-05-01T14:35:56Z</time></trkpt><trkpt lat="45.07519186127141" lon="6.723341378770953"><ele>1512.0</ele><time>2026-05-01T14:35:58Z</time></trkpt><trkpt lat="45.07512529699946" lon="6.723326435138911"><ele>1512.0</ele><time>2026-05-01T14:36:00Z</time></trkpt><trkpt lat="45.07505578610652" lon="6.723336405842769"><ele>1512.0</ele><time>2026-05-01T14:36:02Z</time></trkpt><trkpt lat="45.074993669129746" lon="6.723378614244982"><ele>1512.0</ele><time>2026-05-01T14:36:04Z</time></trkpt><trkpt lat="45.074909593408016" lon="6.723405139401575"><ele>1512.0</ele><time>2026-05-01T14:36:06Z</time></trkpt><trkpt lat="45.074835754860715" lon="6.723448196582137"><ele>1510.8</ele><time>2026-05-01T14:36:08Z</time></trkpt><trkpt lat="45.07473166479374" lon="6.723522964576937"><ele>1509.6</ele><time>2026-05-01T14:36:10Z</time></trkpt><trkpt lat="45.074665808266545" lon="6.7236626532424415"><ele>1508.3999999999999</ele><time>2026-05-01T14:36:12Z</time></trkpt><trkpt lat="45.07460387681358" lon="6.7237425917649825"><ele>1507.1999999999998</ele><time>2026-05-01T14:36:14Z</time></trkpt><trkpt lat="45.07454067019994" lon="6.723826553915367"><ele>1506.0</ele><time>2026-05-01T14:36:16Z</time></trkpt><trkpt lat="45.07448177413208" lon="6.723905925896535"><ele>1506.0</ele><time>2026-05-01T14:36:18Z</time></trkpt><trkpt lat="45.0744245148204" lon="6.72398073890275"><ele>1506.0</ele><time>2026-05-01T14:36:20Z</time></trkpt><trkpt lat="45.07435968191908" lon="6.724059108156982"><ele>1506.0</ele><time>2026-05-01T14:36:22Z</time></trkpt><trkpt lat="45.07432387805538" lon="6.724158578050736"><ele>1506.0</ele><time>2026-05-01T14:36:24Z</time></trkpt><trkpt lat="45.07430766381233" lon="6.724275331922606"><ele>1506.0</ele><time>2026-05-01T14:36:26Z</time></trkpt><trkpt lat="45.07427408031346" lon="6.724364704555294"><ele>1506.0</ele><time>2026-05-01T14:36:28Z</time></trkpt><trkpt lat="45.0741730086927" lon="6.724333876516519"><ele>1506.0</ele><time>2026-05-01T14:36:31Z</time></trkpt><trkpt lat="45.074140697569845" lon="6.724250716954931"><ele>1506.0</ele><time>2026-05-01T14:36:33Z</time></trkpt><trkpt lat="45.07410812363609" lon="6.724167578707042"><ele>1506.0</ele><time>2026-05-01T14:36:35Z</time></trkpt><trkpt lat="45.07403134839542" lon="6.724100915377094"><ele>1506.0</ele><time>2026-05-01T14:36:38Z</time></trkpt><trkpt lat="45.07397518315573" lon="6.72400759106244"><ele>1506.0</ele><time>2026-05-01T14:36:41Z</time></trkpt><trkpt lat="45.073954712969915" lon="6.723916002871755"><ele>1506.0</ele><time>2026-05-01T14:36:43Z</time></trkpt><trkpt lat="45.073895247220065" lon="6.723796522228861"><ele>1502.8</ele><time>2026-05-01T14:36:45Z</time></trkpt><trkpt lat="45.07382675725751" lon="6.723679446711051"><ele>1499.6</ele><time>2026-05-01T14:36:47Z</time></trkpt><trkpt lat="45.07374200644306" lon="6.723741956388061"><ele>1496.4</ele><time>2026-05-01T14:36:48Z</time></trkpt><trkpt lat="45.073646043602736" lon="6.723721959574755"><ele>1493.2</ele><time>2026-05-01T14:36:50Z</time></trkpt><trkpt lat="45.0736663927595" lon="6.723840106241152"><ele>1490.0</ele><time>2026-05-01T14:36:52Z</time></trkpt><trkpt lat="45.07356537693963" lon="6.72388021319548"><ele>1490.0</ele><time>2026-05-01T14:36:54Z</time></trkpt><trkpt lat="45.073502764325134" lon="6.723914550987302"><ele>1490.0</ele><time>2026-05-01T14:36:56Z</time></trkpt><trkpt lat="45.073418583019944" lon="6.723953623467449"><ele>1490.0</ele><time>2026-05-01T14:36:58Z</time></trkpt><trkpt lat="45.07331724140607" lon="6.723998343333449"><ele>1490.0</ele><time>2026-05-01T14:37:00Z</time></trkpt><trkpt lat="45.07320591680676" lon="6.724043086361138"><ele>1490.0</ele><time>2026-05-01T14:37:02Z</time></trkpt><trkpt lat="45.073098990458824" lon="6.724085458551952"><ele>1480.5</ele><time>2026-05-01T14:37:04Z</time></trkpt><trkpt lat="45.0730122729588" lon="6.724113764969671"><ele>1471.0</ele><time>2026-05-01T14:37:06Z</time></trkpt><trkpt lat="45.072817698092436" lon="6.723450632537659"><ele>1467.3333333333333</ele><time>2026-05-01T14:37:20Z</time></trkpt><trkpt lat="45.0727512179888" lon="6.723437183995515"><ele>1463.6666666666665</ele><time>2026-05-01T14:37:56Z</time></trkpt><trkpt lat="45.072675524726925" lon="6.723441901399238"><ele>1460.0</ele><time>2026-05-01T14:37:58Z</time></trkpt><trkpt lat="45.07257552480568" lon="6.723448461686696"><ele>1456.3333333333333</ele><time>2026-05-01T14:38:00Z</time></trkpt><trkpt lat="45.07246284134999" lon="6.723408174656477"><ele>1452.6666666666667</ele><time>2026-05-01T14:38:02Z</time></trkpt><trkpt lat="45.07238125198701" lon="6.723401135628588"><ele>1449.0</ele><time>2026-05-01T14:38:04Z</time></trkpt><trkpt lat="45.07230786471902" lon="6.723380999726616"><ele>1444.8333333333333</ele><time>2026-05-01T14:38:06Z</time></trkpt><trkpt lat="45.072223490410586" lon="6.723345770077626"><ele>1440.6666666666667</ele><time>2026-05-01T14:38:08Z</time></trkpt><trkpt lat="45.07215551374868" lon="6.723280097329584"><ele>1436.5</ele><time>2026-05-01T14:38:10Z</time></trkpt><trkpt lat="45.07213941428815" lon="6.72317819166152"><ele>1432.3333333333335</ele><time>2026-05-01T14:38:12Z</time></trkpt><trkpt lat="45.07210355354728" lon="6.723096976046225"><ele>1428.1666666666667</ele><time>2026-05-01T14:38:14Z</time></trkpt><trkpt lat="45.07200524600691" lon="6.723045056155454"><ele>1424.0</ele><time>2026-05-01T14:38:17Z</time></trkpt><trkpt lat="45.07187870236122" lon="6.723040101846891"><ele>1424.0</ele><time>2026-05-01T14:38:19Z</time></trkpt><trkpt lat="45.071786152146245" lon="6.722995801858598"><ele>1424.0</ele><time>2026-05-01T14:38:21Z</time></trkpt><trkpt lat="45.07170153711956" lon="6.722953415341602"><ele>1424.0</ele><time>2026-05-01T14:38:23Z</time></trkpt><trkpt lat="45.07161110040223" lon="6.722895363835423"><ele>1424.0</ele><time>2026-05-01T14:38:25Z</time></trkpt><trkpt lat="45.07153390996147" lon="6.722837257398023"><ele>1424.0</ele><time>2026-05-01T14:38:27Z</time></trkpt><trkpt lat="45.071466619169094" lon="6.722786372656887"><ele>1420.6</ele><time>2026-05-01T14:38:29Z</time></trkpt><trkpt lat="45.07149447873015" lon="6.722656797198164"><ele>1417.2</ele><time>2026-05-01T14:38:33Z</time></trkpt><trkpt lat="45.07158241603738" lon="6.7225918208329665"><ele>1413.8</ele><time>2026-05-01T14:38:35Z</time></trkpt><trkpt lat="45.071638682476646" lon="6.722536066047698"><ele>1410.3999999999999</ele><time>2026-05-01T14:38:36Z</time></trkpt><trkpt lat="45.07171771161698" lon="6.722429546417648"><ele>1407.0</ele><time>2026-05-01T14:38:38Z</time></trkpt><trkpt lat="45.07177495733958" lon="6.722314820498335"><ele>1407.0</ele><time>2026-05-01T14:38:40Z</time></trkpt><trkpt lat="45.07180187160897" lon="6.722194946381365"><ele>1407.0</ele><time>2026-05-01T14:38:42Z</time></trkpt><trkpt lat="45.07177288140655" lon="6.722101444912193"><ele>1407.0</ele><time>2026-05-01T14:38:45Z</time></trkpt><trkpt lat="45.07170575109571" lon="6.72208892698912"><ele>1407.0</ele><time>2026-05-01T14:38:47Z</time></trkpt><trkpt lat="45.07159456185142" lon="6.722101428112112"><ele>1407.0</ele><time>2026-05-01T14:38:49Z</time></trkpt><trkpt lat="45.071528650929494" lon="6.722118188381314"><ele>1407.0</ele><time>2026-05-01T14:38:50Z</time></trkpt><trkpt lat="45.071405411049476" lon="6.72214516095394"><ele>1403.0</ele><time>2026-05-01T14:38:52Z</time></trkpt><trkpt lat="45.071342228598084" lon="6.722139993318698"><ele>1399.0</ele><time>2026-05-01T14:38:53Z</time></trkpt><trkpt lat="45.071220976860566" lon="6.722157792451535"><ele>1395.0</ele><time>2026-05-01T14:38:55Z</time></trkpt><trkpt lat="45.07114849723021" lon="6.722167884718051"><ele>1391.0</ele><time>2026-05-01T14:38:56Z</time></trkpt><trkpt lat="45.0710872837162" lon="6.722214470293687"><ele>1387.0</ele><time>2026-05-01T14:38:57Z</time></trkpt><trkpt lat="45.07102720344652" lon="6.722268505209999"><ele>1383.0</ele><time>2026-05-01T14:38:58Z</time></trkpt><trkpt lat="45.07096027055701" lon="6.722320886227596"><ele>1383.0</ele><time>2026-05-01T14:38:59Z</time></trkpt><trkpt lat="45.070898241119764" lon="6.7223598167309735"><ele>1383.0</ele><time>2026-05-01T14:39:00Z</time></trkpt><trkpt lat="45.070823747231" lon="6.722410552303861"><ele>1383.0</ele><time>2026-05-01T14:39:01Z</time></trkpt><trkpt lat="45.070760961453786" lon="6.722471546536366"><ele>1383.0</ele><time>2026-05-01T14:39:02Z</time></trkpt><trkpt lat="45.07069876727247" lon="6.722544790460636"><ele>1383.0</ele><time>2026-05-01T14:39:03Z</time></trkpt><trkpt lat="45.07065495737996" lon="6.722634519026349"><ele>1383.0</ele><time>2026-05-01T14:39:04Z</time></trkpt><trkpt lat="45.07058771182149" lon="6.722685360468323"><ele>1380.8333333333333</ele><time>2026-05-01T14:39:05Z</time></trkpt><trkpt lat="45.070526355842716" lon="6.722743059309005"><ele>1378.6666666666667</ele><time>2026-05-01T14:39:06Z</time></trkpt><trkpt lat="45.07047981868313" lon="6.722803250332347"><ele>1376.5</ele><time>2026-05-01T14:39:07Z</time></trkpt><trkpt lat="45.07042140955913" lon="6.7228602749268545"><ele>1374.3333333333335</ele><time>2026-05-01T14:39:09Z</time></trkpt><trkpt lat="45.070420634728244" lon="6.72269501707843"><ele>1372.1666666666667</ele><time>2026-05-01T14:39:12Z</time></trkpt><trkpt lat="45.070442308553034" lon="6.722576710585899"><ele>1370.0</ele><time>2026-05-01T14:39:13Z</time></trkpt><trkpt lat="45.0704679727707" lon="6.7224652045080395"><ele>1367.3333333333335</ele><time>2026-05-01T14:39:14Z</time></trkpt><trkpt lat="45.07050304939725" lon="6.7223527070895"><ele>1364.6666666666667</ele><time>2026-05-01T14:39:15Z</time></trkpt><trkpt lat="45.070532870812244" lon="6.7222372529888075"><ele>1362.0</ele><time>2026-05-01T14:39:16Z</time></trkpt><trkpt lat="45.07058382776623" lon="6.722147252861688"><ele>1359.3333333333333</ele><time>2026-05-01T14:39:17Z</time></trkpt><trkpt lat="45.070637793202465" lon="6.722069954066939"><ele>1356.6666666666665</ele><time>2026-05-01T14:39:18Z</time></trkpt><trkpt lat="45.070701123293" lon="6.722001178850679"><ele>1354.0</ele><time>2026-05-01T14:39:19Z</time></trkpt><trkpt lat="45.07076983372839" lon="6.721917861145164"><ele>1355.6666666666665</ele><time>2026-05-01T14:39:20Z</time></trkpt><trkpt lat="45.07083331110211" lon="6.721820208176095"><ele>1357.3333333333333</ele><time>2026-05-01T14:39:21Z</time></trkpt><trkpt lat="45.07087495963151" lon="6.721712030582043"><ele>1359.0</ele><time>2026-05-01T14:39:22Z</time></trkpt><trkpt lat="45.07091265474216" lon="6.721612677701987"><ele>1360.6666666666667</ele><time>2026-05-01T14:39:23Z</time></trkpt><trkpt lat="45.07095272286439" lon="6.721514718263528"><ele>1362.3333333333335</ele><time>2026-05-01T14:39:24Z</time></trkpt><trkpt lat="45.07101292435289" lon="6.721421263095899"><ele>1364.0</ele><time>2026-05-01T14:39:25Z</time></trkpt><trkpt lat="45.07108215118562" lon="6.721340775868491"><ele>1364.0</ele><time>2026-05-01T14:39:26Z</time></trkpt><trkpt lat="45.07116261578292" lon="6.721262804299968"><ele>1364.0</ele><time>2026-05-01T14:39:27Z</time></trkpt><trkpt lat="45.07124733764903" lon="6.721187730601371"><ele>1364.0</ele><time>2026-05-01T14:39:28Z</time></trkpt><trkpt lat="45.07131467650138" lon="6.721083340738116"><ele>1364.0</ele><time>2026-05-01T14:39:29Z</time></trkpt><trkpt lat="45.07135154017802" lon="6.7209453542638"><ele>1364.0</ele><time>2026-05-01T14:39:30Z</time></trkpt><trkpt lat="45.0713776739081" lon="6.720805268565989"><ele>1361.2857142857142</ele><time>2026-05-01T14:39:31Z</time></trkpt><trkpt lat="45.07138645084157" lon="6.720680088042418"><ele>1358.5714285714287</ele><time>2026-05-01T14:39:32Z</time></trkpt><trkpt lat="45.07139750999494" lon="6.720576519964314"><ele>1355.857142857143</ele><time>2026-05-01T14:39:33Z</time></trkpt><trkpt lat="45.07140712941896" lon="6.720477763234211"><ele>1353.142857142857</ele><time>2026-05-01T14:39:34Z</time></trkpt><trkpt lat="45.07143030597022" lon="6.7203867991546264"><ele>1350.4285714285713</ele><time>2026-05-01T14:39:35Z</time></trkpt><trkpt lat="45.071468248297286" lon="6.720314415136404"><ele>1347.7142857142858</ele><time>2026-05-01T14:39:36Z</time></trkpt><trkpt lat="45.07152782181212" lon="6.720234128833976"><ele>1345.0</ele><time>2026-05-01T14:39:38Z</time></trkpt><trkpt lat="45.07148625614002" lon="6.720307323191706"><ele>1345.0</ele><time>2026-05-01T14:39:52Z</time></trkpt><trkpt lat="45.0714433185706" lon="6.720378274068854"><ele>1345.0</ele><time>2026-05-01T14:40:04Z</time></trkpt><trkpt lat="45.0714236519105" lon="6.72046368721407"><ele>1345.0</ele><time>2026-05-01T14:40:15Z</time></trkpt><trkpt lat="45.07146697792963" lon="6.720321052354654"><ele>1345.0</ele><time>2026-05-01T14:40:24Z</time></trkpt><trkpt lat="45.07150404618518" lon="6.720240552597233"><ele>1345.0</ele><time>2026-05-01T14:40:25Z</time></trkpt><trkpt lat="45.07159143376942" lon="6.720120597501562"><ele>1345.0</ele><time>2026-05-01T14:40:27Z</time></trkpt><trkpt lat="45.07164707143711" lon="6.7200578143370615"><ele>1345.5</ele><time>2026-05-01T14:40:28Z</time></trkpt><trkpt lat="45.071750105748826" lon="6.719946383543585"><ele>1346.0</ele><time>2026-05-01T14:40:30Z</time></trkpt><trkpt lat="45.071806190303114" lon="6.7198902713808035"><ele>1346.5</ele><time>2026-05-01T14:40:31Z</time></trkpt><trkpt lat="45.071873381162355" lon="6.719842173326018"><ele>1347.0</ele><time>2026-05-01T14:40:32Z</time></trkpt><trkpt lat="45.07193861376761" lon="6.719787180149888"><ele>1347.5</ele><time>2026-05-01T14:40:33Z</time></trkpt><trkpt lat="45.07200771537659" lon="6.719754048050869"><ele>1348.0</ele><time>2026-05-01T14:40:34Z</time></trkpt><trkpt lat="45.072074443562144" lon="6.719722601882452"><ele>1348.0</ele><time>2026-05-01T14:40:35Z</time></trkpt><trkpt lat="45.07213964093083" lon="6.719679792000627"><ele>1348.0</ele><time>2026-05-01T14:40:36Z</time></trkpt><trkpt lat="45.0722039489776" lon="6.7196367824507375"><ele>1348.0</ele><time>2026-05-01T14:40:37Z</time></trkpt><trkpt lat="45.072272869537144" lon="6.7196265950252725"><ele>1348.0</ele><time>2026-05-01T14:40:38Z</time></trkpt><trkpt lat="45.072342424822715" lon="6.7196336434017025"><ele>1348.0</ele><time>2026-05-01T14:40:39Z</time></trkpt><trkpt lat="45.072373180905394" lon="6.719456029144685"><ele>1348.0</ele><time>2026-05-01T14:40:40Z</time></trkpt><trkpt lat="45.07241056313993" lon="6.71934362629315"><ele>1346.0</ele><time>2026-05-01T14:40:41Z</time></trkpt><trkpt lat="45.072452438339404" lon="6.719217237890407"><ele>1344.0</ele><time>2026-05-01T14:40:42Z</time></trkpt><trkpt lat="45.07251974065671" lon="6.719106274335234"><ele>1342.0</ele><time>2026-05-01T14:40:43Z</time></trkpt><trkpt lat="45.07261918425297" lon="6.719028853248579"><ele>1340.0</ele><time>2026-05-01T14:40:44Z</time></trkpt><trkpt lat="45.07272748571707" lon="6.718986772692014"><ele>1338.0</ele><time>2026-05-01T14:40:45Z</time></trkpt><trkpt lat="45.072828680543864" lon="6.7189926529240775"><ele>1338.0</ele><time>2026-05-01T14:40:46Z</time></trkpt><trkpt lat="45.072909383790424" lon="6.718967716547703"><ele>1338.0</ele><time>2026-05-01T14:40:47Z</time></trkpt><trkpt lat="45.07297917424984" lon="6.718924309334362"><ele>1338.0</ele><time>2026-05-01T14:40:48Z</time></trkpt><trkpt lat="45.07302746566086" lon="6.718811014429842"><ele>1338.0</ele><time>2026-05-01T14:40:49Z</time></trkpt><trkpt lat="45.073070721099505" lon="6.718662059341032"><ele>1338.0</ele><time>2026-05-01T14:40:50Z</time></trkpt><trkpt lat="45.073114816588905" lon="6.71850636349884"><ele>1336.5</ele><time>2026-05-01T14:40:51Z</time></trkpt><trkpt lat="45.07316890005895" lon="6.718373000559778"><ele>1335.0</ele><time>2026-05-01T14:40:52Z</time></trkpt><trkpt lat="45.07324576661907" lon="6.718247515746405"><ele>1333.5</ele><time>2026-05-01T14:40:53Z</time></trkpt><trkpt lat="45.07333581836219" lon="6.71813195936771"><ele>1332.0</ele><time>2026-05-01T14:40:54Z</time></trkpt><trkpt lat="45.073424847329996" lon="6.718027376756149"><ele>1332.0</ele><time>2026-05-01T14:40:55Z</time></trkpt><trkpt lat="45.073518404001994" lon="6.717941349716757"><ele>1332.0</ele><time>2026-05-01T14:40:56Z</time></trkpt><trkpt lat="45.07363529794995" lon="6.717904960718513"><ele>1332.0</ele><time>2026-05-01T14:40:57Z</time></trkpt><trkpt lat="45.0737637416777" lon="6.717856716130637"><ele>1332.0</ele><time>2026-05-01T14:40:58Z</time></trkpt><trkpt lat="45.07387633279084" lon="6.717770428739357"><ele>1329.0</ele><time>2026-05-01T14:40:59Z</time></trkpt><trkpt lat="45.07396965230837" lon="6.7176697610510505"><ele>1326.0</ele><time>2026-05-01T14:41:00Z</time></trkpt><trkpt lat="45.07404615006656" lon="6.717550836940324"><ele>1323.0</ele><time>2026-05-01T14:41:01Z</time></trkpt><trkpt lat="45.07411945426173" lon="6.7174183006874255"><ele>1320.0</ele><time>2026-05-01T14:41:02Z</time></trkpt><trkpt lat="45.074191505366855" lon="6.717298238852771"><ele>1320.0</ele><time>2026-05-01T14:41:03Z</time></trkpt><trkpt lat="45.07426466267174" lon="6.717179675955031"><ele>1320.0</ele><time>2026-05-01T14:41:04Z</time></trkpt><trkpt lat="45.074336439630116" lon="6.717071439530168"><ele>1320.0</ele><time>2026-05-01T14:41:05Z</time></trkpt><trkpt lat="45.074404266757355" lon="6.716954362575678"><ele>1320.0</ele><time>2026-05-01T14:41:06Z</time></trkpt><trkpt lat="45.07447382863543" lon="6.716841767360196"><ele>1320.0</ele><time>2026-05-01T14:41:07Z</time></trkpt><trkpt lat="45.07456090999291" lon="6.716732752830919"><ele>1318.8</ele><time>2026-05-01T14:41:08Z</time></trkpt><trkpt lat="45.07464066060062" lon="6.716638891203699"><ele>1317.6</ele><time>2026-05-01T14:41:09Z</time></trkpt><trkpt lat="45.074723531633076" lon="6.716551727430265"><ele>1316.4</ele><time>2026-05-01T14:41:10Z</time></trkpt><trkpt lat="45.07481260806851" lon="6.716480298178459"><ele>1315.2</ele><time>2026-05-01T14:41:11Z</time></trkpt><trkpt lat="45.074906136116105" lon="6.716407048190024"><ele>1314.0</ele><time>2026-05-01T14:41:12Z</time></trkpt><trkpt lat="45.07500614187859" lon="6.716334305087589"><ele>1314.0</ele><time>2026-05-01T14:41:13Z</time></trkpt><trkpt lat="45.07511372978567" lon="6.716266620456665"><ele>1314.0</ele><time>2026-05-01T14:41:14Z</time></trkpt><trkpt lat="45.07522433549404" lon="6.716201004171233"><ele>1314.0</ele><time>2026-05-01T14:41:15Z</time></trkpt><trkpt lat="45.075339184515215" lon="6.716146816023604"><ele>1314.0</ele><time>2026-05-01T14:41:16Z</time></trkpt><trkpt lat="45.0754556491348" lon="6.716099465638914"><ele>1314.0</ele><time>2026-05-01T14:41:17Z</time></trkpt><trkpt lat="45.07557538682812" lon="6.71608407493099"><ele>1314.0</ele><time>2026-05-01T14:41:18Z</time></trkpt><trkpt lat="45.07569461179826" lon="6.716074657011882"><ele>1314.0</ele><time>2026-05-01T14:41:19Z</time></trkpt><trkpt lat="45.07580920390041" lon="6.716068380250025"><ele>1314.0</ele><time>2026-05-01T14:41:20Z</time></trkpt><trkpt lat="45.07591409693794" lon="6.716039649712485"><ele>1311.3333333333333</ele><time>2026-05-01T14:41:21Z</time></trkpt><trkpt lat="45.076004129591674" lon="6.7160179593266305"><ele>1308.6666666666667</ele><time>2026-05-01T14:41:22Z</time></trkpt><trkpt lat="45.076066845293695" lon="6.715980553906552"><ele>1306.0</ele><time>2026-05-01T14:41:23Z</time></trkpt><trkpt lat="45.07610502060058" lon="6.715888464270323"><ele>1303.3333333333335</ele><time>2026-05-01T14:41:24Z</time></trkpt><trkpt lat="45.07611471173798" lon="6.715768358933915"><ele>1300.6666666666667</ele><time>2026-05-01T14:41:25Z</time></trkpt><trkpt lat="45.07611678153952" lon="6.715627449084213"><ele>1298.0</ele><time>2026-05-01T14:41:26Z</time></trkpt><trkpt lat="45.076130723950904" lon="6.7154561112677245"><ele>1298.0</ele><time>2026-05-01T14:41:27Z</time></trkpt><trkpt lat="45.07615801616978" lon="6.715273712944051"><ele>1298.0</ele><time>2026-05-01T14:41:28Z</time></trkpt><trkpt lat="45.0761783156349" lon="6.7151043092692335"><ele>1298.0</ele><time>2026-05-01T14:41:29Z</time></trkpt><trkpt lat="45.076186247302225" lon="6.714932405383792"><ele>1298.0</ele><time>2026-05-01T14:41:30Z</time></trkpt><trkpt lat="45.07619168539101" lon="6.714759103897536"><ele>1292.0</ele><time>2026-05-01T14:41:31Z</time></trkpt><trkpt lat="45.07621160866725" lon="6.714579651767767"><ele>1286.0</ele><time>2026-05-01T14:41:32Z</time></trkpt><trkpt lat="45.07622448479761" lon="6.714398080457907"><ele>1280.0</ele><time>2026-05-01T14:41:33Z</time></trkpt><trkpt lat="45.07623940749551" lon="6.714234817788465"><ele>1274.0</ele><time>2026-05-01T14:41:34Z</time></trkpt><trkpt lat="45.0762617215472" lon="6.714084905556081"><ele>1268.75</ele><time>2026-05-01T14:41:35Z</time></trkpt><trkpt lat="45.076308163000284" lon="6.713949235386504"><ele>1263.5</ele><time>2026-05-01T14:41:36Z</time></trkpt><trkpt lat="45.076386460443196" lon="6.713834810436837"><ele>1258.25</ele><time>2026-05-01T14:41:37Z</time></trkpt><trkpt lat="45.07648333939925" lon="6.713723059230155"><ele>1253.0</ele><time>2026-05-01T14:41:38Z</time></trkpt><trkpt lat="45.07659026062479" lon="6.713612688486796"><ele>1256.0</ele><time>2026-05-01T14:41:39Z</time></trkpt><trkpt lat="45.07670172345442" lon="6.713508716329304"><ele>1259.0</ele><time>2026-05-01T14:41:40Z</time></trkpt><trkpt lat="45.07679854284225" lon="6.713401898430825"><ele>1262.0</ele><time>2026-05-01T14:41:41Z</time></trkpt><trkpt lat="45.0769055772816" lon="6.7133028305495985"><ele>1265.0</ele><time>2026-05-01T14:41:42Z</time></trkpt><trkpt lat="45.076997751849305" lon="6.713192934512329"><ele>1265.0</ele><time>2026-05-01T14:41:43Z</time></trkpt><trkpt lat="45.077080633346526" lon="6.7130814281715665"><ele>1265.0</ele><time>2026-05-01T14:41:44Z</time></trkpt><trkpt lat="45.07716221983545" lon="6.712960590883608"><ele>1265.0</ele><time>2026-05-01T14:41:45Z</time></trkpt><trkpt lat="45.07725196370919" lon="6.71281922911303"><ele>1265.0</ele><time>2026-05-01T14:41:46Z</time></trkpt><trkpt lat="45.07735321666337" lon="6.71268132520251"><ele>1266.25</ele><time>2026-05-01T14:41:47Z</time></trkpt><trkpt lat="45.07745919792528" lon="6.712552180086671"><ele>1267.5</ele><time>2026-05-01T14:41:48Z</time></trkpt><trkpt lat="45.07755813884801" lon="6.712456772587336"><ele>1268.75</ele><time>2026-05-01T14:41:49Z</time></trkpt><trkpt lat="45.0776504717498" lon="6.712346978589774"><ele>1270.0</ele><time>2026-05-01T14:41:50Z</time></trkpt><trkpt lat="45.077744437258254" lon="6.712228617229047"><ele>1270.0</ele><time>2026-05-01T14:41:51Z</time></trkpt><trkpt lat="45.07782336727957" lon="6.712095558241819"><ele>1270.0</ele><time>2026-05-01T14:41:52Z</time></trkpt><trkpt lat="45.077904735347744" lon="6.711973985019842"><ele>1270.0</ele><time>2026-05-01T14:41:53Z</time></trkpt><trkpt lat="45.07797555521591" lon="6.711852650822222"><ele>1270.0</ele><time>2026-05-01T14:41:54Z</time></trkpt><trkpt lat="45.07803910411567" lon="6.711743968623877"><ele>1269.8</ele><time>2026-05-01T14:41:55Z</time></trkpt><trkpt lat="45.07809229594484" lon="6.711623687235935"><ele>1269.6</ele><time>2026-05-01T14:41:56Z</time></trkpt><trkpt lat="45.07814832684388" lon="6.711514600707257"><ele>1269.4</ele><time>2026-05-01T14:41:57Z</time></trkpt><trkpt lat="45.07821086374496" lon="6.711422951870946"><ele>1269.2</ele><time>2026-05-01T14:41:58Z</time></trkpt><trkpt lat="45.078282639953116" lon="6.711355883084129"><ele>1269.0</ele><time>2026-05-01T14:41:59Z</time></trkpt><trkpt lat="45.07835870095306" lon="6.711310482487027"><ele>1269.0</ele><time>2026-05-01T14:42:00Z</time></trkpt><trkpt lat="45.07842302793001" lon="6.711259954721749"><ele>1269.0</ele><time>2026-05-01T14:42:01Z</time></trkpt><trkpt lat="45.07848880723701" lon="6.711223079727527"><ele>1269.0</ele><time>2026-05-01T14:42:02Z</time></trkpt><trkpt lat="45.0785533315354" lon="6.71118630230597"><ele>1269.0</ele><time>2026-05-01T14:42:03Z</time></trkpt><trkpt lat="45.07860645498885" lon="6.711107686756267"><ele>1269.0</ele><time>2026-05-01T14:42:04Z</time></trkpt><trkpt lat="45.07863135201524" lon="6.711012191930287"><ele>1269.0</ele><time>2026-05-01T14:42:05Z</time></trkpt><trkpt lat="45.07862615727724" lon="6.710904900653303"><ele>1269.0</ele><time>2026-05-01T14:42:06Z</time></trkpt><trkpt lat="45.078634565084904" lon="6.710786948822429"><ele>1261.0</ele><time>2026-05-01T14:42:07Z</time></trkpt><trkpt lat="45.078641176113095" lon="6.710654624234004"><ele>1261.0</ele><time>2026-05-01T14:42:08Z</time></trkpt><trkpt lat="45.07864675715397" lon="6.710553847166464"><ele>1261.0</ele><time>2026-05-01T14:42:09Z</time></trkpt><trkpt lat="45.078663853889005" lon="6.710450087819309"><ele>1261.0</ele><time>2026-05-01T14:42:10Z</time></trkpt><trkpt lat="45.07867378178484" lon="6.710289026191497"><ele>1261.0</ele><time>2026-05-01T14:42:12Z</time></trkpt><trkpt lat="45.07867929965994" lon="6.710174899151429"><ele>1261.0</ele><time>2026-05-01T14:42:14Z</time></trkpt></trkseg></trk></gpx>